[[{"header":{"parameterUnit":"m.s-1","parameterCategory":1,"la1":30.6,"la2":29.2853,"lo1":-89.7004,"lo2":-87.6739,"dx":0.0162,"dy":0.0183,"nx":112,"ny":82,"refTime":"2022-12-30T18:00:00:Z","depth":0,"parameterNumber":2,"parameterNumberName":"U-component_of_WINDS"},"data":[0.0,0.0,0.0,0.0,0.0,0.0,0.0,0.0,0.0,0.0,0.0,0.0,0.0,0.0,0.0,0.0,0.0,0.0,0.0,0.0,0.0,0.0,0.0,0.0,0.0,0.0,0.0,0.0,0.0,0.0,0.0,0.0,0.0,0.0,0.0,0.0,0.0,0.0,0.0,0.0,0.0,0.0,0.0,0.0,0.0,0.0,0.0,0.0,0.0,0.0,0.0,0.0,0.0,0.0,0.0,0.0,0.0,0.0,0.0,0.0,0.0,0.0,0.0,0.0,0.0,0.0,0.0,0.0,0.0,0.0,0.0,0.0,0.0,0.0,0.0,0.0,0.0,0.0,0.0,0.0,0.0,0.0,0.0,0.0,0.0,0.0,0.0,0.0,0.0,0.0,-4.5741,-4.6863,-4.916,-5.0633,-5.0697,-5.0585,-5.0097,-4.9125,0.0,0.0,0.0,0.0,0.0,0.0,0.0,0.0,0.0,0.0,0.0,0.0,0.0,0.0,0.0,0.0,0.0,0.0,0.0,0.0,0.0,0.0,0.0,0.0,0.0,0.0,0.0,0.0,0.0,0.0,0.0,0.0,0.0,0.0,0.0,0.0,0.0,0.0,0.0,0.0,0.0,0.0,0.0,0.0,0.0,0.0,0.0,0.0,0.0,0.0,0.0,0.0,0.0,0.0,0.0,0.0,0.0,0.0,0.0,0.0,0.0,0.0,0.0,0.0,0.0,0.0,0.0,0.0,0.0,0.0,0.0,0.0,0.0,0.0,0.0,0.0,0.0,0.0,0.0,0.0,0.0,0.0,0.0,0.0,0.0,0.0,0.0,0.0,0.0,0.0,0.0,0.0,0.0,0.0,0.0,0.0,0.0,0.0,0.0,0.0,0.0,0.0,0.0,0.0,-4.6725,-4.9189,-5.0468,-5.126,-5.149,-5.0885,-5.0418,-5.0258,0.0,0.0,0.0,0.0,0.0,0.0,0.0,0.0,0.0,0.0,0.0,0.0,0.0,0.0,0.0,0.0,0.0,0.0,0.0,0.0,0.0,0.0,0.0,0.0,0.0,0.0,0.0,0.0,0.0,0.0,0.0,0.0,0.0,0.0,0.0,0.0,0.0,0.0,0.0,0.0,0.0,0.0,0.0,0.0,0.0,0.0,0.0,0.0,0.0,0.0,0.0,0.0,0.0,0.0,0.0,0.0,0.0,0.0,0.0,0.0,0.0,0.0,0.0,0.0,0.0,0.0,0.0,0.0,0.0,0.0,0.0,0.0,0.0,0.0,0.0,0.0,0.0,0.0,0.0,0.0,0.0,0.0,0.0,0.0,0.0,0.0,0.0,0.0,0.0,0.0,0.0,0.0,0.0,0.0,0.0,0.0,0.0,0.0,0.0,0.0,0.0,0.0,0.0,-4.6214,-4.8051,-5.0211,-5.1189,-5.1747,-5.1844,-5.1528,-5.0935,-5.0063,-4.9529,0.0,0.0,0.0,0.0,0.0,0.0,0.0,0.0,0.0,0.0,0.0,0.0,0.0,0.0,0.0,0.0,0.0,0.0,0.0,0.0,0.0,0.0,0.0,0.0,0.0,0.0,0.0,0.0,0.0,0.0,0.0,0.0,0.0,0.0,0.0,0.0,0.0,0.0,0.0,0.0,0.0,0.0,0.0,0.0,0.0,0.0,0.0,0.0,0.0,0.0,0.0,0.0,0.0,0.0,0.0,0.0,0.0,0.0,0.0,0.0,0.0,0.0,0.0,0.0,0.0,0.0,0.0,0.0,0.0,0.0,0.0,0.0,0.0,0.0,0.0,0.0,0.0,0.0,0.0,0.0,0.0,0.0,0.0,0.0,0.0,0.0,0.0,0.0,0.0,0.0,0.0,0.0,0.0,0.0,0.0,0.0,0.0,0.0,0.0,0.0,0.0,0.0,-4.7609,-4.926,-5.0912,-5.1793,-5.227,-5.227,-5.2087,-5.1389,-4.9978,-4.9721,0.0,0.0,0.0,0.0,0.0,0.0,0.0,0.0,0.0,0.0,0.0,0.0,0.0,0.0,0.0,0.0,0.0,0.0,0.0,0.0,0.0,0.0,0.0,0.0,0.0,0.0,0.0,0.0,0.0,0.0,0.0,0.0,0.0,0.0,0.0,0.0,0.0,0.0,0.0,0.0,0.0,0.0,0.0,0.0,0.0,0.0,0.0,0.0,0.0,0.0,0.0,0.0,0.0,0.0,0.0,0.0,0.0,0.0,0.0,0.0,0.0,0.0,0.0,0.0,0.0,0.0,0.0,0.0,0.0,0.0,0.0,0.0,0.0,0.0,0.0,0.0,0.0,0.0,0.0,0.0,0.0,0.0,0.0,0.0,0.0,0.0,0.0,0.0,0.0,0.0,0.0,0.0,0.0,0.0,0.0,0.0,0.0,0.0,0.0,0.0,0.0,0.0,-4.8453,-5.0124,-5.172,-5.2637,-5.3115,-5.3115,-5.2417,-5.161,-5.0765,-5.0014,0.0,0.0,0.0,0.0,0.0,0.0,0.0,0.0,0.0,0.0,0.0,0.0,0.0,0.0,0.0,0.0,0.0,0.0,0.0,0.0,0.0,0.0,0.0,0.0,0.0,0.0,0.0,0.0,0.0,0.0,0.0,0.0,0.0,0.0,0.0,0.0,0.0,0.0,0.0,0.0,0.0,0.0,0.0,0.0,0.0,0.0,0.0,0.0,0.0,0.0,0.0,0.0,0.0,0.0,0.0,0.0,0.0,0.0,0.0,0.0,0.0,0.0,0.0,0.0,0.0,0.0,0.0,0.0,0.0,0.0,0.0,0.0,0.0,0.0,0.0,0.0,0.0,0.0,0.0,0.0,0.0,0.0,0.0,0.0,0.0,0.0,0.0,0.0,0.0,0.0,0.0,0.0,0.0,0.0,0.0,0.0,0.0,0.0,0.0,0.0,0.0,0.0,-4.9003,-5.0765,-5.1867,-5.2711,-5.3203,-5.3203,-5.2931,-5.2197,-5.0875,0.0,0.0,0.0,0.0,0.0,0.0,0.0,0.0,0.0,0.0,0.0,0.0,0.0,0.0,0.0,0.0,0.0,0.0,0.0,0.0,0.0,0.0,0.0,0.0,0.0,0.0,0.0,0.0,0.0,0.0,0.0,0.0,0.0,0.0,0.0,0.0,0.0,0.0,0.0,0.0,0.0,0.0,0.0,0.0,0.0,0.0,0.0,0.0,0.0,0.0,0.0,0.0,0.0,0.0,0.0,0.0,0.0,0.0,0.0,0.0,0.0,0.0,0.0,0.0,0.0,0.0,0.0,0.0,0.0,0.0,0.0,0.0,0.0,0.0,0.0,0.0,0.0,0.0,0.0,0.0,0.0,0.0,0.0,0.0,0.0,0.0,0.0,0.0,0.0,0.0,0.0,0.0,0.0,0.0,0.0,0.0,0.0,0.0,0.0,0.0,0.0,0.0,-4.7663,-4.9591,-5.1316,-5.2601,-5.3041,-5.3298,-5.3555,-5.3371,-5.2637,-5.1279,0.0,0.0,0.0,0.0,0.0,0.0,0.0,0.0,0.0,0.0,0.0,0.0,0.0,0.0,0.0,0.0,0.0,0.0,0.0,0.0,0.0,0.0,0.0,0.0,0.0,0.0,0.0,0.0,0.0,0.0,0.0,0.0,0.0,0.0,0.0,0.0,0.0,0.0,0.0,0.0,0.0,0.0,0.0,0.0,0.0,0.0,0.0,0.0,0.0,0.0,0.0,0.0,0.0,0.0,0.0,0.0,0.0,0.0,0.0,0.0,0.0,0.0,0.0,0.0,0.0,0.0,0.0,0.0,0.0,0.0,0.0,0.0,0.0,0.0,0.0,0.0,0.0,0.0,0.0,0.0,0.0,0.0,0.0,0.0,0.0,0.0,0.0,0.0,0.0,0.0,0.0,0.0,0.0,0.0,0.0,0.0,0.0,0.0,0.0,0.0,0.0,0.0,-4.9187,-5.0288,-5.172,-5.4142,-5.3702,-5.3555,-5.4326,-5.3665,-5.2858,0.0,0.0,0.0,0.0,0.0,0.0,0.0,0.0,0.0,0.0,0.0,0.0,0.0,0.0,0.0,0.0,0.0,0.0,0.0,0.0,0.0,0.0,0.0,0.0,0.0,0.0,0.0,0.0,0.0,0.0,0.0,0.0,0.0,0.0,0.0,0.0,0.0,0.0,0.0,0.0,0.0,0.0,0.0,0.0,0.0,0.0,0.0,0.0,0.0,0.0,0.0,0.0,0.0,0.0,0.0,0.0,0.0,0.0,0.0,0.0,0.0,0.0,0.0,0.0,0.0,0.0,0.0,0.0,0.0,0.0,0.0,0.0,0.0,0.0,0.0,0.0,0.0,0.0,0.0,0.0,0.0,0.0,0.0,0.0,0.0,0.0,0.0,0.0,0.0,0.0,0.0,0.0,0.0,0.0,0.0,0.0,0.0,0.0,0.0,0.0,0.0,0.0,0.0,-4.9353,-5.0765,-5.2344,-5.4216,-5.4179,-5.4142,-5.4363,-5.4179,-5.3445,-5.2087,0.0,0.0,0.0,0.0,0.0,0.0,0.0,0.0,0.0,0.0,0.0,0.0,0.0,0.0,0.0,0.0,0.0,0.0,0.0,0.0,0.0,0.0,0.0,0.0,0.0,0.0,0.0,0.0,0.0,0.0,0.0,0.0,0.0,0.0,0.0,0.0,0.0,0.0,0.0,0.0,0.0,0.0,0.0,0.0,0.0,0.0,0.0,0.0,0.0,0.0,0.0,0.0,0.0,0.0,0.0,0.0,0.0,0.0,0.0,0.0,0.0,0.0,0.0,0.0,0.0,0.0,0.0,0.0,0.0,0.0,0.0,0.0,0.0,0.0,0.0,0.0,0.0,0.0,0.0,0.0,0.0,0.0,0.0,0.0,0.0,0.0,0.0,0.0,0.0,0.0,0.0,0.0,0.0,0.0,0.0,0.0,0.0,0.0,0.0,0.0,0.0,0.0,-4.9848,-5.1463,-5.3115,-5.4693,-5.4876,-5.5023,-5.5317,-5.4766,-5.3995,-5.3004,0.0,0.0,0.0,0.0,0.0,0.0,0.0,0.0,0.0,0.0,0.0,0.0,0.0,0.0,0.0,0.0,0.0,0.0,0.0,0.0,0.0,0.0,0.0,0.0,0.0,0.0,0.0,0.0,0.0,0.0,0.0,0.0,0.0,0.0,0.0,0.0,0.0,0.0,0.0,0.0,0.0,0.0,0.0,0.0,0.0,0.0,0.0,0.0,0.0,0.0,0.0,0.0,0.0,0.0,0.0,0.0,0.0,0.0,0.0,0.0,0.0,0.0,0.0,0.0,0.0,0.0,0.0,0.0,0.0,0.0,0.0,0.0,0.0,0.0,0.0,0.0,0.0,0.0,0.0,0.0,0.0,0.0,0.0,0.0,0.0,0.0,0.0,0.0,0.0,0.0,0.0,0.0,0.0,0.0,0.0,0.0,0.0,0.0,0.0,0.0,0.0,0.0,-5.0692,-5.2344,-5.3922,-5.5427,-5.5647,-5.6014,-5.6748,-5.5464,-5.4546,-5.4399,0.0,0.0,0.0,0.0,0.0,0.0,0.0,0.0,0.0,0.0,0.0,0.0,0.0,0.0,0.0,0.0,0.0,0.0,0.0,0.0,0.0,0.0,0.0,0.0,0.0,0.0,0.0,0.0,0.0,0.0,0.0,0.0,0.0,0.0,0.0,0.0,0.0,0.0,0.0,0.0,0.0,0.0,0.0,0.0,0.0,0.0,0.0,0.0,0.0,0.0,0.0,0.0,0.0,0.0,0.0,0.0,0.0,0.0,0.0,0.0,-4.74,-4.7032,0.0,0.0,0.0,0.0,0.0,0.0,0.0,0.0,0.0,0.0,0.0,0.0,0.0,0.0,0.0,0.0,0.0,0.0,0.0,0.0,0.0,0.0,0.0,0.0,0.0,0.0,0.0,0.0,0.0,0.0,0.0,0.0,0.0,0.0,0.0,0.0,0.0,0.0,0.0,0.0,-5.1536,-5.3151,-5.4509,-5.55,-5.6161,-5.6602,-5.6785,-5.6492,-5.5757,-5.4473,-5.3482,0.0,0.0,0.0,0.0,0.0,0.0,0.0,0.0,0.0,0.0,0.0,0.0,0.0,0.0,0.0,0.0,0.0,0.0,0.0,0.0,0.0,0.0,0.0,0.0,0.0,0.0,0.0,0.0,0.0,0.0,0.0,0.0,0.0,0.0,0.0,0.0,0.0,0.0,0.0,0.0,0.0,0.0,0.0,0.0,0.0,0.0,0.0,0.0,0.0,0.0,0.0,0.0,0.0,0.0,0.0,0.0,0.0,0.0,0.0,-4.849,-4.7589,0.0,0.0,0.0,0.0,0.0,0.0,0.0,0.0,0.0,0.0,0.0,0.0,0.0,0.0,0.0,0.0,0.0,0.0,0.0,0.0,0.0,0.0,0.0,0.0,0.0,0.0,0.0,0.0,0.0,0.0,0.0,0.0,0.0,0.0,0.0,0.0,0.0,0.0,0.0,0.0,-5.2417,-5.3995,-5.528,-5.6088,-5.6895,-5.7373,-5.7373,-5.7042,-5.6477,-5.5698,-5.4522,0.0,0.0,0.0,0.0,0.0,0.0,0.0,0.0,0.0,0.0,0.0,0.0,0.0,0.0,0.0,0.0,0.0,0.0,0.0,0.0,0.0,0.0,0.0,0.0,0.0,0.0,0.0,0.0,0.0,0.0,0.0,0.0,0.0,0.0,0.0,0.0,0.0,0.0,0.0,0.0,0.0,0.0,0.0,0.0,0.0,0.0,0.0,0.0,0.0,0.0,0.0,0.0,0.0,-4.9452,-5.0066,-4.9859,-5.1473,-5.2181,-5.2058,-4.9632,-4.8452,-4.8211,-4.7837,0.0,0.0,0.0,0.0,0.0,0.0,0.0,0.0,0.0,0.0,0.0,0.0,0.0,0.0,0.0,0.0,0.0,0.0,0.0,0.0,0.0,0.0,-4.7939,-4.9444,-4.9941,-4.9627,-4.8269,0.0,0.0,0.0,0.0,0.0,0.0,0.0,0.0,0.0,0.0,0.0,-5.3335,-5.495,-5.6271,-5.6932,-5.785,-5.8437,-5.8437,-5.7813,-5.7381,-5.7199,-5.5896,-5.478,0.0,0.0,0.0,0.0,0.0,0.0,0.0,0.0,0.0,0.0,0.0,0.0,0.0,0.0,0.0,0.0,0.0,0.0,0.0,0.0,0.0,0.0,0.0,0.0,0.0,0.0,0.0,0.0,0.0,0.0,0.0,0.0,-4.3583,-4.3583,0.0,0.0,0.0,0.0,0.0,0.0,0.0,0.0,0.0,0.0,0.0,0.0,0.0,-4.7462,-4.9047,-4.9404,-5.0095,-5.118,-5.1691,-5.179,-5.141,-5.1684,-5.1775,-5.1791,-5.1712,0.0,-5.1604,-5.0966,0.0,0.0,0.0,0.0,0.0,0.0,0.0,0.0,0.0,0.0,0.0,0.0,0.0,0.0,0.0,0.0,0.0,0.0,0.0,0.0,0.0,0.0,-4.9481,-5.0435,-5.1169,-5.161,-5.1389,-5.0802,-5.0105,-4.9427,-4.9738,-4.9958,0.0,0.0,0.0,0.0,0.0,0.0,-5.4142,-5.6271,-5.7703,-5.7813,-5.9208,-6.0089,-6.0089,-5.9979,-5.9402,-5.8142,-5.781,-5.7066,-5.5623,-5.4109,0.0,0.0,0.0,0.0,0.0,0.0,0.0,0.0,0.0,0.0,0.0,0.0,0.0,0.0,0.0,0.0,0.0,0.0,0.0,0.0,0.0,0.0,0.0,0.0,0.0,0.0,0.0,0.0,0.0,-4.3763,-4.3948,-4.4391,-4.4465,-4.4696,0.0,0.0,0.0,0.0,0.0,0.0,0.0,0.0,0.0,-4.8782,-4.9091,-4.984,-5.102,-5.186,-5.2468,-5.2817,-5.4126,-5.4515,-5.4145,-5.4597,-5.4726,-5.4507,-5.4473,-5.4455,-5.4288,-5.235,-5.1571,-5.1446,0.0,0.0,0.0,0.0,-4.9877,-4.974,-4.9897,-4.9637,-4.9187,-4.9187,0.0,0.0,0.0,0.0,0.0,0.0,0.0,-4.9554,-5.1206,-5.194,-5.2491,-5.3298,-5.3775,-5.3995,-5.3995,-5.3739,-5.2968,-5.13,-5.0875,-5.0839,-5.0875,-5.161,0.0,0.0,0.0,-5.4987,-5.6271,-5.7336,-5.8364,-5.9245,-5.9979,-6.0419,-6.0419,-6.0419,-6.0197,-5.9669,-5.9249,-5.8504,-5.7513,-5.6286,-5.5249,0.0,0.0,0.0,0.0,0.0,0.0,0.0,0.0,0.0,0.0,0.0,0.0,0.0,0.0,0.0,0.0,0.0,0.0,0.0,0.0,0.0,0.0,0.0,0.0,0.0,0.0,0.0,0.0,-4.4125,-4.4506,-4.5138,-4.5441,-4.5969,0.0,0.0,0.0,0.0,0.0,0.0,-4.799,-4.8853,-4.9762,-5.0633,-5.1444,-5.2254,-5.31,-5.4074,-5.4524,-5.4405,-5.5822,-5.6245,-5.5939,-5.6579,-5.6683,-5.6406,-5.6194,-5.6054,-5.5788,-5.3665,-5.2678,-5.2475,-5.214,-5.2075,-5.218,-5.234,-5.2259,-5.2055,-5.2321,-5.2092,-5.172,-5.172,-5.1169,-5.0508,-5.0472,0.0,0.0,0.0,0.0,-5.205,-5.3445,-5.4252,-5.4913,-5.5721,-5.5757,-5.5669,-5.5868,-5.5904,-5.5317,-5.3298,-5.2417,-5.2234,-5.2821,-5.3408,0.0,-5.4876,-5.5684,-5.6712,-5.8143,-5.8657,-5.9391,-6.0566,-6.0896,-6.1006,-6.1006,-6.1006,-6.1029,-6.1103,-6.0535,-5.9945,-5.9346,-5.8429,-5.7316,-5.5966,0.0,0.0,0.0,0.0,0.0,0.0,0.0,0.0,0.0,0.0,0.0,0.0,0.0,0.0,0.0,0.0,0.0,0.0,0.0,0.0,0.0,0.0,0.0,0.0,0.0,0.0,0.0,0.0,0.0,-4.5207,-4.6158,0.0,0.0,0.0,0.0,-4.8106,-4.9404,-5.0354,-5.0868,-5.1967,-5.2589,-5.2639,-5.3518,-5.4346,-5.5224,-5.5674,-5.6112,-5.6529,-5.6276,-5.5957,-5.561,-5.5647,-5.5683,-5.5683,-5.599,-5.5928,-5.5618,-5.5456,-5.5581,-5.5815,-5.5491,-5.5539,-5.5812,-5.5512,-5.5376,-5.5376,-5.5397,-5.4861,-5.4216,-5.4216,-5.3665,-5.3041,-5.2983,-5.2983,0.0,0.0,-5.4179,-5.4399,-5.5244,-5.55,-5.5721,-5.6565,-5.6161,-5.5794,-5.6565,-5.6748,-5.6492,-5.5574,-5.5412,-5.5354,-5.5412,0.0,-5.5757,-5.6565,-5.7373,-5.818,-5.9038,-6.0456,-6.1447,-6.152,-6.2218,-6.2695,-6.2695,-6.2695,-6.2463,-6.1989,-6.1878,-6.1624,-6.1091,-6.0237,-5.9346,-5.8549,-5.7711,0.0,0.0,0.0,0.0,0.0,0.0,0.0,0.0,0.0,0.0,0.0,0.0,0.0,0.0,0.0,0.0,0.0,0.0,0.0,0.0,0.0,0.0,0.0,0.0,0.0,0.0,0.0,0.0,-4.7042,-4.8045,0.0,-4.9566,-5.0179,-5.073,-5.114,-5.1649,-5.2004,-5.2196,-5.3646,-5.4486,-5.4486,-5.5545,-5.6178,-5.6242,-5.6903,-5.7207,-5.7152,-5.779,-5.7896,-5.7503,-5.7503,-5.7389,-5.7138,-5.7258,-5.7273,-5.7152,-5.7152,-5.6603,-5.5776,-5.564,-5.5683,-5.5797,-5.5886,-5.5797,-5.5618,-5.5845,-5.5591,-5.517,-5.517,-5.4987,-5.473,-5.473,-5.473,-5.4803,-5.5097,-5.5537,-5.6014,-5.6308,-5.6748,-5.7226,-5.7483,-5.7336,-5.7226,-5.7519,-5.7556,-5.7483,-5.7189,-5.7152,-5.7152,-5.7152,-5.7556,-5.785,-5.7593,-5.8694,-5.9465,-5.9221,-6.0603,-6.1594,-6.1594,-6.2328,-6.278,-6.278,-6.288,-6.2892,-6.2765,-6.2859,-6.2604,-6.1982,-6.167,-6.089,-5.9494,-5.9181,-5.8103,0.0,0.0,0.0,0.0,0.0,0.0,0.0,0.0,0.0,0.0,0.0,0.0,0.0,0.0,0.0,0.0,0.0,0.0,0.0,0.0,0.0,0.0,0.0,0.0,0.0,-4.7198,-4.8361,-4.8659,-4.9955,-5.1051,-5.1635,-5.2167,-5.2804,-5.3633,-5.3683,-5.3913,-5.4486,-5.5632,-5.6191,-5.6044,-5.7135,-5.751,-5.7094,-5.7791,-5.8012,-5.7827,-5.8469,-5.8648,-5.8412,-5.8412,-5.8238,-5.7997,-5.7997,-5.7997,-5.7997,-5.7997,-5.7519,-5.6785,-5.6528,-5.6381,-5.6426,-5.6636,-5.6608,-5.6426,-5.6657,-5.6608,-5.6381,-5.6381,-5.6381,-5.6381,-5.6381,-5.6381,-5.6381,-5.6381,-5.6785,-5.7189,-5.7189,-5.7593,-5.807,-5.8327,-5.8217,-5.8143,-5.8694,-5.8804,-5.8951,-5.9501,-5.8951,-5.84,-5.84,-5.9098,-5.9538,-5.9245,-6.0126,-6.0823,-6.086,-6.1777,-6.2548,-6.2805,-6.3319,-6.3649,-6.3649,-6.3725,-6.3849,-6.402,-6.4116,-6.4035,-6.3653,-6.3379,-6.2562,-6.1187,-6.0311,-5.9515,-5.8735,0.0,0.0,0.0,0.0,0.0,0.0,0.0,0.0,0.0,0.0,0.0,0.0,0.0,0.0,0.0,0.0,0.0,0.0,0.0,0.0,0.0,0.0,0.0,-4.7151,-4.8696,-4.9946,-4.9984,-5.1688,-5.2843,-5.2881,-5.2881,-5.3645,-5.5365,-5.5479,-5.6205,-5.781,-5.7911,-5.7735,-5.7384,-5.811,-5.8325,-5.7958,-5.8381,-5.8566,-5.8566,-5.8186,-5.7997,-5.7997,-5.8033,-5.8033,-5.8033,-5.807,-5.807,-5.807,-5.807,-5.8547,-5.9148,-5.8364,-5.8033,-5.807,-5.807,-5.807,-5.807,-5.807,-5.807,-5.807,-5.807,-5.807,-5.807,-5.807,-5.807,-5.807,-5.807,-5.807,-5.807,-5.807,-5.807,-5.829,-5.9074,-5.8694,-5.8547,-6.0126,-6.0493,-6.0933,-6.2487,-6.0909,-5.9368,-5.9368,-6.0052,-6.0823,-6.1557,-6.1704,0.0,-6.3833,-6.409,-6.442,-6.5191,-6.5301,-6.5301,-6.5301,-6.5301,-6.543,-6.5706,-6.5731,-6.5828,-6.6067,-6.5311,-6.4433,-6.3653,-6.124,-6.0385,-6.1202,0.0,0.0,0.0,0.0,0.0,0.0,0.0,0.0,0.0,0.0,0.0,0.0,0.0,0.0,0.0,0.0,0.0,0.0,0.0,0.0,0.0,-4.8966,-4.9451,-4.9105,-5.0266,-5.1332,-5.1916,-5.3035,-5.3989,-5.4639,-5.5212,-5.6014,-5.7122,-5.7199,-5.7428,-5.7886,-5.8172,-5.8418,-5.8587,-5.8588,-5.8652,-5.8821,-5.837,-5.8164,-5.8164,-5.8065,-5.7997,-5.8033,-5.8621,-5.8877,-5.8914,-5.9501,-5.9758,-5.9758,-5.9758,-5.9869,-6.0015,-5.9208,-5.9245,-5.9758,-5.9758,-5.9758,-5.9758,-5.9758,-5.9758,-5.9758,-5.9758,-5.9758,-5.9758,-5.9758,-5.9758,-5.9758,-5.9758,-5.9758,-5.9758,-5.9758,-5.9758,-5.9942,-6.075,-6.075,-6.0896,-6.1924,-6.2144,-6.2291,-6.2707,-6.2768,-6.2952,-6.3539,-6.3833,-6.3833,-6.3466,-6.3906,-6.4016,-6.3246,-6.4237,-6.4824,-6.4457,-6.4971,-6.5301,-6.5301,-6.5481,-6.5632,-6.5706,-6.5877,-6.602,-6.6128,-6.5868,-6.5348,-6.447,-6.323,-6.2197,0.0,0.0,0.0,0.0,0.0,0.0,0.0,0.0,0.0,0.0,0.0,0.0,0.0,0.0,0.0,0.0,0.0,0.0,0.0,0.0,0.0,0.0,-5.0451,-5.1383,-5.2106,-5.245,-5.2957,-5.3798,-5.4639,-5.5479,-5.6358,-5.6855,-5.7504,-5.8345,-5.8421,-5.8574,-5.8918,-5.9168,-5.9262,-5.9169,-5.8971,-5.8811,-5.8689,-5.8231,-5.818,-5.851,-5.851,-5.8694,-5.9024,-5.9501,-5.9698,-5.9735,-6.0199,-6.0419,-6.0382,-6.0052,-6.0126,-6.0346,0.0,0.0,0.0,0.0,-6.0126,-6.0346,-6.0015,-6.0126,-6.0419,-6.0419,-6.0419,-6.0419,-6.0419,-6.0419,-6.0419,-6.0419,-6.0419,-6.0493,-6.0823,-6.0896,-6.1117,-6.1924,-6.2108,-6.2328,-6.3172,-6.3356,-6.3539,-6.4237,-6.4751,0.0,-6.6182,-6.5742,-6.5154,-6.4677,-6.5007,-6.5081,-6.4457,-6.5191,-6.5742,-6.5595,-6.6035,-6.6319,-6.6371,-6.6526,0.0,0.0,0.0,-6.6911,-6.6611,-6.6611,0.0,0.0,0.0,-6.4244,-6.3442,-6.3162,0.0,0.0,-6.0941,-6.0576,0.0,0.0,0.0,0.0,0.0,0.0,0.0,0.0,0.0,0.0,0.0,0.0,0.0,0.0,0.0,0.0,-5.184,-5.3645,-5.5288,-5.4944,-5.483,-5.5594,-5.632,-5.7084,-5.7963,-5.8039,-5.8383,-5.9185,-5.9262,-5.9568,-6.0384,-6.0313,0.0,0.0,0.0,-5.8767,-5.8198,-5.8166,-5.8547,-5.9331,-5.9331,-5.9698,-6.0419,-6.0419,-6.0419,-6.0419,-6.0419,-6.0419,-6.0346,-5.9648,-5.9845,-6.0639,-6.0493,-6.0456,-6.0456,-5.9735,-5.9979,-6.0566,-5.9845,0.0,0.0,-6.0676,-6.0676,-6.0676,-6.0676,-6.0676,-6.0676,-6.0676,-6.075,-6.097,-6.1704,-6.1961,-6.2218,-6.3025,-6.322,-6.3429,-6.42,-6.442,-6.4897,-6.6219,-6.6549,-6.6843,-6.7577,-6.6512,-6.5595,-6.5595,-6.5595,-6.5852,-6.6549,-6.6623,-6.6916,-6.7614,-6.7687,0.0,-6.7899,-6.7926,-6.803,-6.8284,-6.8309,-6.8,-6.7369,-6.7332,-6.6937,-6.6049,-6.6012,-6.5951,-6.5791,-6.529,-6.5028,-6.4955,-6.1723,-6.1207,0.0,0.0,0.0,0.0,0.0,0.0,0.0,0.0,0.0,0.0,0.0,0.0,0.0,0.0,0.0,-5.2278,-5.3822,-5.525,-5.6243,-5.6816,-5.7237,-5.739,-5.7542,-5.7963,-5.8803,-5.888,-5.9224,-6.0064,-6.0141,-6.0217,-6.0384,-5.9755,-5.9502,-5.9673,-5.873,-5.8615,-5.944,-5.9136,-5.9391,-6.0162,-6.0162,0.0,-6.0419,-6.0419,-6.0419,-6.0419,-6.0419,-6.0419,-6.0382,-6.0236,-6.1043,-6.2218,-6.0933,-6.0786,-6.1337,-6.119,-6.1667,-6.2303,-6.2156,-6.2218,-6.234,-6.234,-6.234,-6.234,-6.234,-6.234,0.0,-6.234,-6.2842,-6.3429,-6.3576,-6.409,-6.4787,-6.5595,-6.5778,-6.5815,-6.5999,-6.6549,-6.688,-6.6549,-6.7026,-6.7504,-6.765,-6.743,-6.7247,-6.7247,-6.7247,-6.7283,-6.743,-6.7467,-6.7504,-6.7677,-6.7687,-6.7767,-6.7899,-6.803,-6.8132,-6.8284,-6.8383,-6.8173,-6.7579,-6.7553,-6.69,-6.5568,-6.554,-6.4988,-6.3817,-6.4345,-6.4608,-6.4572,-6.3255,-6.2837,0.0,0.0,0.0,0.0,0.0,0.0,0.0,0.0,0.0,0.0,0.0,-4.9578,-5.0107,0.0,-5.3082,-5.4086,-5.5611,-5.6878,-5.7449,-5.7929,-5.8292,-5.8484,-5.8498,-5.8842,-5.9682,-5.9759,-5.9911,-6.0384,-6.0422,-6.0313,-6.0114,-5.9706,-5.9603,-5.9797,-5.9218,-5.9279,-6.0069,-5.9913,-6.0199,-6.1006,-6.0603,-6.0603,-6.1006,-6.0566,-6.086,-6.1594,-6.1594,-6.2071,-6.2842,-6.2438,-6.2475,-6.2707,-6.1924,-6.2365,-6.3392,-6.2989,-6.3356,-6.3991,-6.3613,-6.3723,-6.4053,-6.4053,-6.3796,-6.3466,-6.3466,-6.3172,-6.278,-6.278,-6.3135,-6.3539,-6.398,-6.4383,-6.4897,-6.5705,-6.6219,-6.6512,-6.6512,-6.7136,-6.7577,-6.7173,-6.776,-6.8311,-6.8311,-6.8641,-6.8605,-6.7797,-6.7687,-6.7687,-6.7687,-6.7687,-6.7687,-6.7687,-6.7687,-6.7623,-6.7506,-6.779,-6.7982,-6.8065,-6.8449,-6.8586,-6.8239,-6.8239,-6.7913,-6.7191,-6.7155,-6.6795,-6.6095,-6.6217,-6.6271,-6.6203,-6.5521,-6.5131,0.0,0.0,0.0,0.0,0.0,0.0,0.0,-4.7516,-4.8126,-4.8974,-5.0063,-5.1185,-5.2156,-5.3887,-5.5276,-5.5565,-5.6972,-5.8139,-5.8439,-5.8635,-5.8912,-5.9297,-5.9283,-5.9536,-6.0332,-6.0422,-6.0422,-6.0422,-6.0328,-6.0173,-5.9922,-5.9824,-5.9833,-5.9901,-5.9897,-6.0151,-6.0639,-6.0639,-6.1043,-6.1814,-6.119,-6.13,-6.2071,-6.1227,-6.1667,-6.3062,-6.2879,-6.3551,-6.4787,-6.4127,-6.3613,-6.3319,-6.3319,-6.431,-6.5632,-6.4494,-6.4604,-6.5228,-6.4567,-6.4751,-6.5301,-6.5301,-6.4861,-6.431,-6.431,-6.3833,-6.3319,-6.3319,-6.3429,-6.3686,-6.4383,-6.4677,-6.5007,-6.5815,-6.6512,-6.6953,-6.6953,-6.7577,-6.8091,-6.7944,-6.8568,-6.9119,-6.9119,-6.9669,-6.9669,-6.8348,-6.8164,-6.8164,-6.8164,-6.8164,-6.8164,-6.8164,-6.8046,-6.7844,-6.7433,-6.7781,-6.8024,-6.8024,-6.8573,-6.8837,-6.8713,-6.8713,-6.8651,-6.8526,-6.8526,-6.8526,-6.8526,-6.8192,-6.8067,-6.8034,-6.7658,-6.7235,-4.4765,-4.5816,-4.6445,-4.6404,-4.7326,-4.8182,0.0,-4.9547,-5.1005,-5.108,-5.2811,-5.4236,-5.3896,-5.5867,-5.7262,-5.6494,-5.7519,-5.8454,-5.8483,-5.9165,-5.9785,-6.0227,-5.9931,-5.9908,-6.0356,-6.0422,-6.0422,-6.0422,-6.0084,-5.9984,-6.0313,-5.9984,-5.997,-6.0321,-6.0322,-6.0687,-6.1447,-6.1484,-6.1887,-6.2658,-6.2585,-6.2989,-6.3796,-6.2952,-6.3062,-6.3906,-6.3135,-6.289,-6.3074,-6.2989,-6.3796,-6.5044,-6.5044,-6.5999,-6.7136,-6.4897,-6.4604,-6.5301,-6.5191,-6.5228,-6.5301,-6.5301,-6.5264,-6.5191,-6.5191,-6.5118,-6.5044,-6.5044,-6.5521,-6.6109,-6.6219,-6.6769,-6.7504,-6.8311,-6.8568,-6.8641,-6.8641,-6.9265,-6.9633,-6.8898,-6.9412,-6.9963,-6.9963,-7.0036,-7.0036,-6.9853,-6.9816,-6.9816,-6.9816,-6.9816,-6.9816,-6.9816,-6.9412,-6.8965,-6.8559,-6.8656,-6.879,-6.879,-6.8862,-6.8651,-6.8115,-6.8082,-6.7819,-6.7236,-6.7236,-6.7236,-6.7236,-6.7869,-6.8185,-6.8185,-6.8815,-6.8359,-4.5382,-4.6474,-4.7381,-4.7421,-4.845,-4.9651,-5.0331,-5.1636,-5.2902,-5.3678,-5.5006,-5.604,-5.5885,-5.7012,-5.785,-5.7614,-5.8497,-5.9176,-5.8957,-5.9412,-5.9874,-6.0053,-5.9906,-5.9953,-6.0342,-6.0422,-6.0422,-6.0422,-6.0675,-6.0722,-6.0409,-6.0736,-6.0974,-6.1093,-6.1111,-6.1484,-6.2291,-6.2291,-6.2732,-6.3539,-6.3062,-6.3282,-6.4053,-6.3209,-6.3539,-6.4824,-6.5411,-6.5632,-6.5632,-6.5632,-6.6072,-6.6696,-6.6696,-6.71,-6.7577,-6.6549,-6.6402,-6.6696,-6.6696,-6.6696,-6.6696,-6.6696,-6.6366,-6.5999,-6.5999,-6.5668,-6.5301,-6.5301,-6.5558,-6.5815,-6.5815,-6.6402,-6.71,-6.743,-6.8238,-6.8898,-6.8898,-6.9522,-7.0,-6.9669,-7.0257,-7.0807,-7.0807,-7.1211,-7.1505,-7.1505,-7.0697,-7.011,-7.011,-7.011,-6.9961,-6.9639,-6.8791,-6.8216,-6.8183,-6.8344,-6.8459,-6.8459,-6.8955,-6.9102,-6.8823,-6.8823,-6.8681,-6.8392,-6.8392,-6.8392,-6.8392,-6.8708,-6.8884,-6.8919,-6.9235,-6.9024,-4.6185,-4.7219,-4.8229,-4.8555,-4.9914,-5.1391,-5.223,-5.3469,-5.4669,-5.551,-5.6461,-5.7152,-5.7114,-5.7788,-5.8368,-5.8386,-5.916,-5.9622,-5.9397,-5.952,-5.9656,-5.9793,-5.9809,-5.9982,-6.0531,-6.048,-6.0499,-6.0714,-6.1088,-6.1186,-6.0923,-6.1404,-6.1676,-6.1774,-6.1887,-6.2328,-6.3172,-6.3172,-6.3576,-6.442,-6.3796,-6.3943,-6.4751,-6.4347,-6.4824,-6.6035,-6.7173,-6.7687,-6.7687,-6.7687,-6.7687,-6.7687,-6.7687,-6.7687,-6.7687,-6.7687,-6.7687,-6.7687,-6.7687,-6.7687,-6.7687,-6.7687,-6.7283,-6.6843,-6.6843,-6.6402,-6.5962,-6.5962,-6.6145,-6.6292,-6.6292,-6.688,-6.754,-6.776,-6.8715,-6.9633,-6.9853,-7.0367,-7.077,-7.077,-7.1248,-7.1651,-7.1651,-7.1948,-7.2197,-7.2197,-7.1026,-7.0237,-7.0412,-7.0296,-6.9963,-6.9503,-6.8661,-6.8151,-6.8221,-6.8398,-6.8533,-6.8533,-6.906,-6.9412,-6.9412,-6.9412,-6.9412,-6.9412,-6.9412,-6.9412,-6.9412,-6.9412,-6.9412,-6.9412,-6.9412,-6.9412,-4.7409,-4.8436,-4.9366,-4.9909,-5.1932,-5.3644,-5.3099,-5.4963,-5.6631,-5.601,-5.6905,-5.764,-5.7191,-5.8293,-5.9121,-5.8756,-5.914,-5.9571,-5.9777,-5.9467,-5.9361,-5.9739,-5.9809,-6.0113,-6.0887,-6.0616,-6.0714,-6.1516,-6.0867,-6.096,-6.2184,-6.1847,-6.1761,-6.2175,-6.2548,-6.3172,-6.4053,-6.4053,-6.4457,-6.5264,-6.5264,-6.5668,-6.6439,-6.721,-6.7577,-6.7614,-6.7677,-6.7687,-6.7687,-6.7687,-6.7687,-6.7687,-6.7687,-6.7687,-6.7687,-6.7687,-6.7687,-6.7687,-6.7687,-6.7687,-6.7687,-6.7687,-6.7677,-6.765,-6.765,-6.7677,-6.7614,-6.7614,-6.8201,-6.8788,-6.8788,-6.9376,-7.0183,-7.0991,-7.1183,-7.1468,-7.2239,-7.2422,-7.2422,-7.2422,-7.2459,-7.2459,-7.2459,-7.1891,-7.1422,-7.1422,-7.0767,-7.0532,-7.1286,-7.0767,-7.016,-6.9814,-6.9743,-6.9636,-6.9379,-6.9377,-6.9377,-6.9377,-6.9412,-6.9412,-6.9412,-6.9412,-6.9412,-6.9412,-6.9412,-6.9412,-6.9412,-6.9412,-6.9412,-6.9412,-6.9412,-6.9412,-4.8493,-4.9674,-5.0896,-5.2004,-5.303,-5.4107,-5.5432,-5.6224,-5.6863,-5.7396,-5.7841,-5.809,-5.7935,-5.8462,-5.8835,-5.8733,-5.9046,-5.9343,-5.9397,-5.952,-5.9866,-6.0513,-6.0852,-6.1317,-6.2193,-6.1611,-6.1429,-6.2037,-6.2298,-6.2391,-6.2242,-6.2636,-6.2798,-6.2609,-6.3284,-6.3796,-6.409,-6.464,-6.5301,-6.6109,-6.6623,-6.7026,-6.7283,-6.7577,-6.7687,-6.7687,-6.7687,-6.7981,-6.8495,-6.8495,-6.8825,-6.9265,-6.9265,-6.9265,-6.9265,-6.9265,-6.9265,-6.9119,-6.8054,-6.7687,-6.7687,-6.7687,-6.7687,-6.7687,-6.7687,-6.7687,-6.7797,-6.8348,-6.8678,-6.9009,-6.9559,-7.0293,-7.0954,-7.1248,-7.1725,-7.2165,-7.2459,-7.2496,-7.2496,-7.2496,-7.2108,-7.1769,-7.1769,-7.1163,-7.0503,-6.9989,-7.0128,-7.0402,-7.0637,-7.0024,-6.9636,-6.9778,-6.938,-6.9157,-6.9376,-6.9412,-6.9412,-6.9412,-6.9412,-6.9412,-6.9412,-6.9412,-6.9412,-6.9412,-6.9412,-6.9412,-6.9412,-6.9412,-6.9412,-6.9412,-6.9412,-6.9412,-4.9658,-5.0824,-5.2014,-5.3185,-5.4135,-5.5116,-5.6581,-5.7081,-5.7381,-5.7986,-5.8119,-5.8074,-5.7923,-5.8157,-5.8381,-5.8429,-5.8753,-5.9084,-5.9305,-5.9694,-6.0248,-6.093,-6.137,-6.1967,-6.2802,-6.2385,-6.226,-6.2673,-6.2898,-6.2908,-6.2673,-6.3049,-6.3258,-6.3246,-6.3796,-6.4383,-6.4934,-6.5485,-6.6145,-6.6953,-6.743,-6.7687,-6.7687,-6.7687,-6.7834,-6.8128,-6.8128,-6.8605,-6.9339,-6.9339,-6.9633,-7.011,-7.011,-7.011,-7.011,-7.011,-7.011,-6.9926,-6.8898,-6.8531,-6.8531,-6.8531,-6.8531,-6.8531,-6.8531,-6.8531,-6.8678,-6.9192,-6.9559,-6.9889,-7.0403,-7.1138,-7.1725,-7.1725,-7.2129,-7.2496,-7.2496,-7.2496,-7.2422,-7.2129,-7.1669,-7.1229,-7.0656,-6.9747,-6.8894,-6.8134,-6.8429,-6.8929,-6.9457,-6.9163,-6.9013,-6.9345,-6.9083,-6.9005,-6.9376,-6.9412,-6.9412,-6.9412,-6.9412,-6.9412,-6.9412,-6.9412,-6.9412,-6.9412,-6.9412,-6.9412,-6.9412,-6.9412,-6.9412,-6.9412,-6.9656,-6.9762,-5.0923,-5.1937,-5.277,-5.3626,-5.5216,-5.6603,-5.6662,-5.75,-5.8164,-5.7821,-5.7786,-5.7631,-5.7264,-5.7534,-5.789,-5.8031,-5.836,-5.889,-5.9537,-6.0002,-6.0473,-6.0997,-6.1487,-6.2069,-6.2897,-6.295,-6.3087,-6.3457,-6.2711,-6.2628,-6.3431,-6.3075,-6.3246,-6.4053,-6.4163,-6.4934,-6.6476,-6.6549,-6.6953,-6.7687,-6.7687,-6.7687,-6.7687,-6.7724,-6.8164,-6.8898,-6.8935,-6.9412,-7.0146,-7.0146,-7.0183,-7.022,-7.022,-7.022,-7.022,-7.022,-7.022,-7.022,-7.022,-7.0183,-7.011,-7.011,-7.011,-7.011,-7.011,-7.011,-7.011,-7.0146,-7.0697,-7.1293,-7.1293,-7.1872,-7.2422,-7.2386,-7.2386,-7.2386,-7.2386,-7.2386,-7.2165,-7.1338,-7.1134,-7.061,-6.9176,-6.7817,-6.67,-6.6028,-6.5876,-6.6393,-6.7807,-6.8176,-6.837,-6.8635,-6.886,-6.9155,-6.9376,-6.9412,-6.9412,-6.9412,-6.9412,-6.9412,-6.9412,-6.9412,-6.9412,-6.9412,-6.9412,-6.9448,-6.9483,-6.9483,-6.9483,-6.9516,-7.0253,-7.0569,-5.19,-5.277,-5.3782,-5.5468,-5.6017,-5.6382,-5.7288,-5.7485,-5.7461,-5.7363,-5.7338,-5.7313,-5.7213,-5.7713,-5.8186,-5.8516,-5.8872,-5.9309,-6.0078,-6.0285,-6.0752,-6.1844,-6.2343,-6.2932,-6.3721,-6.3547,-6.3376,-6.3504,-6.3289,-6.3109,-6.299,-6.3468,-6.387,-6.409,-6.5264,-6.6072,-6.6512,-6.71,-6.7504,-6.7687,-6.7687,-6.7687,-6.7724,-6.8311,-6.8715,-6.8935,-6.9522,-7.0257,-7.0991,-7.0991,-7.1358,-7.1908,-7.1908,-7.1908,-7.1908,-7.1908,-7.1908,-7.1908,-7.1908,-7.1101,-7.011,-7.011,-7.011,-7.011,-7.011,-7.011,-7.022,-7.0844,-7.1138,-7.1293,-7.1293,-7.1439,-7.1468,-7.0844,-7.0697,-7.0697,-7.0697,-7.0697,-7.0511,-6.9791,-6.879,-6.7794,-6.6881,-6.6408,-6.6142,-6.5914,-6.5876,-6.6014,-6.6393,-6.6581,-6.7017,-6.78,-6.8092,-6.8523,-6.934,-6.9412,-6.9412,-6.9412,-6.9412,-6.9412,-6.9412,-6.9412,-6.9412,-6.9412,-6.9412,-6.9656,-7.0218,-7.0218,-7.0534,-7.1131,-7.1307,-7.1412,-5.2806,-5.3856,-5.4955,-5.6066,-5.6418,-5.672,-5.7377,-5.7363,-5.7188,-5.7188,-5.7188,-5.7188,-5.7188,-5.7642,-5.8135,-5.8408,-5.857,-5.9069,-6.017,-6.0484,-6.111,-6.2417,-6.2907,-6.336,-6.3808,-6.3468,-6.3205,-6.3205,-6.3205,-6.3234,-6.3381,-6.3833,-6.442,-6.5118,-6.6035,-6.6659,-6.7026,-6.7467,-6.7687,-6.7687,-6.7687,-6.7687,-6.7724,-6.8531,-6.9082,-6.9486,-7.0293,-7.1101,-7.1835,-7.1835,-7.2092,-7.2496,-7.2496,-7.2496,-7.2496,-7.2496,-7.2496,-7.2496,-7.2496,-7.1908,-7.1138,-7.1138,-7.1138,-7.1138,-7.1138,-7.1138,-7.1248,-7.1725,-7.1578,-7.1293,-7.1293,-7.1064,-7.066,-7.022,-7.011,-7.011,-7.011,-6.9876,-6.9354,-6.8285,-6.6932,-6.5829,-6.5398,-6.5066,-6.4876,-6.4876,-6.4876,-6.4913,-6.4988,-6.5763,-6.6468,-6.7069,-6.7363,-6.7861,-6.8814,-6.8849,-6.9024,-6.9412,-6.9412,-6.9412,-6.9412,-6.9691,-6.9867,-6.9867,-7.0218,-7.0604,-7.1026,-7.1026,-7.1271,-7.1728,-7.2044,-7.2184,-5.3748,-5.4979,-5.6029,-5.6138,-5.6681,-5.7188,-5.7188,-5.7188,-5.7188,-5.7188,-5.7188,-5.7188,-5.7188,-5.7486,-5.7821,-5.7986,-5.806,-5.8556,-5.9936,-6.0587,-6.1357,-6.2579,-6.3125,-6.34,-6.34,-6.3038,-6.278,-6.278,-6.2915,-6.3319,-6.4053,-6.431,-6.5118,-6.6623,-6.6659,-6.699,-6.7687,-6.7687,-6.7687,-6.7687,-6.7687,-6.7687,-6.7724,-6.8641,-6.9449,-7.0146,-7.1064,-7.1872,-7.2496,-7.2496,-7.2496,-7.2496,-7.2496,-7.2496,-7.2496,-7.2496,-7.2496,-7.2496,-7.2496,-7.2496,-7.2496,-7.2496,-7.2496,-7.2496,-7.2496,-7.2496,-7.2496,-7.2496,-7.1945,-7.1256,-7.1146,-7.055,-6.9926,-6.9816,-6.9779,-6.9752,-6.9659,-6.9077,-6.8089,-6.6767,-6.5398,-6.4463,-6.4463,-6.4003,-6.36,-6.36,-6.3637,-6.371,-6.3891,-6.5218,-6.6234,-6.6375,-6.6668,-6.7234,-6.8147,-6.8217,-6.8533,-6.934,-6.9481,-6.9516,-6.9516,-7.0253,-7.0675,-7.0675,-7.1342,-7.1763,-7.1868,-7.1868,-7.1903,-7.2044,-7.2676,-7.2957,-5.5196,-5.5776,-5.6138,-5.6826,-5.708,-5.7188,-5.7188,-5.7188,-5.7188,-5.7188,-5.7188,-5.7188,-5.7188,-5.7338,-5.7618,-5.8076,-5.8267,-5.8677,-5.9706,-6.0518,-6.1182,-6.1758,-6.2487,-6.2929,-6.2929,-6.2855,-6.278,-6.278,-6.3466,-6.3943,-6.409,-6.5338,-6.6512,-6.7467,-6.7467,-6.754,-6.7687,-6.7687,-6.7687,-6.7687,-6.7687,-6.7687,-6.7724,-6.9229,-6.9963,-7.0183,-7.1651,-7.2386,-7.2496,-7.2496,-7.2496,-7.2496,-7.2496,-7.2496,-7.2496,-7.2496,-7.2496,-7.2496,-7.2496,-7.2496,-7.2496,-7.2496,-7.2496,-7.2496,-7.2496,-7.2496,-7.2496,-7.2496,-7.1945,-7.1174,-7.0477,-6.9706,-6.8935,-6.8274,-6.8091,-6.7982,-6.7404,-6.6276,-6.5327,-6.5051,-6.4322,-6.3785,-6.3785,-6.3675,-6.36,-6.36,-6.3747,-6.3891,-6.3891,-6.4316,-6.4913,-6.565,-6.5934,-6.6672,-6.8076,-6.8217,-6.8533,-6.934,-6.9972,-7.0323,-7.0323,-7.1061,-7.1517,-7.1517,-7.1622,-7.2009,-7.2606,-7.2606,-7.2957,-7.3589,-7.3729,-7.3799,-5.5667,-5.6319,-5.6717,-5.708,-5.7188,-5.7188,-5.7188,-5.6862,-5.6573,-5.6573,-5.6283,-5.6102,-5.65,-5.6794,-5.7238,-5.7958,-5.8201,-5.8643,-5.9573,-6.0256,-6.09,-6.1508,-6.2328,-6.278,-6.278,-6.278,-6.278,-6.278,-6.4016,-6.4714,-6.4714,-6.6256,-6.7283,-6.7687,-6.7687,-6.7687,-6.7687,-6.7687,-6.7687,-6.7687,-6.7687,-6.7687,-6.7724,-6.9376,-7.011,-7.0183,-7.1798,-7.2496,-7.2496,-7.2496,-7.2496,-7.2496,-7.2496,-7.2496,-7.2496,-7.2496,-7.2496,-7.2496,-7.2496,-7.2496,-7.2496,-7.2496,-7.2496,-7.2496,-7.2496,-7.2496,-7.2496,-7.2496,-7.1615,-7.0587,-7.0183,-6.9192,-6.8164,-6.7797,-6.7433,-6.6881,-6.5815,-6.5108,-6.4497,-6.4147,-6.3821,-6.36,-6.36,-6.3673,-6.3747,-6.3747,-6.3929,-6.4073,-6.4145,-6.4635,-6.4916,-6.4987,-6.5514,-6.6356,-6.748,-6.8357,-6.913,-6.9902,-7.071,-7.1131,-7.1131,-7.1868,-7.229,-7.229,-7.2676,-7.3062,-7.3413,-7.3413,-7.3624,-7.401,-7.401,-7.401,-5.5993,-5.6717,-5.7188,-5.7188,-5.7188,-5.7152,-5.6971,-5.6428,-5.5957,-5.5812,-5.5305,-5.5124,-5.5848,-5.6284,-5.6822,-5.7717,-5.8029,-5.8363,-5.9109,-5.9923,-6.0639,-6.1263,-6.2218,-6.278,-6.278,-6.278,-6.278,-6.278,-6.4347,-6.5448,-6.5815,-6.699,-6.7687,-6.7687,-6.7687,-6.7687,-6.7687,-6.7687,-6.7687,-6.7687,-6.7687,-6.7687,-6.7724,-6.9192,-6.9926,-7.0183,-7.1615,-7.2349,-7.2496,-7.2496,-7.2496,-7.2496,-7.2496,-7.2496,-7.2496,-7.2496,-7.2496,-7.2496,-7.2496,-7.2386,-7.2239,-7.2239,-7.2349,-7.2496,-7.2496,-7.2386,-7.2239,-7.2239,-7.1101,-6.9853,-6.9853,-6.8669,-6.7433,-6.7286,-6.6736,-6.5945,-6.4839,-6.4463,-6.4218,-6.3675,-6.36,-6.36,-6.3673,-6.3783,-6.3927,-6.3963,-6.4248,-6.4531,-6.4673,-6.5512,-6.5933,-6.5303,-6.5935,-6.6742,-6.769,-6.8919,-6.9937,-7.071,-7.1517,-7.1938,-7.1938,-7.2676,-7.3062,-7.3062,-7.3694,-7.401,-7.401,-7.401,-7.401,-7.401,-7.417,-7.4248,-5.6681,-5.7152,-5.7188,-5.7188,-5.7188,-5.7007,-5.6283,-5.6029,-5.5812,-5.516,-5.4943,-5.5124,-5.5848,-5.614,-5.6491,-5.7316,-5.7655,-5.7857,-5.7954,-5.9381,-6.0419,-6.0493,-6.1887,-6.278,-6.278,-6.278,-6.278,-6.278,-6.4347,-6.5925,-6.7393,-6.7614,-6.7687,-6.7687,-6.7687,-6.7687,-6.7687,-6.7687,-6.7687,-6.7687,-6.7687,-6.7687,-6.7724,-6.8605,-6.9412,-7.0146,-7.1027,-7.1835,-7.2496,-7.2496,-7.2496,-7.2496,-7.2496,-7.2496,-7.2496,-7.2496,-7.2496,-7.2496,-7.2496,-7.2018,-7.1403,-7.1403,-7.1908,-7.2496,-7.2496,-7.1982,-7.1403,-7.1403,-7.0257,-6.9009,-6.9009,-6.7923,-6.6648,-6.5971,-6.5303,-6.4772,-6.4635,-6.4111,-6.3675,-6.3637,-6.36,-6.3673,-6.382,-6.3891,-6.3963,-6.4144,-6.4915,-6.5512,-6.5477,-6.695,-6.7935,-6.7865,-6.79,-6.8603,-7.0043,-7.0323,-7.0745,-7.1552,-7.229,-7.2711,-7.2711,-7.3483,-7.3905,-7.3905,-7.3975,-7.401,-7.401,-7.401,-7.401,-7.401,-7.4673,-7.4972,-5.6174,-5.6826,-5.7188,-5.7188,-5.6826,-5.6391,-5.6066,-5.5269,-5.4653,-5.487,-5.4508,-5.4423,-5.5257,-5.5837,-5.6297,-5.6625,-5.7315,-5.7786,-5.7679,-5.8809,-5.9869,-6.0346,-6.1374,-6.2291,-6.2743,-6.278,-6.322,-6.4237,-6.4934,-6.5999,-6.7614,-6.7687,-6.7687,-6.7687,-6.7687,-6.7687,-6.7687,-6.7687,-6.7687,-6.7687,-6.7687,-6.7687,-6.7724,-6.9009,-6.9816,-7.0183,-7.1468,-7.2202,-7.2496,-7.2496,-7.2496,-7.2496,-7.2496,-7.2496,-7.2459,-7.1982,-7.1798,-7.1725,-7.1211,-7.058,-6.9996,-6.9996,-6.9909,-7.0009,-7.0828,-7.0281,-6.9477,-6.9841,-6.8862,-6.7656,-6.7656,-6.6829,-6.5878,-6.5171,-6.477,-6.4497,-6.4111,-6.3785,-6.3637,-6.3747,-6.3783,-6.382,-6.4072,-6.4144,-6.4391,-6.4986,-6.5478,-6.5934,-6.639,-6.79,-6.9095,-6.9551,-6.9586,-6.9832,-7.0464,-7.1342,-7.2009,-7.236,-7.3097,-7.3518,-7.3518,-7.3834,-7.401,-7.401,-7.401,-7.401,-7.401,-7.401,-7.4248,-7.4673,-7.4935,-7.5299,-5.545,-5.6102,-5.65,-5.65,-5.6102,-5.5595,-5.5377,-5.4472,-5.3856,-5.4436,-5.4134,-5.4023,-5.4856,-5.5715,-5.6308,-5.6273,-5.7144,-5.7834,-5.7655,-5.8553,-5.9478,-6.0309,-6.1117,-6.1924,-6.2707,-6.278,-6.3503,-6.5191,-6.5301,-6.5999,-6.7614,-6.7687,-6.7687,-6.7687,-6.7687,-6.7687,-6.7687,-6.7687,-6.7687,-6.7687,-6.7687,-6.7797,-6.8091,-6.9229,-7.0,-7.0513,-7.1651,-7.2275,-7.2496,-7.2496,-7.2496,-7.2496,-7.2496,-7.2496,-7.2422,-7.1615,-7.117,-7.088,-7.0075,-6.9193,-6.8425,-6.8425,-6.7805,-6.727,-6.8433,-6.8275,-6.7823,-6.83,-6.7469,-6.6414,-6.6218,-6.5726,-6.5138,-6.4463,-6.4323,-6.4147,-6.3675,-6.3637,-6.371,-6.3891,-6.3963,-6.4037,-6.4251,-6.4533,-6.4988,-6.5583,-6.6215,-6.6848,-6.762,-6.9095,-7.0359,-7.1096,-7.1377,-7.1552,-7.1552,-7.2535,-7.3167,-7.3167,-7.3694,-7.401,-7.401,-7.401,-7.401,-7.401,-7.401,-7.4092,-7.4364,-7.4364,-7.4711,-7.5406,-7.5618,-7.6063,-5.4689,-5.4943,-5.4943,-5.4943,-5.4943,-5.4689,-5.3892,-5.3711,-5.3711,-5.3711,-5.3806,-5.4117,-5.488,-5.5856,-5.6543,-5.6416,-5.7321,-5.795,-5.7834,-5.86,-5.9478,-6.0309,-6.1117,-6.1924,-6.2707,-6.278,-6.3503,-6.5191,-6.5301,-6.5999,-6.7614,-6.7687,-6.7687,-6.7687,-6.7687,-6.7687,-6.7687,-6.7687,-6.7687,-6.7687,-6.7687,-6.8128,-6.8898,-6.8898,-6.9779,-7.1293,-7.1293,-7.1762,-7.2496,-7.2496,-7.2496,-7.2496,-7.2496,-7.2496,-7.2422,-7.1615,-7.0873,-7.021,-6.9382,-6.8089,-6.6835,-6.6835,-6.5809,-6.4772,-6.5433,-6.6193,-6.6835,-6.6835,-6.6232,-6.5465,-6.4806,-6.4601,-6.4428,-6.3785,-6.36,-6.36,-6.36,-6.3747,-6.3927,-6.3927,-6.4072,-6.4251,-6.4358,-6.5057,-6.5653,-6.59,-6.7199,-6.8463,-6.927,-7.071,-7.1974,-7.2711,-7.3483,-7.3975,-7.3975,-7.3975,-7.3975,-7.3975,-7.401,-7.401,-7.401,-7.401,-7.401,-7.401,-7.401,-7.4329,-7.5082,-7.5082,-7.5442,-7.613,-7.6815,-7.7563,-5.4001,-5.4472,-5.4907,-5.4907,-5.4508,-5.4001,-5.3748,-5.3711,-5.388,-5.4459,-5.4615,-5.4782,-5.5222,-5.6008,-5.6397,-5.5825,-5.7024,-5.795,-5.7834,-5.86,-5.9478,-6.0309,-6.1594,-6.2768,-6.3613,-6.3686,-6.4347,-6.5999,-6.6109,-6.6586,-6.7614,-6.7687,-6.7687,-6.7687,-6.7687,-6.7687,-6.7687,-6.7687,-6.7687,-6.7714,-6.8238,-6.8641,-6.8935,-7.0036,-7.0844,-7.1329,-7.1872,-7.2275,-7.2496,-7.2496,-7.2496,-7.2496,-7.2496,-7.1897,-7.092,-7.0089,-6.9007,-6.7765,-6.6976,-6.6099,-6.5293,-6.5293,-6.4673,-6.3967,-6.4147,-6.4427,-6.4602,-6.4602,-6.4462,-6.4182,-6.3967,-6.3895,-6.3858,-6.3639,-6.36,-6.3637,-6.3783,-6.3891,-6.3965,-6.4181,-6.4287,-6.4568,-6.5303,-6.5654,-6.618,-6.7304,-6.8357,-6.927,-7.0043,-7.1482,-7.2535,-7.2781,-7.3518,-7.401,-7.401,-7.401,-7.401,-7.401,-7.401,-7.401,-7.401,-7.401,-7.401,-7.401,-7.452,-7.4897,-7.5082,-7.5583,-7.6164,-7.6846,-7.7592,-7.8071,-5.3241,-5.382,-5.4363,-5.4074,-5.3639,-5.3264,-5.3274,-5.3274,-5.3515,-5.4431,-5.4646,-5.4775,-5.4934,-5.5894,-5.6415,-5.5609,-5.6887,-5.8084,-5.8283,-5.8807,-5.9698,-6.1153,-6.2218,-6.3282,-6.442,-6.453,-6.5081,-6.6402,-6.6512,-6.6843,-6.765,-6.7393,-6.7247,-6.7247,-6.754,-6.7687,-6.7687,-6.7687,-6.7834,-6.8164,-6.8678,-6.9229,-6.9853,-7.0816,-7.1439,-7.1798,-7.2275,-7.2496,0.0,-7.2496,-7.2351,-7.2071,-7.1808,-7.0944,-6.9769,-6.862,-6.7458,-6.6335,-6.5485,-6.477,-6.4218,-6.4218,-6.3931,-6.36,-6.36,-6.36,-6.36,-6.36,-6.36,-6.36,-6.36,-6.36,-6.36,-6.36,-6.36,-6.3673,-6.3891,-6.3963,-6.4177,-6.4742,-6.4918,-6.5233,-6.6181,-6.6567,-6.7199,-6.8463,-6.9305,-7.0183,-7.1236,-7.2219,-7.2922,-7.3202,-7.3694,-7.401,-7.401,-7.401,-7.401,-7.401,-7.401,-7.401,-7.401,-7.401,-7.4132,-7.4405,-7.4897,-7.5335,-7.5895,-7.6591,-7.7163,-7.7659,-7.8071,-7.8276,0.0,-5.3096,-5.3494,-5.2697,-5.248,-5.2503,-5.2604,-5.2627,0.0,-5.3818,-5.4135,-5.4224,-5.4298,-5.5632,-5.6492,-5.5794,-5.7042,-5.8364,-5.9074,-5.9331,-6.0285,-6.2622,-6.2927,-6.3613,-6.5228,-6.5411,-6.5742,-6.6512,-6.6586,-6.688,-6.7577,-6.6916,-6.6512,-6.6512,-6.721,-6.7614,-6.7614,-6.765,-6.8091,-6.8898,-6.9009,-6.9853,-7.1293,-7.1329,-7.1798,-7.2496,-7.2496,-7.2496,-7.2496,-7.2365,-7.1938,-7.1241,-7.0444,-6.9673,-6.8768,-6.7273,-6.6272,-6.5549,-6.4777,-6.4111,-6.36,-6.36,-6.36,-6.36,-6.36,-6.36,-6.36,-6.36,-6.36,-6.36,-6.3669,-6.3669,-6.3669,-6.3738,-6.3775,-6.3846,-6.4029,-6.4247,-6.4635,-6.5547,-6.5864,-6.6216,-6.6953,-6.7725,-6.8498,-6.934,-7.0113,-7.1131,-7.2606,-7.2851,-7.3167,-7.394,-7.401,-7.401,-7.401,-7.401,-7.401,-7.401,-7.401,-7.401,-7.401,-7.4049,-7.4405,-7.5082,-7.5191,-7.5929,-7.7255,-7.7986,-7.8276,-7.8276,-7.8276,-7.8276,-5.248,0.0,-5.3494,-5.2697,-5.248,-5.248,0.0,-5.303,-5.3617,-5.3913,-5.4099,-5.443,-5.5163,-5.5588,-5.6014,-5.6455,-5.7886,-5.8964,-5.9148,-6.0762,-6.2438,-6.3649,-6.4347,-6.5118,-6.6109,-6.6219,-6.6549,-6.7357,-6.7393,-6.721,-6.6806,-6.6586,-6.6512,-6.6512,-6.6659,-6.6769,-6.6769,-6.7393,-6.8091,-6.8935,-7.0146,-7.0954,-7.1293,-7.1945,-7.2312,-7.2496,-7.2496,-7.2496,-7.243,-7.1295,-7.0701,-7.0444,-6.911,-6.781,-6.6565,-6.6142,-6.5233,-6.41,-6.3927,-6.3712,-6.36,-6.36,-6.36,-6.36,-6.36,-6.36,-6.36,-6.36,-6.36,-6.3738,-6.4289,-6.4427,-6.46,-6.5186,-6.5475,-6.5625,-6.5845,-6.6028,-6.6281,-6.66,-6.6707,-6.6988,-6.7796,-6.8076,-6.8673,-7.0043,-7.092,-7.1763,-7.2676,-7.3343,-7.3799,-7.3975,-7.401,-7.401,-7.401,-7.401,-7.401,-7.401,-7.401,-7.401,-7.401,-7.4558,-7.4898,-7.5082,-7.613,-7.7133,-7.8043,-7.8221,-7.8276,-7.8276,-7.8276,-7.8276,-5.248,-5.3096,-5.3494,-5.2697,-5.248,-5.2503,-5.2618,-5.2976,-5.3417,-5.3595,-5.3954,-5.4459,-5.495,-5.5647,-5.6418,-5.7226,-5.8377,-5.9441,-6.0199,-6.1716,-6.3282,-6.4494,-6.5044,-6.5778,-6.6953,-6.7026,-6.721,-6.765,-6.7687,-6.7504,-6.7063,-6.6696,-6.6512,-6.6512,-6.6145,-6.6292,-6.7026,-6.7467,-6.8091,-6.8898,-6.9779,-7.0403,-7.0742,-7.1253,-7.1434,-7.147,-7.1495,-7.1298,-7.0936,-7.0121,-6.9372,-6.8651,-6.75,-6.6355,-6.5262,-6.4913,-6.4313,-6.36,-6.36,-6.36,-6.36,-6.36,-6.36,-6.36,-6.36,-6.3841,-6.4083,-6.4083,-6.4083,-6.4289,-6.5048,-6.5255,-6.5359,-6.5773,-6.6066,-6.6254,-6.6475,-6.6659,-6.6983,-6.7479,-6.755,-6.7831,-6.8603,-6.9024,-6.9656,-7.0885,-7.1728,-7.25,-7.3238,-7.3729,-7.401,-7.401,-7.401,-7.401,-7.401,-7.4325,-7.4329,-7.4049,-7.401,-7.4132,-7.4482,-7.4897,-7.5406,-7.6029,-7.7133,-7.7891,-7.8276,-7.8276,-7.8276,-7.8276,-7.8276,-7.8276,-5.248,-5.2987,-5.3349,-5.2661,-5.2503,-5.2572,-5.2717,-5.2915,-5.3054,-5.3286,-5.4011,-5.462,-5.473,-5.5978,-5.7262,-5.8033,-5.8951,-6.0089,-6.1557,-6.2585,-6.3697,-6.5154,-6.5521,-6.6219,-6.7577,-6.7687,-6.7687,-6.7687,-6.7687,-6.7677,-6.7504,-6.688,-6.6512,-6.6512,-6.5852,-6.6129,-6.7542,-6.766,-6.8091,-6.8898,-6.9009,-6.9394,-6.9969,-6.9999,-6.9984,-6.9859,-6.9926,-6.962,-6.9013,-6.877,-6.7936,-6.6743,-6.5794,-6.5086,-6.4462,-6.3841,-6.36,-6.36,-6.36,-6.36,-6.36,-6.36,-6.36,-6.36,-6.36,-6.4117,-6.4738,-6.4841,-6.4876,-6.5048,-6.5842,-6.6048,-6.6121,-6.6225,-6.645,-6.6639,-6.686,-6.7045,-6.7439,-6.8251,-6.8392,-6.8638,-6.9411,-7.0078,-7.0815,-7.1728,-7.2395,-7.3097,-7.3905,-7.401,-7.401,-7.401,-7.4092,-7.417,-7.417,-7.486,-7.4972,-7.4367,-7.4329,-7.4636,-7.5371,-7.5406,-7.6029,-7.7316,-7.7986,-7.8276,-7.8276,-7.8276,-7.8276,-7.8276,-7.8276,-7.8276,-5.248,-5.2589,-5.2661,-5.2516,-5.2536,-5.2568,-5.2613,-5.3316,-5.4019,-5.4041,-5.4774,-5.5611,-5.6308,-5.7189,-5.807,-5.8914,-6.0272,-6.1557,-6.2511,-6.3943,-6.5007,-6.5264,-6.6512,-6.743,-6.7677,-6.7687,-6.7687,-6.7687,-6.7687,-6.7393,-6.6733,-6.6549,-6.6512,-6.6512,-6.6366,-6.6491,-6.6852,-6.7405,-6.8091,-6.8898,-6.9596,-6.9673,-6.9249,-6.9268,-6.8966,-6.8424,-6.8434,-6.8368,-6.8192,-6.6878,-6.618,-6.583,-6.449,-6.3848,-6.3738,-6.3634,-6.36,-6.36,-6.36,-6.36,-6.36,-6.36,-6.36,-6.36,-6.36,-6.4117,-6.4841,-6.5497,-6.5704,-6.5876,-6.6635,-6.6807,-6.7019,-6.7834,-6.8166,-6.8357,-6.8653,-6.884,-6.9023,-6.9165,-6.92,-6.9446,-7.0183,-7.0429,-7.0991,-7.243,-7.2746,-7.3097,-7.3905,-7.401,-7.401,-7.401,-7.4558,-7.4898,-7.4898,-7.5583,-7.5893,-7.579,-7.579,-7.6097,-7.6851,-7.6883,-7.7255,-7.8099,-7.8248,-7.8276,-7.8276,-7.8276,-7.8276,-7.8276,-7.8276,-7.8276,-5.248,-5.248,-5.2503,-5.2536,-5.2604,-5.2722,-5.3226,-5.3799,-5.4334,-5.4862,-5.564,-5.6492,-5.7299,-5.8107,-5.9061,-6.0309,-6.1484,-6.2401,-6.2743,-6.4237,-6.5301,-6.5301,-6.6733,-6.7687,-6.7687,-6.7687,-6.7687,-6.7687,-6.7687,-6.754,-6.7173,-6.7136,-6.7136,-6.7136,-6.6802,-6.664,-6.6707,-6.6612,-6.6763,-6.7125,-6.7487,-6.7517,-6.7209,-6.7221,-6.7107,-6.6806,-6.6884,-6.6672,-6.6215,-6.5472,-6.4945,-6.4526,-6.385,-6.36,-6.36,-6.36,-6.36,-6.36,-6.36,-6.36,-6.36,-6.36,-6.36,-6.3669,-6.4083,-6.4738,-6.5497,-6.6255,-6.6462,-6.6635,-6.7394,-6.7566,-6.7748,-6.8289,-6.8551,-6.8781,-6.904,-6.9264,-6.9412,-6.9412,-6.9727,-7.0113,-7.0429,-7.1201,-7.1974,-7.2676,-7.3167,-7.3589,-7.394,-7.401,-7.4132,-7.4558,-7.4897,-7.5263,-7.5618,-7.6297,-7.6526,-7.613,-7.6894,-7.7505,-7.7855,-7.8632,-7.9253,-7.9576,-7.9168,-7.8945,-7.8945,-7.8499,-7.8276,-7.8276,-7.8276,-7.8276,-5.248,-5.248,-5.2575,-5.2822,-5.2904,-5.3117,-5.3886,-5.4436,-5.506,-5.5955,-5.6785,-5.7629,-5.84,-5.9208,-6.0236,-6.1667,-6.2401,-6.2879,-6.3099,-6.4383,-6.5375,-6.5558,-6.6843,-6.766,-6.7488,-6.746,-6.7405,-6.723,-6.7202,-6.7202,-6.7202,-6.7202,-6.7202,-6.7202,-6.6736,-6.6374,-6.6222,-6.5657,-6.5429,-6.559,-6.559,-6.5494,-6.5368,-6.5403,-6.5374,-6.5197,-6.531,-6.5014,-6.4427,-6.4427,-6.4117,-6.36,-6.36,-6.36,-6.36,-6.36,-6.36,-6.36,-6.36,-6.36,-6.36,-6.36,-6.36,-6.3738,-6.4462,-6.5255,-6.6048,-6.6773,-6.7118,-6.7394,-6.7945,-6.8123,-6.8201,-6.8435,-6.8628,-6.8892,-6.9115,-6.9302,-6.9412,-6.9412,-7.0007,-7.0569,-7.0745,-7.1903,-7.2851,-7.3062,-7.3624,-7.401,-7.401,-7.4132,-7.4482,-7.5045,-7.555,-7.622,-7.7105,-7.7683,-7.7776,-7.7203,-7.8301,-7.8946,-7.8946,-8.0089,-8.0691,-8.0691,-8.0097,-7.9688,-7.9502,-7.8871,-7.8462,-7.8276,-7.8276,-7.8276,-5.248,-5.248,-5.2707,-5.3585,-5.3845,-5.3959,-5.4143,-5.5426,-5.6836,-5.7666,-5.8474,-5.9258,-6.0089,-6.0896,-6.1704,-6.2585,-6.2768,-6.3099,-6.387,-6.4751,-6.5595,-6.6329,-6.7173,-6.746,-6.6823,-6.6765,-6.6464,-6.5779,-6.5748,-6.5748,-6.5748,-6.5748,-6.5748,-6.5748,-6.5685,-6.54,-6.4772,-6.4703,-6.4972,-6.559,-6.559,-6.5267,-6.4669,-6.4705,-6.4323,-6.3742,-6.3775,-6.3738,-6.3669,-6.3669,-6.3634,-6.36,-6.36,-6.36,-6.36,-6.36,-6.36,-6.36,-6.36,-6.36,-6.36,-6.36,-6.36,-6.3738,-6.4462,-6.5255,-6.6048,-6.6773,-6.7497,-6.8014,-6.8083,-6.8241,-6.8435,-6.8628,-6.8892,-6.9115,-6.9339,-6.9376,-6.9412,-6.9412,-7.0007,-7.0745,-7.1482,-7.229,-7.3062,-7.3799,-7.3975,-7.401,-7.401,-7.4598,-7.5045,-7.5082,-7.6917,-7.8781,-8.0258,-8.0419,-8.0419,-8.039,-8.0456,-8.0522,-8.0522,-8.0625,-8.0691,-8.0691,-8.0617,-8.0245,-7.9502,-7.9428,-7.9019,-7.8276,-7.8276,-7.8276,-5.248,-5.2948,-5.3476,-5.3845,-5.5163,-5.6264,-5.5798,-5.6658,-5.7753,-5.8467,-5.9018,-5.9506,-5.9862,-6.0963,-6.1891,-6.2182,-6.2255,-6.251,-6.332,-6.378,-6.4347,-6.5075,-6.5898,-6.6277,-6.6033,-6.6002,-6.5909,-6.5621,-6.559,-6.559,-6.559,-6.559,-6.559,-6.559,-6.5204,-6.4838,-6.4601,-6.3729,-6.345,-6.3694,-6.4114,-6.4218,-6.3967,-6.3967,-6.3858,-6.36,-6.36,-6.36,-6.36,-6.36,-6.36,-6.36,-6.36,-6.36,-6.36,-6.36,-6.36,-6.36,-6.36,-6.36,-6.36,-6.36,-6.36,-6.3807,-6.5048,-6.5635,-6.6152,-6.7325,-6.7876,-6.8123,-6.8241,-6.8358,-6.8474,-6.8854,-6.904,-6.9153,-6.9339,-6.9412,-6.9516,-7.0007,-7.071,-7.1482,-7.2254,-7.3027,-7.3659,-7.394,-7.401,-7.417,-7.4633,-7.4934,-7.5657,-7.702,-7.8756,-8.0089,-8.0654,-8.1174,-8.1508,-8.1508,-8.1508,-8.1508,-8.1508,-8.1991,-8.2251,-8.2251,-8.1731,-8.136,-8.1025,-8.0505,-8.0097,-7.9799,-7.9799,-7.9799,-5.2549,-5.3176,-5.3899,-5.4117,-5.5836,-5.7364,-5.6963,-5.7837,-5.8964,-5.9676,-5.9983,-6.0169,-6.011,-6.0848,-6.1528,-6.1584,-6.1584,-6.1945,-6.2962,-6.3191,-6.3698,-6.4666,-6.5268,-6.5494,-6.53,-6.5267,-6.5204,-6.4972,-6.4972,-6.4972,-6.4972,-6.4972,-6.4972,-6.4972,-6.4321,-6.3939,-6.3939,-6.2749,-6.2117,-6.2117,-6.2634,-6.3013,-6.3255,-6.3496,-6.36,-6.36,-6.36,-6.36,-6.36,-6.36,-6.36,-6.36,-6.36,-6.36,-6.36,-6.36,-6.36,-6.36,-6.36,-6.36,-6.36,-6.36,-6.36,-6.3876,-6.5428,-6.5876,-6.6186,-6.7669,-6.8083,-6.8162,-6.8435,-6.8513,-6.859,-6.9002,-6.9153,-6.9297,-6.9691,-6.9727,-6.9972,-7.0745,-7.1517,-7.2219,-7.2711,-7.3483,-7.401,-7.401,-7.4209,-7.4558,-7.5009,-7.5692,-7.7028,-7.9284,-8.0496,-8.1211,-8.1471,-8.2028,-8.2363,-8.2363,-8.2363,-8.2363,-8.2363,-8.2883,-8.318,-8.318,-8.266,-8.2251,-8.1991,-8.1397,-8.0951,-8.0691,-8.0691,-8.0691,-5.259,-5.3208,-5.3938,-5.4411,-5.5641,-5.6823,-5.7311,-5.8963,-6.0615,-6.1423,-6.1584,-6.1464,-6.0967,-6.0796,-6.0736,-6.0849,-6.0879,-6.145,-6.3061,-6.3275,-6.3846,-6.5411,-6.559,-6.53,-6.4669,-6.4601,-6.4323,-6.3673,-6.36,-6.36,-6.36,-6.36,-6.36,-6.36,-6.2875,-6.2496,-6.2496,-6.1703,-6.1289,-6.1289,-6.1289,-6.1703,-6.2496,-6.3255,-6.36,-6.36,-6.36,-6.36,-6.36,-6.36,-6.36,-6.36,-6.36,-6.36,-6.36,-6.36,-6.36,-6.36,-6.36,-6.36,-6.36,-6.36,-6.36,-6.3876,-6.5428,-6.5876,-6.6186,-6.7669,-6.8083,-6.8201,-6.859,-6.8705,-6.8743,-6.904,-6.9264,-6.9586,-7.0323,-7.0499,-7.0745,-7.1552,-7.229,-7.2781,-7.2816,-7.3483,-7.401,-7.401,-7.4636,-7.5118,-7.5118,-7.709,-7.9345,-8.1747,-8.1991,-8.2326,-8.3106,-8.318,-8.318,-8.318,-8.318,-8.318,-8.318,-8.318,-8.318,-8.318,-8.318,-8.2809,-8.1991,-8.1991,-8.1545,-8.0728,-8.0728,-8.0728,-5.2653,-5.3457,-5.4381,-5.5178,-5.6712,-5.8216,-5.8852,-5.9409,-5.986,-6.0172,-6.0291,-6.0156,-5.9679,-5.9937,-6.0219,-6.0251,-6.0251,-6.0815,-6.2402,-6.2185,-6.2474,-6.4008,-6.4182,-6.4146,-6.3895,-6.393,-6.3821,-6.3637,-6.3452,-6.3452,-6.36,-6.3452,-6.3452,-6.36,-6.2875,-6.2496,-6.2496,-6.1185,-6.053,-6.053,-6.053,-6.122,-6.2496,-6.2703,-6.3082,-6.36,-6.36,-6.36,-6.36,-6.36,-6.36,-6.36,-6.36,-6.36,-6.36,-6.36,-6.36,-6.36,-6.36,-6.36,-6.36,-6.36,-6.36,-6.3876,-6.5428,-6.5876,-6.6186,-6.7669,-6.8083,-6.8201,-6.859,-6.8705,-6.8781,-6.9227,-6.976,-7.0218,-7.0464,-7.0955,-7.1587,-7.2325,-7.2641,-7.2992,-7.3553,-7.4302,-7.4786,-7.4786,-7.5371,-7.6212,-7.7291,-7.9474,-8.1222,-8.1917,-8.2511,-8.292,-8.318,-8.318,-8.318,-8.318,-8.318,-8.318,-8.318,-8.318,-8.318,-8.318,-8.318,-8.3069,-8.2846,-8.2846,-8.2697,-8.2437,-8.2437,-8.2437,-5.2783,-5.3681,-5.4599,-5.5349,-5.6882,-5.836,-5.9143,-5.9729,-6.0017,-5.9829,-5.9776,-5.9615,-5.9115,-5.9318,-5.9549,-5.9582,-5.9615,-6.0138,-6.1707,-6.1571,-6.1875,-6.3427,-6.36,-6.36,-6.36,-6.3526,-6.3489,-6.3489,-6.3302,-6.3227,-6.3377,-6.3302,-6.334,-6.3489,-6.2529,-6.2013,-6.2013,-6.0496,-5.9737,-5.9737,-5.9737,-6.0392,-6.1599,-6.222,-6.2737,-6.3186,-6.3462,-6.36,-6.36,-6.36,-6.36,-6.36,-6.36,-6.36,-6.36,-6.36,-6.36,-6.36,-6.36,-6.36,-6.36,-6.36,-6.3807,-6.4255,-6.5497,-6.6083,-6.6566,-6.7773,-6.8083,-6.8201,-6.859,-6.8705,-6.8819,-6.9302,-6.9972,-7.0604,-7.092,-7.1587,-7.236,-7.3132,-7.3273,-7.353,-7.4296,-7.4823,-7.5191,-7.5442,-7.635,-7.7692,-7.959,-8.1118,-8.2103,-8.2437,-8.2883,-8.318,-8.318,-8.318,-8.318,-8.318,-8.318,-8.318,-8.318,-8.318,-8.318,-8.318,-8.318,-8.318,-8.318,-8.318,-8.318,-8.318,-8.318,-8.318,-5.2918,-5.3792,-5.4496,-5.5215,-5.6532,-5.7846,-5.8634,-5.9806,-6.0585,-6.0001,-5.9744,-5.9515,-5.9081,-5.8909,-5.8875,-5.8978,-5.9012,-5.9564,-6.1082,-6.1253,-6.1839,-6.3393,-6.36,-6.3563,-6.3563,-6.3414,-6.3265,-6.3265,-6.3076,-6.3,-6.3,-6.3189,-6.3265,-6.3302,-6.2008,-6.1289,-6.1289,-5.9771,-5.9012,-5.9012,-5.9012,-5.9426,-6.0254,-6.1703,-6.2461,-6.2634,-6.3289,-6.36,-6.36,-6.36,-6.36,-6.36,-6.36,-6.36,-6.36,-6.36,-6.36,-6.36,-6.3669,-6.3703,-6.3703,-6.3772,-6.4255,-6.4945,-6.5738,-6.6462,-6.7152,-6.7876,-6.8083,-6.8201,-6.859,-6.874,-6.8924,-6.9407,-7.0078,-7.085,-7.1622,-7.2395,-7.3132,-7.3869,-7.4014,-7.429,-7.4972,-7.5227,-7.5548,-7.6306,-7.7756,-7.9516,-8.171,-8.2066,-8.2363,-8.3106,-8.318,-8.318,-8.318,-8.318,-8.318,-8.318,-8.318,-8.318,-8.318,-8.318,-8.318,-8.318,-8.318,-8.318,-8.318,-8.318,-8.318,-8.318,-8.318,-8.318,-5.2187,-5.2916,-5.3723,-5.5724,-5.7458,-5.8734,-5.8909,-5.9182,-5.935,-5.9115,-5.9115,-5.9114,-5.9012,-5.8978,-5.8944,-5.9012,-5.9012,-5.9564,-6.1082,-6.1146,-6.1695,-6.3427,-6.3452,-6.334,-6.334,-6.3302,-6.3227,-6.3076,-6.2885,-6.2847,-6.3,-6.3038,-6.3152,-6.3302,-6.2008,-6.1289,-6.1289,-5.9771,-5.9012,-5.9012,-5.9012,-5.9426,-6.022,-6.1151,-6.222,-6.3358,-6.3531,-6.36,-6.36,-6.36,-6.36,-6.36,-6.36,-6.36,-6.36,-6.36,-6.36,-6.3669,-6.4255,-6.4462,-6.4565,-6.5186,-6.5497,-6.5773,-6.6531,-6.6876,-6.7152,-6.7876,-6.8201,-6.8397,-6.8628,-6.9272,-6.9952,-7.0178,-7.0885,-7.1658,-7.2395,-7.3167,-7.3799,-7.3975,-7.4482,-7.4934,-7.5082,-7.6032,-7.7228,-7.8566,-8.0171,-8.14,-8.1917,-8.2549,-8.2994,-8.318,-8.318,-8.318,-8.318,-8.318,-8.318,-8.318,-8.318,-8.318,-8.318,-8.318,-8.318,-8.318,-8.318,-8.318,-8.318,-8.318,-8.318,-8.318,-8.318,-8.318,-5.1859,-5.2596,-5.3296,-5.5881,-5.7706,-5.8944,-5.8978,-5.9012,-5.8978,-5.8909,-5.8944,-5.9012,-5.9012,-5.9012,-5.9012,-5.9012,-5.9012,-5.9564,-6.1082,-6.1216,-6.1767,-6.3393,-6.3526,-6.3414,-6.3302,-6.3189,-6.3076,-6.2885,-6.2654,-6.2576,-6.2693,-6.2923,-6.3038,-6.3152,-6.2316,-6.1668,-6.1289,-6.0151,-5.9392,-5.9012,-5.9392,-6.0185,-6.1289,-6.1703,-6.2496,-6.36,-6.36,-6.36,-6.36,-6.36,-6.36,-6.36,-6.36,-6.36,-6.36,-6.36,-6.3807,-6.4186,-6.4565,-6.4945,-6.5324,-6.5738,-6.6117,-6.6497,-6.6876,-6.7256,-6.7601,-6.798,-6.8241,-6.8539,-6.9119,-6.9729,-7.0409,-7.1409,-7.1938,-7.2325,-7.2711,-7.3448,-7.4092,-7.4444,-7.486,-7.5299,-7.5998,-7.7338,-7.8684,-7.992,-8.1174,-8.214,-8.2511,-8.292,-8.318,-8.318,-8.318,-8.318,-8.318,-8.318,-8.318,-8.318,-8.318,-8.318,-8.318,-8.318,-8.318,-8.318,-8.318,-8.318,-8.318,-8.318,-8.318,-8.318,-8.318,-8.318,-5.1263,-5.2424,-5.351,-5.5852,-5.7638,-5.8771,-5.8875,-5.8944,-5.8944,-5.8944,-5.8978,-5.9012,-5.9012,-5.9012,-5.9012,-5.9012,-5.9116,-5.9702,-6.1116,-6.1391,-6.1977,-6.3427,-6.3563,-6.3452,-6.3265,-6.3114,-6.2923,-6.2688,-6.2498,-6.2381,-6.2381,-6.277,-6.3,-6.3,-6.2692,-6.2079,-6.1246,-6.0666,-5.9977,-5.9184,-6.015,-6.1254,-6.2496,-6.2634,-6.3013,-6.36,-6.36,-6.36,-6.36,-6.36,-6.36,-6.36,-6.36,-6.3669,-6.3772,-6.3772,-6.4255,-6.491,-6.5048,-6.5531,-6.6083,-6.6221,-6.6669,-6.7187,-6.7187,-6.7601,-6.8083,-6.8123,-6.8384,-6.886,-6.9714,-7.0291,-7.1011,-7.2462,-7.3002,-7.3185,-7.3031,-7.3635,-7.4367,-7.4972,-7.5406,-7.6076,-7.7384,-7.8928,-8.0134,-8.0802,-8.1657,-8.2437,-8.3106,-8.318,-8.318,-8.318,-8.318,-8.318,-8.318,-8.318,-8.318,-8.318,-8.318,-8.318,-8.318,-8.318,-8.318,-8.318,-8.318,-8.318,-8.318,-8.318,-8.318,-8.318,-8.318,-8.318,-4.927,-5.2167,-5.5001,-5.5996,-5.7397,-5.8561,-5.8561,-5.8701,-5.8806,-5.8806,-5.8944,-5.9012,-5.9012,-5.9012,-5.9012,-5.9012,-5.9599,-6.0323,-6.1185,-6.1765,-6.2486,-6.3496,-6.3452,-6.3265,-6.3076,-6.3038,-6.2847,-6.2459,-6.242,-6.2381,-6.2381,-6.277,-6.3,-6.3,-6.2692,-6.2064,-6.1147,-6.1135,-6.0724,-5.9892,-6.1446,-6.2289,-6.2496,-6.3151,-6.3496,-6.36,-6.36,-6.36,-6.36,-6.36,-6.36,-6.36,-6.36,-6.3979,-6.4565,-6.4565,-6.5048,-6.5807,-6.6462,-6.6738,-6.6945,-6.7601,-6.7876,-6.7945,-6.7945,-6.8014,-6.8123,-6.8319,-6.8999,-6.9749,-7.0085,-7.1291,-7.2497,-7.2746,-7.381,-7.4608,-7.3991,-7.4449,-7.4972,-7.5082,-7.6676,-7.8222,-7.9051,-8.0588,-8.1694,-8.1806,-8.2511,-8.3069,-8.318,-8.318,-8.318,-8.318,-8.318,-8.318,-8.318,-8.318,-8.318,-8.318,-8.318,-8.318,-8.318,-8.318,-8.318,-8.318,-8.318,-8.318,-8.318,-8.318,-8.318,-8.318,-8.318,-8.318,-4.8599,-5.1613,-5.4397,-5.5247,-5.661,-5.7872,-5.8388,-5.8666,-5.8805,-5.8805,-5.8909,-5.9012,-5.9012,-5.9012,-5.9012,-5.9012,-5.9668,-6.0461,-6.1185,-6.1907,-6.2662,-6.3496,-6.3526,-6.334,-6.3038,-6.3,-6.2847,-6.242,-6.2381,-6.242,-6.2537,-6.2847,-6.3076,-6.3152,-6.3142,-6.2473,-6.1129,-6.1166,-6.077,-5.9883,-6.1147,-6.1934,-6.2415,-6.3242,-6.36,-6.36,-6.36,-6.36,-6.36,-6.36,-6.36,-6.3634,-6.4048,-6.4393,-6.4738,-6.5186,-6.5842,-6.6531,-6.6876,-6.7256,-6.7669,-6.798,-6.8083,-6.8083,-6.8083,-6.8473,-6.8937,-6.9055,-6.988,-7.0849,-7.1385,-7.2135,-7.3002,-7.3848,-7.4612,-7.5118,-7.5155,-7.5442,-7.59,-7.6777,-7.8055,-7.9261,-8.0068,-8.1174,-8.1991,-8.1991,-8.266,-8.318,-8.318,-8.318,-8.318,-8.318,-8.318,-8.318,-8.318,-8.318,-8.318,-8.318,-8.318,-8.318,-8.318,-8.318,-8.318,-8.318,-8.318,-8.318,-8.318,-8.318,-8.318,-8.318,-8.318,-8.3347,-4.8409,-5.0784,-5.291,-5.4228,-5.5617,-5.697,-5.7868,-5.8389,-5.8701,-5.8701,-5.8875,-5.9012,-5.9012,-5.9012,-5.9012,-5.9012,-5.984,-6.0668,-6.122,-6.2151,-6.2979,-6.3531,-6.36,-6.3452,-6.3038,-6.3,-6.2847,-6.242,-6.242,-6.2537,-6.2693,-6.2923,-6.3152,-6.3302,-6.3489,-6.2884,-6.14,-6.14,-6.1088,-6.0451,-6.1322,-6.2047,-6.2629,-6.3305,-6.36,-6.36,-6.36,-6.36,-6.36,-6.36,-6.3703,-6.391,-6.4496,-6.4945,-6.5359,-6.5945,-6.6635,-6.7256,-6.7256,-6.7635,-6.8118,-6.8325,-6.8394,-6.8428,-6.8635,-6.9243,-6.9892,-6.9931,-7.0798,-7.1882,-7.2644,-7.3114,-7.3739,-7.5048,-7.5477,-7.5792,-7.6264,-7.6541,-7.7065,-7.8419,-7.9475,-8.032,-8.0914,-8.1731,-8.2288,-8.2288,-8.2809,-8.318,-8.318,-8.318,-8.318,-8.318,-8.318,-8.318,-8.318,-8.318,-8.318,-8.318,-8.318,-8.318,-8.318,-8.318,-8.318,-8.318,-8.318,-8.318,-8.318,-8.318,-8.318,-8.318,-8.3318,-8.3667,-4.8409,-4.9588,-5.0723,-5.3011,-5.4613,-5.5892,-5.6689,-5.7731,-5.8525,-5.8525,-5.8771,-5.9012,-5.9012,-5.9012,-5.9012,-5.9012,-6.0254,-6.1254,-6.1289,-6.2599,-6.3565,-6.36,-6.36,-6.3452,-6.3038,-6.3,-6.2847,-6.242,-6.261,-6.2688,-6.2727,-6.3076,-6.3265,-6.3302,-6.3489,-6.3158,-6.2251,-6.2251,-6.2212,-6.2172,-6.3049,-6.3494,-6.3563,-6.36,-6.36,-6.36,-6.36,-6.36,-6.36,-6.36,-6.4014,-6.4634,-6.4703,-6.56,-6.6876,-6.6911,-6.7394,-6.8049,-6.8049,-6.8049,-6.8221,-6.898,-6.9222,-6.936,-7.0049,-7.0453,-7.0689,-7.0888,-7.1682,-7.2633,-7.3578,-7.4403,-7.5155,-7.5893,-7.6591,-7.7102,-7.7133,-7.7719,-7.8523,-7.9257,-8.0765,-8.188,-8.1917,-8.2586,-8.3143,-8.3143,-8.3143,-8.318,-8.318,-8.318,-8.318,-8.318,-8.318,-8.318,-8.318,-8.318,-8.318,-8.318,-8.318,-8.318,-8.318,-8.318,-8.318,-8.318,-8.318,-8.318,-8.318,-8.318,-8.318,-8.321,-8.3665,-8.4309,-4.6684,-4.8091,0.0,-5.0927,-5.3138,-5.5156,-5.5877,-5.7304,-5.8314,-5.7775,-5.8386,-5.884,-5.8317,-5.8632,-5.9185,-5.9702,-6.0634,-6.1496,-6.1979,-6.2944,-6.36,-6.36,-6.36,-6.3452,-6.3038,-6.3,-6.2885,-6.2615,-6.2688,-6.2808,-6.3076,-6.3227,-6.334,-6.3489,-6.3563,-6.3193,-6.2318,-6.173,-6.1373,-6.1413,-6.2358,-6.2779,-6.2779,-6.3343,-6.3841,-6.4324,-6.4324,-6.4048,-6.3634,-6.4117,-6.4462,-6.4807,-6.5773,-6.6497,-6.7049,-6.7532,-6.7876,-6.8152,-6.867,-6.8842,-6.898,-6.9739,-6.998,-7.009,-7.0453,-7.1105,-7.1688,-7.1926,-7.3002,-7.4248,-7.4581,-7.5621,-7.6901,-7.8114,-7.8928,-7.9446,-7.9446,-7.9668,-8.0096,-8.0959,-8.1583,-8.214,-8.266,-8.2994,-8.318,-8.318,-8.318,-8.318,-8.318,-8.318,-8.318,-8.318,-8.318,-8.318,-8.318,-8.318,-8.318,-8.318,-8.318,-8.318,-8.318,-8.37,-8.396,-8.396,-8.448,-8.448,-8.396,-8.396,-8.4419,-8.5237,-8.5419,-8.6002,-4.5635,-4.6945,-4.8446,-4.9425,-5.1731,-5.4082,-5.5147,-5.6799,-5.8077,-5.778,-5.8422,-5.884,-5.8281,-5.8632,-5.9254,-6.0082,-6.1047,-6.1875,-6.2393,-6.3117,-6.36,-6.36,-6.36,-6.3489,-6.3152,-6.3114,-6.3,-6.2808,-6.2847,-6.3,-6.3265,-6.334,-6.3452,-6.36,-6.36,-6.3193,-6.2318,-6.2205,-6.2025,-6.174,-6.2928,-6.3528,-6.3528,-6.4099,-6.4634,-6.5083,-6.5083,-6.4807,-6.4393,-6.4876,-6.5255,-6.5566,-6.66,-6.7152,-6.7463,-6.8221,-6.8497,-6.8601,-6.9394,-6.9635,-6.9773,-7.0532,-7.0774,-7.0849,-7.1336,-7.2156,-7.2976,-7.3171,-7.4537,-7.5907,-7.6153,-7.7347,-7.8766,-7.9793,-8.0585,-8.1137,-8.1137,-8.1137,-8.1285,-8.188,-8.2214,-8.2549,-8.3106,-8.318,-8.318,-8.318,-8.318,-8.318,-8.318,-8.318,-8.318,-8.318,-8.318,-8.318,-8.318,-8.318,-8.3329,-8.3589,-8.3589,-8.37,-8.3997,-8.4518,-8.4778,-8.4778,-8.5335,-8.5567,-8.5475,-8.5009,-8.5441,-8.668,-8.6654,-8.7336,0.0,0.0,0.0,-4.8562,-5.0593,-5.269,-5.4397,0.0,-5.7568,-5.8495,-5.884,-5.8944,-5.8978,-5.8978,-5.9288,-6.0082,-6.1461,-6.2427,-6.2496,-6.3117,-6.3565,-6.36,-6.36,-6.3526,-6.3302,-6.3302,-6.3227,-6.3038,-6.3189,-6.3302,-6.3302,-6.3489,-6.3634,-6.3634,-6.3669,-6.3261,-6.2425,-6.3947,-6.4324,-6.3475,-6.5117,-6.5876,-6.5876,-6.5876,-6.5911,-6.5911,-6.5911,-6.5911,-6.5945,-6.5911,-6.6324,-6.698,-6.7014,-6.7463,-6.8221,-6.898,-6.9291,-6.9428,-7.0153,-7.0429,-7.0532,-7.1291,-7.1532,-7.1712,-7.2721,-7.3672,-7.4454,-7.4715,-7.6087,-7.7634,-7.8317,-7.9623,-8.0728,-8.0765,-8.1397,-8.2028,-8.2028,-8.2028,-8.2028,-8.2028,-8.266,-8.318,-8.318,-8.318,-8.318,-8.318,-8.318,-8.318,-8.318,-8.318,-8.318,-8.318,-8.318,-8.3217,-8.3217,-8.3217,-8.3589,-8.4369,-8.4443,-8.4778,-8.5558,-8.5632,-8.5632,-8.5632,-8.57,-8.6399,-8.7705,-8.6325,-8.6219,-8.7298,-8.7222,-8.821,-4.4852,0.0,0.0,0.0,0.0,0.0,-5.2106,0.0,-5.5757,-5.5933,-5.7107,-5.8084,-5.8142,-5.9077,-5.9944,-6.0151,-6.0565,-6.122,-6.2324,-6.2668,-6.2979,-6.3531,-6.36,-6.3526,-6.3302,-6.3302,-6.3265,-6.3227,-6.3265,-6.334,-6.3526,-6.408,-6.4393,-6.4393,-6.4945,-6.5179,-6.4916,-6.5352,-6.5417,-6.5225,-6.5696,-6.5876,-6.5876,-6.5876,-6.6186,-6.6669,-6.6669,-6.698,-6.7428,-6.6911,-6.6807,-6.7049,-6.7566,-6.8256,-6.898,-6.9187,-6.9635,-7.0187,-7.0912,-7.1187,-7.1325,-7.2084,-7.236,-7.2569,-7.3646,-7.4614,-7.5458,-7.6409,-7.7819,-7.9338,-8.0651,-8.1318,-8.1768,-8.2363,-8.2697,-8.2846,-8.2846,-8.2846,-8.2846,-8.2846,-8.3032,-8.318,-8.318,-8.318,-8.318,-8.318,-8.318,-8.318,-8.318,-8.318,-8.318,-8.318,-8.318,-8.344,-8.3997,-8.4072,-8.4406,-8.5223,-8.5261,-8.5372,-8.5595,-8.6152,-8.6486,-8.6486,-8.8047,-8.9225,-8.9969,-8.7995,-8.79,-8.9506,-8.9896,-9.0358,-4.4699,-4.5213,-4.5901,-4.6447,0.0,0.0,-5.0961,-5.301,-5.4804,-5.5127,-5.6573,-5.7809,-5.784,-5.8839,-5.9702,-5.9702,-5.9702,-6.0254,-6.1772,-6.2289,-6.2634,-6.3082,-6.3393,-6.3563,-6.3452,-6.3414,-6.3414,-6.3414,-6.3414,-6.3626,-6.4048,-6.4772,-6.5186,-6.5186,-6.5635,-6.5876,-6.5876,-6.6186,-6.6359,-6.6359,-6.6669,-6.6807,-6.6807,-6.6807,-6.7221,-6.7945,-6.7945,-6.8359,-6.9015,-6.8601,-6.8221,-6.798,-6.8428,-6.9084,-6.9773,-7.0084,-7.0463,-7.0946,-7.1739,-7.1981,-7.2133,-7.2921,-7.3223,-7.3547,-7.4959,-7.5979,-7.6874,-7.8065,-7.948,-8.0953,-8.2163,-8.2474,-8.2623,-8.3069,-8.318,-8.318,-8.318,-8.318,-8.318,-8.318,-8.318,-8.318,-8.318,-8.318,-8.318,-8.318,-8.318,-8.318,-8.318,-8.318,-8.318,-8.318,-8.3477,-8.3886,-8.4369,-8.4703,-8.5223,-8.6041,-8.6115,-8.6264,-8.6635,-8.7415,-8.7978,-8.8175,-8.9788,-9.0819,-9.1225,-8.973,-8.9462,-9.0423,-9.0952,-9.121,-4.4776,-4.5314,-4.5852,-4.606,-4.7694,0.0,-5.0446,-5.2289,-5.4102,-5.5126,-5.6465,-5.7565,-5.7874,-5.8461,-5.8909,-5.9012,-5.9012,-5.953,-6.0978,-6.1772,-6.2289,-6.2461,-6.3082,-6.3496,-6.36,-6.36,-6.36,-6.36,-6.3669,-6.4048,-6.4807,-6.5566,-6.6014,-6.6014,-6.6083,-6.6117,-6.6117,-6.6773,-6.7118,-6.7118,-6.7773,-6.8083,-6.8083,-6.8187,-6.8601,-6.9291,-6.936,-6.9773,-7.0394,-7.0394,-6.998,-6.9394,-6.9394,-6.9842,-7.0601,-7.1256,-7.1567,-7.1781,-7.2555,-7.2804,-7.297,-7.3681,-7.4146,-7.4667,-7.641,-7.7601,-7.8615,-7.9785,-8.1057,-8.2288,-8.2994,-8.318,-8.318,-8.318,-8.318,-8.318,-8.318,-8.318,-8.318,-8.318,-8.318,-8.318,-8.318,-8.318,-8.318,-8.318,-8.318,-8.318,-8.318,-8.318,-8.3217,-8.3329,-8.396,-8.448,-8.4629,-8.5298,-8.6078,-8.6895,-8.6932,-8.7341,-8.8195,-8.8901,-8.9614,-9.0221,-9.1075,-9.1585,-9.1785,-9.1218,-9.0761,-9.0485,-9.0971,-9.121,-4.4776,-4.4988,-4.5337,-4.6083,-4.7077,0.0,-4.8815,-5.0243,-5.1853,0.0,-5.4257,-5.5506,-5.753,-5.8012,-5.8323,-5.8909,-5.9012,-5.9323,-6.0289,-6.053,-6.1116,-6.2324,-6.2634,-6.2944,-6.3531,-6.36,-6.36,-6.36,-6.4152,-6.4841,-6.56,-6.6359,-6.6773,-6.6773,-6.7359,-6.7669,-6.7669,-6.7807,-6.7876,-6.7876,-6.8014,-6.8083,-6.8118,-6.8773,-6.9118,-6.9325,-6.9911,-7.0256,-7.0394,-7.0394,-7.0291,-7.0187,-7.0187,-7.0636,-7.1291,-7.1429,-7.1912,-7.2589,-7.3322,-7.3597,-7.3721,-7.4645,-7.544,-7.6267,-7.7486,-7.8898,-8.0466,-8.2042,-8.272,-8.2994,-8.3143,-8.318,-8.318,-8.318,-8.318,-8.318,-8.318,-8.318,-8.318,-8.318,-8.318,-8.318,-8.318,-8.318,-8.318,-8.318,-8.318,-8.318,-8.318,-8.318,-8.344,-8.4109,-8.4295,-8.4926,-8.6226,-8.6486,-8.6932,-8.7787,-8.7861,-8.8195,-8.9013,-8.9198,-8.9875,-9.1019,-9.2063,-9.2525,-9.2332,-9.1528,-9.1106,-9.1064,-9.1136,-9.121,-4.4988,-4.5022,-4.5226,-4.5738,-4.6453,0.0,0.0,-4.9286,-5.0734,-5.1802,-5.3288,-5.4711,-5.5979,-5.715,-5.8012,-5.8392,-5.8771,-5.915,-5.953,-5.9944,-6.0496,-6.1254,-6.1668,-6.2186,-6.2979,-6.3048,-6.3358,-6.4083,-6.4841,-6.5635,-6.6393,-6.7152,-6.7532,-6.7532,-6.7911,-6.8083,-6.8083,-6.8083,-6.8083,-6.8083,-6.8083,-6.829,-6.8704,-6.9118,-6.967,-7.0394,-7.0774,-7.1153,-7.1532,-7.1532,-7.1532,-7.1498,-7.1084,-7.1394,-7.2084,-7.2084,-7.2583,-7.3311,-7.3641,-7.4396,-7.5287,-7.612,-7.7078,-7.8179,-7.9501,-8.0843,-8.2068,-8.2943,-8.318,-8.318,-8.318,-8.318,-8.318,-8.318,-8.318,-8.318,-8.318,-8.318,-8.318,-8.318,-8.318,-8.318,-8.318,-8.318,-8.318,-8.318,-8.318,-8.318,-8.318,-8.3552,-8.396,-8.4369,-8.5112,-8.5929,-8.6747,-8.7192,-8.7787,-8.8641,-8.8678,-8.8864,-8.9273,-8.9919,-9.0878,-9.2077,-9.2504,-9.2623,-9.2479,-9.1633,-9.121,-9.121,-9.121,-9.121,-4.5672,-4.5569,-4.5704,-4.5818,-4.6431,-4.7155,0.0,0.0,0.0,-5.0976,-5.2701,-5.4149,-5.446,-5.6115,-5.7529,-5.7667,-5.8323,-5.8806,-5.8806,-5.9461,-6.0013,-6.0185,-6.0737,-6.1461,-6.2393,-6.2634,-6.3324,-6.4807,-6.5531,-6.6255,-6.7152,-6.7773,-6.8083,-6.8083,-6.8083,-6.8083,-6.8083,-6.8083,-6.8083,-6.8083,-6.8256,-6.867,-6.9331,-6.9767,-7.0522,-7.1498,-7.1843,-7.2216,-7.2713,-7.2846,-7.2929,-7.2818,-7.203,-7.2209,-7.2929,-7.2929,-7.3392,-7.4072,-7.4405,-7.5507,-7.6839,-7.7807,-7.8917,-8.0073,-8.1555,-8.2572,-8.318,-8.318,-8.318,-8.318,-8.318,-8.318,-8.318,-8.318,-8.318,-8.318,-8.318,-8.318,-8.318,-8.318,-8.318,-8.318,-8.318,-8.318,-8.318,-8.318,-8.318,-8.3254,-8.3403,-8.3997,-8.4518,-8.4815,-8.6004,-8.6858,-8.7044,-8.7824,-8.853,-8.905,-8.9198,-8.931,-8.931,-9.0676,-9.186,-9.2635,-9.2546,-9.2402,-9.2249,-9.1556,-9.121,-9.121,-9.121,-9.121,-4.7414,-4.732,-4.7431,-4.7431,-4.7982,-4.8568,-4.8637,0.0,-5.0218,-5.0976,0.0,-5.2908,-5.4253,0.0,0.0,-5.6805,-5.7529,-5.8012,-5.8012,-5.8668,-5.9392,-6.0116,-6.0254,-6.0909,-6.2358,-6.3082,-6.4117,-6.5635,-6.5842,-6.6497,-6.7911,-6.8049,-6.8083,-6.8083,-6.8083,-6.8083,-6.8083,-6.8083,-6.8083,-6.8118,-6.8808,-6.9187,-6.9365,-7.1368,-7.1987,-7.1574,-7.2938,-7.3241,-7.2755,-7.3432,-7.3677,-7.3602,-7.2866,-7.3031,-7.3677,-7.3677,-7.4187,-7.5082,-7.6617,-7.7319,-7.7771,-7.9566,-8.0874,-8.1867,-8.2779,-8.3106,-8.318,-8.318,-8.318,-8.318,-8.318,-8.318,-8.318,-8.318,-8.318,-8.318,-8.318,-8.318,-8.318,-8.318,-8.318,-8.318,-8.318,-8.318,-8.318,-8.318,-8.318,-8.344,-8.4146,-8.4332,-8.4926,-8.6375,-8.6672,-8.7118,-8.7898,-8.8678,-8.8901,-8.827,-8.8901,-8.931,-8.931,-9.1028,-9.1933,-9.1735,-9.2239,-9.2133,-9.1364,-9.1248,-9.121,-9.121,-9.121,-9.121,-4.8987,-4.8558,-4.8327,-4.8327,-4.8224,-4.8258,-4.8706,-4.9051,-4.9499,-5.0321,0.0,0.0,0.0,0.0,0.0,0.0,-5.6771,-5.7426,0.0,0.0,-5.8668,0.0,0.0,-6.0116,-6.1634,-6.2496,-6.3772,-6.5738,-6.5876,-6.6531,-6.8014,-6.8083,-6.8083,-6.8083,-6.8083,-6.8083,-6.8083,-6.8083,-6.8325,-6.8773,-6.9563,-7.0388,-7.1334,-7.2776,-7.3456,-7.3575,-7.4237,-7.4302,-7.4068,-7.4378,-7.4529,-7.4492,-7.4184,-7.4226,-7.4565,-7.5026,-7.569,-7.6585,-7.786,-7.8979,-8.0079,-8.1578,-8.2371,-8.2734,-8.3106,-8.318,-8.318,-8.318,-8.318,-8.318,-8.318,-8.318,-8.318,-8.318,-8.318,-8.318,-8.318,-8.318,-8.318,-8.318,-8.318,-8.318,-8.318,-8.318,-8.318,-8.318,-8.3589,-8.3997,-8.4369,-8.5223,-8.6041,-8.6747,-8.723,-8.7712,-8.8047,-8.8418,-8.8641,-8.879,-8.9124,-8.9577,-9.0192,-9.0485,-9.089,-9.1356,-9.162,-9.1556,-9.121,-9.121,-9.121,-9.121,-9.121,-9.121,-5.121,-5.0543,-5.005,-5.005,-4.9465,-4.9051,-4.9602,-4.9706,-4.9878,-5.0493,-5.1218,0.0,0.0,0.0,-5.4701,-5.5219,0.0,-5.6667,0.0,-5.7633,0.0,0.0,0.0,0.0,-6.1185,-6.2013,-6.3427,-6.5704,-6.5876,-6.6531,-6.8014,-6.8083,-6.8083,-6.8083,-6.8083,-6.8187,-6.8428,-6.8843,-6.9258,-6.9641,-7.1017,-7.2028,-7.2753,-7.3974,-7.4691,-7.501,-7.5227,-7.5192,-7.501,-7.5227,-7.5335,-7.5371,-7.5798,-7.6011,-7.6083,-7.6446,-7.7264,-7.8271,-7.9267,-8.0625,-8.2103,-8.2935,-8.318,-8.318,-8.318,-8.318,-8.318,-8.318,-8.318,-8.318,-8.318,-8.318,-8.318,-8.318,-8.318,-8.318,-8.318,-8.318,-8.318,-8.318,-8.318,-8.318,-8.318,-8.318,-8.3254,-8.3477,-8.4035,-8.4555,-8.5,-8.6078,-8.6895,-8.7118,-8.7712,-8.8084,-8.8084,-8.8307,-8.8678,-8.9273,-8.9087,-8.9384,-9.0271,-8.9868,-9.006,-9.0952,-9.1118,-9.121,-9.121,-9.121,-9.121,-9.121,-9.121,-9.121,-5.4532,-5.3839,-5.3253,-5.3253,-5.2666,-5.205,-5.2084,-5.2084,-5.2084,-5.2119,-5.277,-5.3322,-5.3356,-5.4011,-5.4529,-5.4529,-5.5184,0.0,0.0,0.0,0.0,0.0,0.0,0.0,0.0,-6.2013,-6.3427,-6.5704,-6.5876,-6.6531,-6.8014,-6.8083,-6.8083,-6.8083,-6.8083,-6.8463,-6.9222,-7.0752,-7.1101,-7.04,-7.3489,-7.4145,-7.2788,-7.5082,-7.5721,-7.5047,-7.5826,-7.5722,-7.5083,-7.5826,-7.6169,-7.6309,-7.787,-7.8547,-7.8572,-7.7826,-7.8569,-8.0082,-8.1199,-8.229,-8.3143,-8.318,-8.318,-8.318,-8.318,-8.318,-8.318,-8.318,-8.318,-8.318,-8.318,-8.318,-8.318,-8.318,-8.318,-8.318,-8.318,-8.318,-8.318,-8.318,-8.318,-8.318,-8.318,-8.318,-8.344,-8.422,-8.4369,-8.4963,-8.6524,-8.6784,-8.7118,-8.7973,-8.8084,-8.8084,-8.8084,-8.879,-8.9273,-8.931,-8.8567,-8.8354,-8.8841,-8.9326,-8.9862,-9.0423,-9.0934,-9.121,-9.121,-9.121,-9.121,-9.121,-9.121,-9.121,-5.6081,-5.546,-5.4874,-5.4874,-5.4287,-5.3736,-5.3736,-5.3736,-5.3598,-5.3115,-5.3218,-5.3391,-5.3391,-5.3598,-5.3942,-5.4425,-5.4701,-5.5046,0.0,0.0,0.0,0.0,0.0,0.0,0.0,0.0,0.0,0.0,-6.5876,-6.6531,-6.8014,-6.8083,-6.8083,-6.8083,-6.8601,-6.9258,-7.0015,-7.1581,-7.2212,-7.1936,-7.4619,-7.5334,-7.4288,-7.6091,-7.6797,-7.6534,-7.6829,-7.6797,-7.6534,-7.6829,-7.7253,-7.7834,-7.8385,-7.9307,-8.0351,-8.0094,-8.0404,-8.1151,-8.214,-8.2802,-8.318,-8.318,-8.318,-8.318,-8.318,-8.318,-8.318,-8.318,-8.318,-8.318,-8.318,-8.318,-8.318,-8.318,-8.318,-8.318,-8.318,-8.318,-8.318,-8.318,-8.318,-8.318,-8.318,-8.3626,-8.4072,-8.4369,-8.4852,-8.5558,-8.6672,-8.7304,-8.775,-8.8047,-8.8084,-8.8084,-8.8084,-8.8344,-8.8493,-8.8493,-8.8233,-8.8458,-8.93,-8.9502,-9.0037,-9.0915,-9.11,-9.121,-9.121,-9.121,-9.121,-9.121,-9.121,-9.121,-5.8012,-5.7219,-5.6426,-5.6426,-5.5874,-5.5322,-5.5322,-5.5322,-5.5184,-5.4701,-5.4598,-5.4598,-5.4598,-5.4598,-5.477,-5.5253,-5.5322,0.0,0.0,-5.7288,0.0,0.0,0.0,0.0,0.0,0.0,0.0,0.0,0.0,0.0,0.0,-6.8083,-6.8201,-6.8478,-6.9281,-7.0179,-7.1166,-7.3356,-7.4171,-7.3557,-7.626,-7.678,-7.5441,-7.6733,-7.7273,-7.7273,-7.7273,-7.7273,-7.731,-7.7635,-7.8112,-7.8662,-7.9276,-8.0246,-8.1323,-8.1323,-8.1662,-8.2207,-8.2816,-8.3091,-8.318,-8.318,-8.318,-8.318,-8.318,-8.318,-8.3143,-8.2846,-8.2957,-8.3106,-8.2846,-8.2994,-8.318,-8.318,-8.318,-8.318,-8.318,-8.318,-8.318,-8.318,-8.318,-8.3292,-8.3589,-8.4035,-8.448,-8.4778,-8.5521,-8.6338,-8.7155,-8.775,-8.8084,-8.8084,-8.8084,-8.8084,-8.8084,-8.8084,-8.8084,-8.8084,-8.8084,-8.8406,-8.9023,-8.9402,-8.9908,-9.0625,-9.0989,-9.121,-9.121,-9.121,-9.121,-9.121,-9.121,-9.121]},{"header":{"parameterUnit":"m.s-1","parameterCategory":1,"la1":30.6,"la2":29.2853,"lo1":-89.7004,"lo2":-87.6739,"dx":0.0162,"dy":0.0183,"nx":112,"ny":82,"refTime":"2022-12-30T18:00:00:Z","depth":0,"parameterNumber":3,"parameterNumberName":"V-component_of_WINDS"},"data":[0.0,0.0,0.0,0.0,0.0,0.0,0.0,0.0,0.0,0.0,0.0,0.0,0.0,0.0,0.0,0.0,0.0,0.0,0.0,0.0,0.0,0.0,0.0,0.0,0.0,0.0,0.0,0.0,0.0,0.0,0.0,0.0,0.0,0.0,0.0,0.0,0.0,0.0,0.0,0.0,0.0,0.0,0.0,0.0,0.0,0.0,0.0,0.0,0.0,0.0,0.0,0.0,0.0,0.0,0.0,0.0,0.0,0.0,0.0,0.0,0.0,0.0,0.0,0.0,0.0,0.0,0.0,0.0,0.0,0.0,0.0,0.0,0.0,0.0,0.0,0.0,0.0,0.0,0.0,0.0,0.0,0.0,0.0,0.0,0.0,0.0,0.0,0.0,0.0,0.0,-1.5083,-1.517,-1.503,-1.4878,-1.4657,-1.4624,-1.4899,-1.5666,0.0,0.0,0.0,0.0,0.0,0.0,0.0,0.0,0.0,0.0,0.0,0.0,0.0,0.0,0.0,0.0,0.0,0.0,0.0,0.0,0.0,0.0,0.0,0.0,0.0,0.0,0.0,0.0,0.0,0.0,0.0,0.0,0.0,0.0,0.0,0.0,0.0,0.0,0.0,0.0,0.0,0.0,0.0,0.0,0.0,0.0,0.0,0.0,0.0,0.0,0.0,0.0,0.0,0.0,0.0,0.0,0.0,0.0,0.0,0.0,0.0,0.0,0.0,0.0,0.0,0.0,0.0,0.0,0.0,0.0,0.0,0.0,0.0,0.0,0.0,0.0,0.0,0.0,0.0,0.0,0.0,0.0,0.0,0.0,0.0,0.0,0.0,0.0,0.0,0.0,0.0,0.0,0.0,0.0,0.0,0.0,0.0,0.0,0.0,0.0,0.0,0.0,0.0,0.0,-1.6317,-1.6101,-1.6337,-1.6039,-1.5008,-1.4711,-1.4636,-1.4768,0.0,0.0,0.0,0.0,0.0,0.0,0.0,0.0,0.0,0.0,0.0,0.0,0.0,0.0,0.0,0.0,0.0,0.0,0.0,0.0,0.0,0.0,0.0,0.0,0.0,0.0,0.0,0.0,0.0,0.0,0.0,0.0,0.0,0.0,0.0,0.0,0.0,0.0,0.0,0.0,0.0,0.0,0.0,0.0,0.0,0.0,0.0,0.0,0.0,0.0,0.0,0.0,0.0,0.0,0.0,0.0,0.0,0.0,0.0,0.0,0.0,0.0,0.0,0.0,0.0,0.0,0.0,0.0,0.0,0.0,0.0,0.0,0.0,0.0,0.0,0.0,0.0,0.0,0.0,0.0,0.0,0.0,0.0,0.0,0.0,0.0,0.0,0.0,0.0,0.0,0.0,0.0,0.0,0.0,0.0,0.0,0.0,0.0,0.0,0.0,0.0,0.0,0.0,-1.682,-1.7252,-1.7473,-1.7751,-1.7692,-1.7158,-1.6992,-1.6796,-1.6448,-1.6813,0.0,0.0,0.0,0.0,0.0,0.0,0.0,0.0,0.0,0.0,0.0,0.0,0.0,0.0,0.0,0.0,0.0,0.0,0.0,0.0,0.0,0.0,0.0,0.0,0.0,0.0,0.0,0.0,0.0,0.0,0.0,0.0,0.0,0.0,0.0,0.0,0.0,0.0,0.0,0.0,0.0,0.0,0.0,0.0,0.0,0.0,0.0,0.0,0.0,0.0,0.0,0.0,0.0,0.0,0.0,0.0,0.0,0.0,0.0,0.0,0.0,0.0,0.0,0.0,0.0,0.0,0.0,0.0,0.0,0.0,0.0,0.0,0.0,0.0,0.0,0.0,0.0,0.0,0.0,0.0,0.0,0.0,0.0,0.0,0.0,0.0,0.0,0.0,0.0,0.0,0.0,0.0,0.0,0.0,0.0,0.0,0.0,0.0,0.0,0.0,0.0,0.0,-1.7328,-1.7929,-1.8531,-1.8851,-1.9025,-1.9025,-1.8958,-1.8704,-1.8129,-1.8035,0.0,0.0,0.0,0.0,0.0,0.0,0.0,0.0,0.0,0.0,0.0,0.0,0.0,0.0,0.0,0.0,0.0,0.0,0.0,0.0,0.0,0.0,0.0,0.0,0.0,0.0,0.0,0.0,0.0,0.0,0.0,0.0,0.0,0.0,0.0,0.0,0.0,0.0,0.0,0.0,0.0,0.0,0.0,0.0,0.0,0.0,0.0,0.0,0.0,0.0,0.0,0.0,0.0,0.0,0.0,0.0,0.0,0.0,0.0,0.0,0.0,0.0,0.0,0.0,0.0,0.0,0.0,0.0,0.0,0.0,0.0,0.0,0.0,0.0,0.0,0.0,0.0,0.0,0.0,0.0,0.0,0.0,0.0,0.0,0.0,0.0,0.0,0.0,0.0,0.0,0.0,0.0,0.0,0.0,0.0,0.0,0.0,0.0,0.0,0.0,0.0,0.0,-1.7635,-1.8182,-1.8824,-1.9158,-1.9332,-1.9332,-1.9078,-1.8784,-1.8477,-1.8142,0.0,0.0,0.0,0.0,0.0,0.0,0.0,0.0,0.0,0.0,0.0,0.0,0.0,0.0,0.0,0.0,0.0,0.0,0.0,0.0,0.0,0.0,0.0,0.0,0.0,0.0,0.0,0.0,0.0,0.0,0.0,0.0,0.0,0.0,0.0,0.0,0.0,0.0,0.0,0.0,0.0,0.0,0.0,0.0,0.0,0.0,0.0,0.0,0.0,0.0,0.0,0.0,0.0,0.0,0.0,0.0,0.0,0.0,0.0,0.0,0.0,0.0,0.0,0.0,0.0,0.0,0.0,0.0,0.0,0.0,0.0,0.0,0.0,0.0,0.0,0.0,0.0,0.0,0.0,0.0,0.0,0.0,0.0,0.0,0.0,0.0,0.0,0.0,0.0,0.0,0.0,0.0,0.0,0.0,0.0,0.0,0.0,0.0,0.0,0.0,0.0,0.0,-1.7836,-1.8477,-1.8878,-1.9185,-1.943,-1.943,-1.9265,-1.8998,-1.8517,0.0,0.0,0.0,0.0,0.0,0.0,0.0,0.0,0.0,0.0,0.0,0.0,0.0,0.0,0.0,0.0,0.0,0.0,0.0,0.0,0.0,0.0,0.0,0.0,0.0,0.0,0.0,0.0,0.0,0.0,0.0,0.0,0.0,0.0,0.0,0.0,0.0,0.0,0.0,0.0,0.0,0.0,0.0,0.0,0.0,0.0,0.0,0.0,0.0,0.0,0.0,0.0,0.0,0.0,0.0,0.0,0.0,0.0,0.0,0.0,0.0,0.0,0.0,0.0,0.0,0.0,0.0,0.0,0.0,0.0,0.0,0.0,0.0,0.0,0.0,0.0,0.0,0.0,0.0,0.0,0.0,0.0,0.0,0.0,0.0,0.0,0.0,0.0,0.0,0.0,0.0,0.0,0.0,0.0,0.0,0.0,0.0,0.0,0.0,0.0,0.0,0.0,-1.7407,-1.805,-1.8677,-1.9145,-1.9305,-1.9399,-1.9492,-1.9426,-1.9158,-1.8664,0.0,0.0,0.0,0.0,0.0,0.0,0.0,0.0,0.0,0.0,0.0,0.0,0.0,0.0,0.0,0.0,0.0,0.0,0.0,0.0,0.0,0.0,0.0,0.0,0.0,0.0,0.0,0.0,0.0,0.0,0.0,0.0,0.0,0.0,0.0,0.0,0.0,0.0,0.0,0.0,0.0,0.0,0.0,0.0,0.0,0.0,0.0,0.0,0.0,0.0,0.0,0.0,0.0,0.0,0.0,0.0,0.0,0.0,0.0,0.0,0.0,0.0,0.0,0.0,0.0,0.0,0.0,0.0,0.0,0.0,0.0,0.0,0.0,0.0,0.0,0.0,0.0,0.0,0.0,0.0,0.0,0.0,0.0,0.0,0.0,0.0,0.0,0.0,0.0,0.0,0.0,0.0,0.0,0.0,0.0,0.0,0.0,0.0,0.0,0.0,0.0,0.0,-1.7903,-1.8303,-1.8824,-1.9706,-1.9546,-1.9492,-1.9773,-1.9533,-1.9239,0.0,0.0,0.0,0.0,0.0,0.0,0.0,0.0,0.0,0.0,0.0,0.0,0.0,0.0,0.0,0.0,0.0,0.0,0.0,0.0,0.0,0.0,0.0,0.0,0.0,0.0,0.0,0.0,0.0,0.0,0.0,0.0,0.0,0.0,0.0,0.0,0.0,0.0,0.0,0.0,0.0,0.0,0.0,0.0,0.0,0.0,0.0,0.0,0.0,0.0,0.0,0.0,0.0,0.0,0.0,0.0,0.0,0.0,0.0,0.0,0.0,0.0,0.0,0.0,0.0,0.0,0.0,0.0,0.0,0.0,0.0,0.0,0.0,0.0,0.0,0.0,0.0,0.0,0.0,0.0,0.0,0.0,0.0,0.0,0.0,0.0,0.0,0.0,0.0,0.0,0.0,0.0,0.0,0.0,0.0,0.0,0.0,0.0,0.0,0.0,0.0,0.0,0.0,-1.7902,-1.8477,-1.9052,-1.9733,-1.972,-1.9706,-1.9786,-1.972,-1.9452,-1.8958,0.0,0.0,0.0,0.0,0.0,0.0,0.0,0.0,0.0,0.0,0.0,0.0,0.0,0.0,0.0,0.0,0.0,0.0,0.0,0.0,0.0,0.0,0.0,0.0,0.0,0.0,0.0,0.0,0.0,0.0,0.0,0.0,0.0,0.0,0.0,0.0,0.0,0.0,0.0,0.0,0.0,0.0,0.0,0.0,0.0,0.0,0.0,0.0,0.0,0.0,0.0,0.0,0.0,0.0,0.0,0.0,0.0,0.0,0.0,0.0,0.0,0.0,0.0,0.0,0.0,0.0,0.0,0.0,0.0,0.0,0.0,0.0,0.0,0.0,0.0,0.0,0.0,0.0,0.0,0.0,0.0,0.0,0.0,0.0,0.0,0.0,0.0,0.0,0.0,0.0,0.0,0.0,0.0,0.0,0.0,0.0,0.0,0.0,0.0,0.0,0.0,0.0,-1.8143,-1.8731,-1.9332,-1.9907,-1.9973,-2.0027,-2.0134,-1.9933,-1.9653,-1.9292,0.0,0.0,0.0,0.0,0.0,0.0,0.0,0.0,0.0,0.0,0.0,0.0,0.0,0.0,0.0,0.0,0.0,0.0,0.0,0.0,0.0,0.0,0.0,0.0,0.0,0.0,0.0,0.0,0.0,0.0,0.0,0.0,0.0,0.0,0.0,0.0,0.0,0.0,0.0,0.0,0.0,0.0,0.0,0.0,0.0,0.0,0.0,0.0,0.0,0.0,0.0,0.0,0.0,0.0,0.0,0.0,0.0,0.0,0.0,0.0,0.0,0.0,0.0,0.0,0.0,0.0,0.0,0.0,0.0,0.0,0.0,0.0,0.0,0.0,0.0,0.0,0.0,0.0,0.0,0.0,0.0,0.0,0.0,0.0,0.0,0.0,0.0,0.0,0.0,0.0,0.0,0.0,0.0,0.0,0.0,0.0,0.0,0.0,0.0,0.0,0.0,0.0,-1.845,-1.9052,-1.9626,-2.0174,-2.0254,-2.0388,-2.0655,-2.0187,-1.9853,-1.98,0.0,0.0,0.0,0.0,0.0,0.0,0.0,0.0,0.0,0.0,0.0,0.0,0.0,0.0,0.0,0.0,0.0,0.0,0.0,0.0,0.0,0.0,0.0,0.0,0.0,0.0,0.0,0.0,0.0,0.0,0.0,0.0,0.0,0.0,0.0,0.0,0.0,0.0,0.0,0.0,0.0,0.0,0.0,0.0,0.0,0.0,0.0,0.0,0.0,0.0,0.0,0.0,0.0,0.0,0.0,0.0,0.0,0.0,0.0,0.0,-1.1052,-1.0912,0.0,0.0,0.0,0.0,0.0,0.0,0.0,0.0,0.0,0.0,0.0,0.0,0.0,0.0,0.0,0.0,0.0,0.0,0.0,0.0,0.0,0.0,0.0,0.0,0.0,0.0,0.0,0.0,0.0,0.0,0.0,0.0,0.0,0.0,0.0,0.0,0.0,0.0,0.0,0.0,-1.8758,-1.9345,-1.984,-2.0201,-2.0441,-2.0601,-2.0668,-2.0561,-2.0294,-1.9826,-1.9466,0.0,0.0,0.0,0.0,0.0,0.0,0.0,0.0,0.0,0.0,0.0,0.0,0.0,0.0,0.0,0.0,0.0,0.0,0.0,0.0,0.0,0.0,0.0,0.0,0.0,0.0,0.0,0.0,0.0,0.0,0.0,0.0,0.0,0.0,0.0,0.0,0.0,0.0,0.0,0.0,0.0,0.0,0.0,0.0,0.0,0.0,0.0,0.0,0.0,0.0,0.0,0.0,0.0,0.0,0.0,0.0,0.0,0.0,0.0,-1.1195,-1.0932,0.0,0.0,0.0,0.0,0.0,0.0,0.0,0.0,0.0,0.0,0.0,0.0,0.0,0.0,0.0,0.0,0.0,0.0,0.0,0.0,0.0,0.0,0.0,0.0,0.0,0.0,0.0,0.0,0.0,0.0,0.0,0.0,0.0,0.0,0.0,0.0,0.0,0.0,0.0,0.0,-1.9078,-1.9653,-2.012,-2.0414,-2.0708,-2.0882,-2.0882,-2.0762,-2.0486,-1.9998,-1.9575,0.0,0.0,0.0,0.0,0.0,0.0,0.0,0.0,0.0,0.0,0.0,0.0,0.0,0.0,0.0,0.0,0.0,0.0,0.0,0.0,0.0,0.0,0.0,0.0,0.0,0.0,0.0,0.0,0.0,0.0,0.0,0.0,0.0,0.0,0.0,0.0,0.0,0.0,0.0,0.0,0.0,0.0,0.0,0.0,0.0,0.0,0.0,0.0,0.0,0.0,0.0,0.0,0.0,-1.2847,-1.3123,-1.4179,-1.3612,-1.3373,-1.3221,-1.1458,-1.1186,-1.202,-1.3435,0.0,0.0,0.0,0.0,0.0,0.0,0.0,0.0,0.0,0.0,0.0,0.0,0.0,0.0,0.0,0.0,0.0,0.0,0.0,0.0,0.0,0.0,-1.7448,-1.7996,-1.8115,-1.8063,-1.7569,0.0,0.0,0.0,0.0,0.0,0.0,0.0,0.0,0.0,0.0,0.0,-1.9412,-2.0,-2.0481,-2.0722,-2.1056,-2.1269,-2.1269,-2.1042,-2.0743,-2.0325,-1.9794,-1.9197,0.0,0.0,0.0,0.0,0.0,0.0,0.0,0.0,0.0,0.0,0.0,0.0,0.0,0.0,0.0,0.0,0.0,0.0,0.0,0.0,0.0,0.0,0.0,0.0,0.0,0.0,0.0,0.0,0.0,0.0,0.0,0.0,-1.5594,-1.5594,0.0,0.0,0.0,0.0,0.0,0.0,0.0,0.0,0.0,0.0,0.0,0.0,0.0,-1.361,-1.3891,-1.2719,-1.3014,-1.4676,-1.3549,-1.3635,-1.4863,-1.4759,-1.4724,-1.4668,-1.3313,0.0,-1.3106,-1.54,0.0,0.0,0.0,0.0,0.0,0.0,0.0,0.0,0.0,0.0,0.0,0.0,0.0,0.0,0.0,0.0,0.0,0.0,0.0,0.0,0.0,0.0,-1.8009,-1.8357,-1.8624,-1.8784,-1.8704,-1.849,-1.8237,-1.7929,-1.8103,-1.8183,0.0,0.0,0.0,0.0,0.0,0.0,-1.9706,-2.0481,-2.1002,-2.1042,-2.155,-2.1871,-2.1871,-2.183,-2.1474,-2.0589,-2.0472,-1.9998,-1.9153,-1.8631,0.0,0.0,0.0,0.0,0.0,0.0,0.0,0.0,0.0,0.0,0.0,0.0,0.0,0.0,0.0,0.0,0.0,0.0,0.0,0.0,0.0,0.0,0.0,0.0,0.0,0.0,0.0,0.0,0.0,-1.4962,-1.5025,-1.5177,-1.5202,-1.5009,0.0,0.0,0.0,0.0,0.0,0.0,0.0,0.0,0.0,-1.1993,-1.2525,-1.3064,-1.3492,-1.2391,-1.2536,-1.4029,-1.2994,-1.3214,-1.4508,-1.4629,-1.5048,-1.5823,-1.5942,-1.6001,-1.6016,-1.5818,-1.5828,-1.6098,0.0,0.0,0.0,0.0,-1.7479,-1.7981,-1.7303,-1.7456,-1.7903,-1.7903,0.0,0.0,0.0,0.0,0.0,0.0,0.0,-1.8036,-1.8637,-1.8905,-1.9105,-1.9399,-1.9573,-1.9653,-1.9653,-1.9559,-1.9279,-1.8608,-1.8517,-1.8504,-1.8517,-1.8784,0.0,0.0,0.0,-2.0013,-2.0481,-2.0869,-2.1243,-2.1563,-2.183,-2.1991,-2.1991,-2.1991,-2.1687,-2.0837,-2.0618,-2.0144,-1.9174,-1.8901,-1.8553,0.0,0.0,0.0,0.0,0.0,0.0,0.0,0.0,0.0,0.0,0.0,0.0,0.0,0.0,0.0,0.0,0.0,0.0,0.0,0.0,0.0,0.0,0.0,0.0,0.0,0.0,0.0,0.0,-1.4497,-1.4461,-1.4666,-1.4491,-1.4109,0.0,0.0,0.0,0.0,0.0,0.0,-1.3027,-1.2976,-1.258,-1.1981,-1.2114,-1.2425,-1.2748,-1.236,-1.2839,-1.4133,-1.3789,-1.435,-1.5645,-1.5824,-1.6455,-1.738,-1.8055,-1.8484,-1.8666,-1.6985,-1.6609,-1.724,-1.8464,-1.8761,-1.835,-1.7767,-1.8122,-1.8818,-1.7824,-1.8128,-1.8824,-1.8824,-1.8624,-1.8384,-1.837,0.0,0.0,0.0,0.0,-1.8945,-1.9452,-1.9746,-1.9987,-2.0281,-2.0294,-2.0193,-2.0334,-2.0347,-2.0134,-1.9399,-1.9078,-1.9011,-1.9225,-1.9439,0.0,-1.9973,-2.0267,-2.0641,-2.1162,-2.1349,-2.1617,-2.2044,-2.2164,-2.2205,-2.2205,-2.2205,-2.1912,-2.1114,-2.0844,-2.0276,-1.9354,-1.9267,-1.89,-1.8252,0.0,0.0,0.0,0.0,0.0,0.0,0.0,0.0,0.0,0.0,0.0,0.0,0.0,0.0,0.0,0.0,0.0,0.0,0.0,0.0,0.0,0.0,0.0,0.0,0.0,0.0,0.0,0.0,0.0,-1.458,-1.3892,0.0,0.0,0.0,0.0,-1.3341,-1.1747,-1.1278,-1.2506,-1.1759,-1.1298,-1.1249,-1.1437,-1.1676,-1.1864,-1.3238,-1.4708,-1.6143,-1.7407,-1.8655,-1.9898,-1.9911,-1.9924,-1.9924,-1.8802,-1.8985,-2.0106,-1.9979,-1.9274,-1.8337,-1.965,-1.9395,-1.8471,-1.959,-2.0087,-2.0087,-2.0026,-1.99,-1.9733,-1.9733,-1.9533,-1.9305,-1.935,-1.935,0.0,0.0,-1.972,-1.98,-2.0107,-2.0201,-2.0281,-2.0588,-2.0441,-2.0307,-2.0588,-2.0655,-2.0561,-2.0227,-2.01,-2.0147,-2.01,0.0,-2.0294,-2.0588,-2.0882,-2.1176,-2.1561,-2.2004,-2.2365,-2.2392,-2.2645,-2.2819,-2.2819,-2.2819,-2.2427,-2.142,-2.1382,-2.0919,-1.9923,-1.9645,-1.9354,-1.9024,-1.8821,0.0,0.0,0.0,0.0,0.0,0.0,0.0,0.0,0.0,0.0,0.0,0.0,0.0,0.0,0.0,0.0,0.0,0.0,0.0,0.0,0.0,0.0,0.0,0.0,0.0,0.0,0.0,0.0,-1.3934,-1.3268,0.0,-1.2876,-1.2686,-1.2413,-1.2042,-1.1391,-1.1232,-1.1631,-1.1586,-1.1581,-1.1581,-1.276,-1.3812,-1.4676,-1.538,-1.6471,-1.7746,-1.753,-1.8116,-1.945,-1.945,-1.9901,-2.0726,-2.0276,-2.0352,-2.0802,-2.0802,-2.0253,-1.9546,-2.0045,-1.9924,-1.9485,-1.9107,-1.9485,-2.0106,-1.9229,-1.9481,-2.008,-2.008,-2.0013,-1.992,-1.992,-1.992,-1.9947,-2.0054,-2.0214,-2.0388,-2.0494,-2.0655,-2.0828,-2.0922,-2.0869,-2.0828,-2.0935,-2.0949,-2.0922,-2.0815,-2.0802,-2.0802,-2.0802,-2.0949,-2.1056,-2.0962,-2.1363,-2.1643,-2.1628,-2.2058,-2.2418,-2.2418,-2.2686,-2.2928,-2.2928,-2.2654,-2.2271,-2.1688,-2.1414,-2.0947,-2.0214,-2.0038,-1.9784,-1.9403,-1.9229,-1.8879,0.0,0.0,0.0,0.0,0.0,0.0,0.0,0.0,0.0,0.0,0.0,0.0,0.0,0.0,0.0,0.0,0.0,0.0,0.0,0.0,0.0,0.0,0.0,0.0,0.0,-1.2812,-1.2226,-1.3095,-1.2455,-1.208,-1.2158,-1.2284,-1.213,-1.1461,-1.1411,-1.1459,-1.1581,-1.1825,-1.22,-1.2681,-1.3849,-1.5074,-1.6439,-1.7119,-1.7874,-1.8719,-1.8505,-1.8844,-1.9686,-1.9686,-2.0195,-2.1109,-2.1109,-2.1109,-2.1109,-2.1109,-2.0935,-2.0668,-2.0575,-2.0521,-2.0398,-1.957,-1.9769,-2.0398,-1.9509,-1.9769,-2.0521,-2.0521,-2.0521,-2.0521,-2.0521,-2.0521,-2.0521,-2.0521,-2.0668,-2.0815,-2.0815,-2.0962,-2.1136,-2.1229,-2.1189,-2.1162,-2.1363,-2.1403,-2.1456,-2.1657,-2.1456,-2.1256,-2.1256,-2.151,-2.167,-2.1563,-2.1884,-2.2138,-2.2151,-2.2485,-2.2766,-2.2859,-2.3046,-2.3166,-2.3166,-2.2958,-2.261,-2.2122,-2.1842,-2.1348,-2.0759,-2.0593,-2.0327,-1.9881,-1.9669,-1.9338,-1.9084,0.0,0.0,0.0,0.0,0.0,0.0,0.0,0.0,0.0,0.0,0.0,0.0,0.0,0.0,0.0,0.0,0.0,0.0,0.0,0.0,0.0,0.0,0.0,-1.3131,-1.265,-1.2164,-1.2173,-1.1577,-1.1232,-1.124,-1.124,-1.1403,-1.1768,-1.1792,-1.1947,-1.2288,-1.2375,-1.2998,-1.4307,-1.4623,-1.5356,-1.6688,-1.8267,-1.91,-1.91,-2.0462,-2.1109,-2.1109,-2.1122,-2.1122,-2.1122,-2.1136,-2.1136,-2.1136,-2.1136,-2.1309,-2.1601,-2.1243,-2.1122,-2.1136,-2.1136,-2.1136,-2.1136,-2.1136,-2.1136,-2.1136,-2.1136,-2.1136,-2.1136,-2.1136,-2.1136,-2.1136,-2.1136,-2.1136,-2.1136,-2.1136,-2.1136,-2.1216,-2.1574,-2.1363,-2.1309,-2.1884,-2.2017,-2.2178,-2.282,-2.2244,-2.1681,-2.1681,-2.1857,-2.2138,-2.2405,-2.2458,0.0,-2.3233,-2.3327,-2.3447,-2.3728,-2.3768,-2.3768,-2.3768,-2.3768,-2.3411,-2.2624,-2.2553,-2.2266,-2.1546,-2.1221,-2.1013,-2.0759,-1.9972,-1.9693,-1.996,0.0,0.0,0.0,0.0,0.0,0.0,0.0,0.0,0.0,0.0,0.0,0.0,0.0,0.0,0.0,0.0,0.0,0.0,0.0,0.0,0.0,-1.3006,-1.2215,-1.2471,-1.1836,-1.138,-1.145,-1.1454,-1.1476,-1.1614,-1.1736,-1.1906,-1.2142,-1.2158,-1.2207,-1.2304,-1.3363,-1.3688,-1.3123,-1.6179,-1.7513,-1.6936,-1.9318,-2.0526,-2.0526,-2.0919,-2.1109,-2.1122,-2.1336,-2.143,-2.1443,-2.1657,-2.175,-2.175,-2.175,-2.179,-2.1844,-2.155,-2.1563,-2.175,-2.175,-2.175,-2.175,-2.175,-2.175,-2.175,-2.175,-2.175,-2.175,-2.175,-2.175,-2.175,-2.175,-2.175,-2.175,-2.175,-2.175,-2.1817,-2.2111,-2.2111,-2.2164,-2.2539,-2.2619,-2.2672,-2.2901,-2.2846,-2.2913,-2.3126,-2.3233,-2.3233,-2.31,-2.326,-2.33,-2.302,-2.338,-2.3594,-2.346,-2.3647,-2.3768,-2.3768,-2.3268,-2.2839,-2.2624,-2.2122,-2.169,-2.1486,-2.1402,-2.1233,-2.1026,-2.0545,-2.0811,0.0,0.0,0.0,0.0,0.0,0.0,0.0,0.0,0.0,0.0,0.0,0.0,0.0,0.0,0.0,0.0,0.0,0.0,0.0,0.0,0.0,0.0,-1.2404,-1.1863,-1.203,-1.1568,-1.1256,-1.1435,-1.1614,-1.1792,-1.1979,-1.2085,-1.2223,-1.2402,-1.2418,-1.245,-1.2523,-1.3388,-1.4023,-1.441,-1.684,-1.8332,-1.8716,-2.0335,-2.1176,-2.1296,-2.1296,-2.1363,-2.1483,-2.1657,-2.1802,-2.1815,-2.1911,-2.1991,-2.1977,-2.1857,-2.1884,-2.1964,0.0,0.0,0.0,0.0,-2.1884,-2.1964,-2.1844,-2.1884,-2.1991,-2.1991,-2.1991,-2.1991,-2.1991,-2.1991,-2.1991,-2.1991,-2.1991,-2.2017,-2.2138,-2.2164,-2.2245,-2.2539,-2.2605,-2.2686,-2.2993,-2.306,-2.3126,-2.338,-2.3567,0.0,-2.4088,-2.3928,-2.3714,-2.3541,-2.3661,-2.3688,-2.346,-2.3728,-2.3928,-2.3875,-2.4035,-2.4056,-2.3911,-2.3476,0.0,0.0,0.0,-2.1983,-2.1643,-2.1643,0.0,0.0,0.0,-2.134,-2.2,-2.2677,0.0,0.0,-2.3165,-2.3785,0.0,0.0,0.0,0.0,0.0,0.0,0.0,0.0,0.0,0.0,0.0,0.0,0.0,0.0,0.0,0.0,-1.179,-1.1403,-1.1752,-1.1679,-1.1654,-1.1817,-1.1971,-1.2134,-1.232,-1.2337,-1.241,-1.258,-1.2596,-1.2661,-1.2766,-1.3095,0.0,0.0,0.0,-1.86,-2.0895,-2.1099,-2.1309,-2.1668,-2.1668,-2.1802,-2.1991,-2.1991,-2.1991,-2.1991,-2.1991,-2.1991,-2.1964,-2.171,-2.1856,-2.2071,-2.2017,-2.2004,-2.2004,-2.1815,-2.183,-2.2044,-2.1856,0.0,0.0,-2.2084,-2.2084,-2.2084,-2.2084,-2.2084,-2.2084,-2.2084,-2.2111,-2.2191,-2.2458,-2.2552,-2.2645,-2.2939,-2.3088,-2.3086,-2.3367,-2.3447,-2.3621,-2.4102,-2.4222,-2.4329,-2.4596,-2.4209,-2.3875,-2.3875,-2.3875,-2.3968,-2.4222,-2.4249,-2.4356,-2.4609,-2.4636,0.0,-2.4044,-2.397,-2.3674,-2.293,-2.2856,-2.267,-2.2215,-2.2203,-2.2153,-2.21,-2.2087,-2.2147,-2.2253,-2.3683,-2.4394,-2.4366,-2.6041,-2.6455,0.0,0.0,0.0,0.0,0.0,0.0,0.0,0.0,0.0,0.0,0.0,0.0,0.0,0.0,0.0,-1.4375,-1.2922,-1.1744,-1.1955,-1.2077,-1.2166,-1.2199,-1.2231,-1.232,-1.2499,-1.2515,-1.2588,-1.2767,-1.2783,-1.28,-1.2766,-1.4968,-1.5944,-1.5294,-1.8588,-2.0183,-1.9816,-2.0941,-2.1617,-2.1897,-2.1897,0.0,-2.1991,-2.1991,-2.1991,-2.1991,-2.1991,-2.1991,-2.1977,-2.1924,-2.2218,-2.2645,-2.2178,-2.2124,-2.2325,-2.2271,-2.2445,-2.2753,-2.27,-2.2645,-2.2767,-2.2767,-2.2767,-2.2767,-2.2767,-2.2767,0.0,-2.2767,-2.2873,-2.3086,-2.314,-2.3327,-2.3581,-2.3875,-2.3941,-2.3955,-2.4022,-2.4222,-2.4342,-2.4222,-2.4396,-2.4569,-2.4623,-2.4543,-2.4476,-2.4476,-2.4476,-2.4489,-2.4543,-2.4556,-2.4569,-2.4549,-2.4636,-2.4414,-2.4044,-2.3674,-2.3377,-2.293,-2.2632,-2.2893,-2.4014,-2.4088,-2.4515,-2.5498,-2.557,-2.601,-2.7007,-2.7562,-2.7841,-2.7826,-2.7915,-2.7895,0.0,0.0,0.0,0.0,0.0,0.0,0.0,0.0,0.0,0.0,0.0,-1.6169,-1.5799,0.0,-1.379,-1.3485,-1.2647,-1.2349,-1.3197,-1.3374,-1.319,-1.2498,-1.2434,-1.2507,-1.2686,-1.2702,-1.2735,-1.2766,-1.2774,-1.3095,-1.3809,-1.5163,-1.6319,-1.7217,-1.9241,-2.0412,-2.0757,-2.1437,-2.1911,-2.2205,-2.2058,-2.2058,-2.2205,-2.2044,-2.2151,-2.2418,-2.2418,-2.2592,-2.2873,-2.2726,-2.2739,-2.2901,-2.2539,-2.2699,-2.3073,-2.2926,-2.306,-2.337,-2.3153,-2.3193,-2.3313,-2.3313,-2.322,-2.31,-2.31,-2.2993,-2.2928,-2.2928,-2.2979,-2.3126,-2.3287,-2.3434,-2.3621,-2.3915,-2.4102,-2.4209,-2.4209,-2.4436,-2.4596,-2.4449,-2.4663,-2.4863,-2.4863,-2.4983,-2.497,-2.4676,-2.4636,-2.4636,-2.4636,-2.4636,-2.4636,-2.4636,-2.4636,-2.4697,-2.4904,-2.5261,-2.5417,-2.5195,-2.5167,-2.5473,-2.628,-2.628,-2.6581,-2.7232,-2.7218,-2.7582,-2.8141,-2.9136,-2.9592,-2.9649,-3.0206,-3.0026,0.0,0.0,0.0,0.0,0.0,0.0,0.0,-1.7353,-1.7042,-1.6624,-1.6448,-1.6016,-1.4955,-1.4565,-1.4038,-1.302,-1.2826,-1.3156,-1.4435,-1.4619,-1.4143,-1.2807,-1.2872,-1.2994,-1.2824,-1.2774,-1.2774,-1.2774,-1.303,-1.3547,-1.4455,-1.5332,-1.6804,-1.9031,-1.9679,-2.0638,-2.2071,-2.2071,-2.2218,-2.2498,-2.2271,-2.2311,-2.2592,-2.2285,-2.2445,-2.2953,-2.2886,-2.3209,-2.3581,-2.334,-2.3153,-2.3046,-2.3046,-2.3407,-2.3888,-2.3474,-2.3514,-2.3741,-2.35,-2.3567,-2.3768,-2.3768,-2.3607,-2.3407,-2.3407,-2.3233,-2.3046,-2.3046,-2.3086,-2.318,-2.3434,-2.3541,-2.3661,-2.3955,-2.4209,-2.4369,-2.4369,-2.4596,-2.4783,-2.473,-2.4957,-2.5157,-2.5157,-2.5358,-2.5358,-2.4877,-2.481,-2.481,-2.481,-2.481,-2.481,-2.481,-2.5019,-2.545,-2.6308,-2.7127,-2.757,-2.757,-2.7879,-2.8162,-2.8462,-2.8462,-2.8612,-2.8911,-2.8911,-2.8911,-2.8911,-3.0272,-3.093,-3.1005,-3.2271,-3.207,-1.8086,-1.7875,-1.7654,-1.8513,-1.7753,-1.7003,0.0,-1.7121,-1.6327,-1.6351,-1.5081,-1.4469,-1.5965,-1.4253,-1.3483,-1.6266,-1.5345,-1.4371,-1.4581,-1.4752,-1.4353,-1.2939,-1.3905,-1.4175,-1.2898,-1.2774,-1.2774,-1.2774,-1.394,-1.4193,-1.3095,-1.6847,-1.8549,-1.7653,-2.0257,-2.1939,-2.2365,-2.2378,-2.2525,-2.2806,-2.2779,-2.2926,-2.322,-2.2913,-2.2953,-2.326,-2.2979,-2.2968,-2.3035,-2.2926,-2.322,-2.3674,-2.3674,-2.4022,-2.4436,-2.3621,-2.3514,-2.3768,-2.3728,-2.3741,-2.3768,-2.3768,-2.3754,-2.3728,-2.3728,-2.3701,-2.3674,-2.3674,-2.3848,-2.4062,-2.4102,-2.4302,-2.4569,-2.4863,-2.4957,-2.4983,-2.4983,-2.5211,-2.5344,-2.5077,-2.5264,-2.5464,-2.5464,-2.5491,-2.5491,-2.5424,-2.5411,-2.5411,-2.5411,-2.5411,-2.5411,-2.5411,-2.6385,-2.7427,-2.8223,-2.8088,-2.7968,-2.7968,-2.7997,-2.8612,-3.006,-3.0134,-3.0817,-3.216,-3.216,-3.216,-3.216,-3.2736,-3.298,-3.298,-3.3471,-3.3248,-1.7591,-1.8015,-1.8485,-1.8382,-1.8537,-1.8564,-1.8071,-1.7654,-1.7189,-1.6283,-1.5643,-1.5278,-1.5695,-1.5276,-1.5163,-1.6181,-1.5469,-1.5029,-1.5866,-1.5365,-1.4651,-1.4071,-1.452,-1.4324,-1.2964,-1.2774,-1.2774,-1.2774,-1.3451,-1.4298,-1.5412,-1.7344,-1.9006,-2.0293,-2.1566,-2.2378,-2.2672,-2.2672,-2.2832,-2.3126,-2.2953,-2.3033,-2.3313,-2.3006,-2.3126,-2.3594,-2.3808,-2.3888,-2.3888,-2.3888,-2.4048,-2.4275,-2.4275,-2.4422,-2.4596,-2.4222,-2.4168,-2.4275,-2.4275,-2.4275,-2.4275,-2.4275,-2.4155,-2.4022,-2.4022,-2.3901,-2.3768,-2.3768,-2.3861,-2.3955,-2.3955,-2.4168,-2.4422,-2.4543,-2.4836,-2.5077,-2.5077,-2.5304,-2.5478,-2.5358,-2.5571,-2.5772,-2.5772,-2.5919,-2.6026,-2.6026,-2.5732,-2.5518,-2.5518,-2.5518,-2.581,-2.6558,-2.8582,-2.9927,-3.0001,-3.0697,-3.1108,-3.1108,-3.1243,-3.1674,-3.2367,-3.2367,-3.2667,-3.3357,-3.3357,-3.3357,-3.3357,-3.3511,-3.3597,-3.3614,-3.3768,-3.3665,-1.7787,-1.8363,-1.8998,-1.8699,-1.8973,-1.9151,-1.856,-1.8085,-1.7565,-1.6971,-1.6658,-1.6523,-1.6512,-1.6571,-1.653,-1.6467,-1.5713,-1.5489,-1.6333,-1.5879,-1.5359,-1.4977,-1.4912,-1.4539,-1.3558,-1.3062,-1.279,-1.2905,-1.3753,-1.5043,-1.6824,-1.8262,-1.9891,-2.18,-2.2296,-2.2686,-2.2993,-2.2993,-2.314,-2.3447,-2.322,-2.3273,-2.3567,-2.342,-2.3594,-2.4035,-2.4449,-2.4636,-2.4636,-2.4636,-2.4636,-2.4636,-2.4636,-2.4636,-2.4636,-2.4636,-2.4636,-2.4636,-2.4636,-2.4636,-2.4636,-2.4636,-2.4489,-2.4329,-2.4329,-2.4168,-2.4008,-2.4008,-2.4075,-2.4128,-2.4128,-2.4342,-2.4583,-2.4663,-2.501,-2.5344,-2.5424,-2.5611,-2.5758,-2.5758,-2.5932,-2.6079,-2.6079,-2.6632,-2.7083,-2.7083,-2.7087,-2.6962,-2.6501,-2.6808,-2.7559,-2.87,-3.066,-3.187,-3.1812,-3.2808,-3.3426,-3.3426,-3.3683,-3.3761,-3.3761,-3.3761,-3.3761,-3.3761,-3.3761,-3.3761,-3.3761,-3.3761,-3.3761,-3.3761,-3.3761,-3.3761,-1.9155,-1.8897,-1.8765,-1.9849,-1.8582,-1.756,-1.9261,-1.7925,-1.6909,-1.8741,-1.801,-1.7622,-1.9275,-1.7891,-1.6883,-1.8244,-1.6958,-1.5684,-1.5043,-1.6073,-1.6462,-1.5033,-1.4912,-1.4988,-1.511,-1.3716,-1.2905,-1.3076,-1.567,-1.6834,-1.5721,-1.9872,-2.1719,-2.0502,-2.2073,-2.2993,-2.3313,-2.3313,-2.346,-2.3754,-2.3754,-2.3901,-2.4182,-2.4462,-2.4596,-2.4609,-2.4549,-2.4636,-2.4636,-2.4636,-2.4636,-2.4636,-2.4636,-2.4636,-2.4636,-2.4636,-2.4636,-2.4636,-2.4636,-2.4636,-2.4636,-2.4636,-2.4549,-2.4623,-2.4623,-2.4549,-2.4609,-2.4609,-2.4823,-2.5037,-2.5037,-2.5251,-2.5545,-2.5838,-2.5996,-2.6012,-2.6293,-2.636,-2.636,-2.636,-2.6373,-2.6373,-2.6373,-2.7776,-2.8856,-2.8856,-3.013,-3.0577,-2.8983,-3.013,-3.1421,-3.2369,-3.2522,-3.2842,-3.3651,-3.3744,-3.3744,-3.3744,-3.3761,-3.3761,-3.3761,-3.3761,-3.3761,-3.3761,-3.3761,-3.3761,-3.3761,-3.3761,-3.3761,-3.3761,-3.3761,-3.3761,-1.8858,-1.9379,-1.9792,-1.9185,-1.9564,-2.0028,-1.9698,-1.9566,-1.951,-1.9763,-1.9424,-1.9296,-1.9878,-1.8784,-1.7988,-1.8448,-1.742,-1.6527,-1.6333,-1.5879,-1.5482,-1.5158,-1.4259,-1.3804,-1.4002,-1.3377,-1.3478,-1.4679,-1.5749,-1.7083,-1.8733,-2.0352,-2.147,-2.2017,-2.2799,-2.322,-2.3327,-2.3527,-2.3768,-2.4062,-2.4249,-2.4396,-2.4489,-2.4596,-2.4636,-2.4636,-2.4636,-2.4743,-2.493,-2.493,-2.505,-2.5211,-2.5211,-2.5211,-2.5211,-2.5211,-2.5211,-2.5157,-2.477,-2.4636,-2.4636,-2.4636,-2.4636,-2.4636,-2.4636,-2.4636,-2.4676,-2.4877,-2.4997,-2.5117,-2.5317,-2.5585,-2.5825,-2.5932,-2.6106,-2.6266,-2.6373,-2.6386,-2.6386,-2.6386,-2.7319,-2.809,-2.809,-2.9386,-3.0839,-3.1988,-3.1683,-3.1069,-3.0531,-3.1912,-3.2842,-3.2631,-3.3558,-3.4105,-3.3837,-3.3761,-3.3761,-3.3761,-3.3761,-3.3761,-3.3761,-3.3761,-3.3761,-3.3761,-3.3761,-3.3761,-3.3761,-3.3761,-3.3761,-3.3761,-3.3761,-3.3761,-1.9311,-2.0084,-2.0686,-1.9819,-2.051,-2.1226,-2.0315,-2.0424,-2.0743,-2.0676,-2.0652,-2.0779,-2.1082,-2.0309,-1.9534,-1.9267,-1.8384,-1.7431,-1.6517,-1.6135,-1.5722,-1.5262,-1.4946,-1.4805,-1.5005,-1.4905,-1.5091,-1.5699,-1.6854,-1.8411,-2.0364,-2.1096,-2.1936,-2.302,-2.322,-2.3434,-2.3634,-2.3834,-2.4075,-2.4369,-2.4543,-2.4636,-2.4636,-2.4636,-2.469,-2.4796,-2.4796,-2.497,-2.5237,-2.5237,-2.5344,-2.5518,-2.5518,-2.5518,-2.5518,-2.5518,-2.5518,-2.5451,-2.5077,-2.4943,-2.4943,-2.4943,-2.4943,-2.4943,-2.4943,-2.4943,-2.4997,-2.5184,-2.5317,-2.5438,-2.5625,-2.5892,-2.6106,-2.6106,-2.6253,-2.6386,-2.6386,-2.6386,-2.636,-2.6253,-2.7153,-2.7968,-2.8457,-3.0327,-3.2309,-3.397,-3.3283,-3.2693,-3.3037,-3.3827,-3.4221,-3.3541,-3.4255,-3.4499,-3.3837,-3.3761,-3.3761,-3.3761,-3.3761,-3.3761,-3.3761,-3.3761,-3.3761,-3.3761,-3.3761,-3.3761,-3.3761,-3.3761,-3.3761,-3.3761,-3.3974,-3.4025,-2.0574,-2.0984,-2.132,-2.1598,-2.1403,-2.1163,-2.1115,-2.0645,-2.0526,-2.1475,-2.1677,-2.1978,-2.2918,-2.223,-2.1285,-2.055,-1.9598,-1.8075,-1.5814,-1.6781,-1.7126,-1.5633,-1.6835,-1.7798,-1.7887,-1.8125,-1.7644,-1.6263,-1.8799,-2.05,-2.0686,-2.2104,-2.302,-2.3313,-2.3354,-2.3634,-2.4195,-2.4222,-2.4369,-2.4636,-2.4636,-2.4636,-2.4636,-2.4649,-2.481,-2.5077,-2.509,-2.5264,-2.5531,-2.5531,-2.5545,-2.5558,-2.5558,-2.5558,-2.5558,-2.5558,-2.5558,-2.5558,-2.5558,-2.5545,-2.5518,-2.5518,-2.5518,-2.5518,-2.5518,-2.5518,-2.5518,-2.5531,-2.5732,-2.6037,-2.6037,-2.6159,-2.636,-2.6346,-2.6346,-2.6346,-2.6346,-2.6346,-2.6266,-2.6141,-2.6243,-2.6752,-2.7949,-3.0727,-3.3256,-3.4739,-3.5027,-3.5302,-3.6054,-3.5774,-3.5402,-3.4971,-3.4614,-3.4197,-3.3837,-3.3761,-3.3761,-3.3761,-3.3761,-3.3761,-3.3761,-3.3761,-3.3761,-3.3761,-3.3761,-3.3778,-3.3795,-3.3795,-3.3795,-3.3905,-3.4265,-3.4419,-2.0969,-2.132,-2.1525,-2.1292,-2.1713,-2.2067,-2.1562,-2.1923,-2.2418,-2.2668,-2.2731,-2.2793,-2.3043,-2.165,-2.0106,-1.8872,-1.7999,-1.7357,-1.6944,-1.7215,-1.7851,-1.8834,-1.8393,-1.8046,-1.8272,-1.9277,-1.983,-1.9415,-2.0107,-2.1039,-2.2229,-2.2865,-2.3247,-2.3327,-2.3754,-2.4048,-2.4209,-2.4422,-2.4569,-2.4636,-2.4636,-2.4636,-2.4649,-2.4863,-2.501,-2.509,-2.5304,-2.5571,-2.5838,-2.5838,-2.5972,-2.6172,-2.6172,-2.6172,-2.6172,-2.6172,-2.6172,-2.6172,-2.6172,-2.5879,-2.5518,-2.5518,-2.5518,-2.5518,-2.5518,-2.5518,-2.5558,-2.5785,-2.5892,-2.6037,-2.6037,-2.609,-2.6012,-2.5785,-2.5732,-2.5732,-2.5732,-2.5732,-2.6013,-2.714,-2.9288,-3.1433,-3.2891,-3.3836,-3.4523,-3.4955,-3.5027,-3.51,-3.5302,-3.503,-3.4701,-3.4546,-3.4228,-3.3978,-3.382,-3.3761,-3.3761,-3.3761,-3.3761,-3.3761,-3.3761,-3.3761,-3.3761,-3.3761,-3.3761,-3.3974,-3.4248,-3.4248,-3.4402,-3.4693,-3.4779,-3.483,-2.1335,-2.1759,-2.2064,-2.1803,-2.2295,-2.2701,-2.2313,-2.2668,-2.3106,-2.3106,-2.3106,-2.3106,-2.3106,-2.1839,-2.0373,-1.9331,-1.896,-1.8553,-1.7752,-1.8204,-1.8829,-1.9232,-1.9233,-1.922,-1.9356,-2.0698,-2.1609,-2.1609,-2.1609,-2.2005,-2.299,-2.3233,-2.3447,-2.3701,-2.4035,-2.4262,-2.4396,-2.4556,-2.4636,-2.4636,-2.4636,-2.4636,-2.4649,-2.4943,-2.5144,-2.5291,-2.5585,-2.5879,-2.6146,-2.6146,-2.6239,-2.6386,-2.6386,-2.6386,-2.6386,-2.6386,-2.6386,-2.6386,-2.6386,-2.6172,-2.5892,-2.5892,-2.5892,-2.5892,-2.5892,-2.5892,-2.5932,-2.6106,-2.6052,-2.6037,-2.6037,-2.5865,-2.5718,-2.5558,-2.5518,-2.5518,-2.5518,-2.6039,-2.697,-2.8372,-3.0503,-3.2374,-3.3322,-3.4052,-3.4495,-3.4495,-3.4495,-3.4424,-3.4283,-3.4234,-3.4233,-3.4173,-3.3678,-3.3465,-3.3563,-3.358,-3.3665,-3.3761,-3.3761,-3.3761,-3.3761,-3.3991,-3.4076,-3.4076,-3.4248,-3.4436,-3.4642,-3.4642,-3.4761,-3.4984,-3.5138,-3.5207,-2.1715,-2.2213,-2.2637,-2.2681,-2.2901,-2.3106,-2.3106,-2.3106,-2.3106,-2.3106,-2.3106,-2.3106,-2.3106,-2.2355,-2.1475,-2.0676,-2.0703,-2.0234,-1.8396,-1.9321,-1.9862,-1.8834,-1.9979,-2.0906,-2.0906,-2.2091,-2.2928,-2.2928,-2.2899,-2.3046,-2.3313,-2.3407,-2.3701,-2.4249,-2.4262,-2.4382,-2.4636,-2.4636,-2.4636,-2.4636,-2.4636,-2.4636,-2.4649,-2.4983,-2.5277,-2.5531,-2.5865,-2.6159,-2.6386,-2.6386,-2.6386,-2.6386,-2.6386,-2.6386,-2.6386,-2.6386,-2.6386,-2.6386,-2.6386,-2.6386,-2.6386,-2.6386,-2.6386,-2.6386,-2.6386,-2.6386,-2.6386,-2.6386,-2.6186,-2.6023,-2.5983,-2.5678,-2.5451,-2.5411,-2.5398,-2.5474,-2.5612,-2.7036,-2.8639,-2.9727,-3.0931,-3.1789,-3.1789,-3.2876,-3.3817,-3.3817,-3.3747,-3.3608,-3.3348,-3.3589,-3.3748,-3.3729,-3.3058,-3.2792,-3.3237,-3.3272,-3.3426,-3.382,-3.3888,-3.3905,-3.3905,-3.4265,-3.447,-3.447,-3.4796,-3.5001,-3.5052,-3.5052,-3.507,-3.5138,-3.5446,-3.5583,-2.2301,-2.2535,-2.2681,-2.2959,-2.3062,-2.3106,-2.3106,-2.3106,-2.3106,-2.3106,-2.3106,-2.3106,-2.3106,-2.2731,-2.1902,-2.0423,-1.9992,-1.9633,-1.9256,-1.9664,-2.0397,-2.1491,-2.2128,-2.2516,-2.2516,-2.2722,-2.2928,-2.2928,-2.31,-2.3273,-2.3327,-2.3781,-2.4209,-2.4556,-2.4556,-2.4583,-2.4636,-2.4636,-2.4636,-2.4636,-2.4636,-2.4636,-2.4649,-2.5197,-2.5464,-2.5545,-2.6079,-2.6346,-2.6386,-2.6386,-2.6386,-2.6386,-2.6386,-2.6386,-2.6386,-2.6386,-2.6386,-2.6386,-2.6386,-2.6386,-2.6386,-2.6386,-2.6386,-2.6386,-2.6386,-2.6386,-2.6386,-2.6386,-2.6186,-2.5905,-2.5651,-2.5371,-2.509,-2.485,-2.4783,-2.508,-2.6381,-2.8904,-3.0897,-3.1115,-3.2421,-3.3381,-3.3381,-3.359,-3.3817,-3.3817,-3.3539,-3.3348,-3.3348,-3.3036,-3.2897,-3.2911,-3.2515,-3.2518,-3.3203,-3.3272,-3.3426,-3.382,-3.4128,-3.4299,-3.4299,-3.4659,-3.4881,-3.4881,-3.4933,-3.5121,-3.5412,-3.5412,-3.5583,-3.5892,-3.596,-3.5994,-2.2491,-2.2754,-2.2915,-2.3062,-2.3106,-2.3106,-2.3106,-2.2974,-2.2857,-2.2857,-2.274,-2.2667,-2.2828,-2.23,-2.1472,-2.0524,-2.0182,-1.9978,-1.9788,-2.0454,-2.1342,-2.2311,-2.2686,-2.2928,-2.2928,-2.2928,-2.2928,-2.2928,-2.33,-2.3554,-2.3554,-2.4115,-2.4489,-2.4636,-2.4636,-2.4636,-2.4636,-2.4636,-2.4636,-2.4636,-2.4636,-2.4636,-2.4649,-2.5251,-2.5518,-2.5545,-2.6132,-2.6386,-2.6386,-2.6386,-2.6386,-2.6386,-2.6386,-2.6386,-2.6386,-2.6386,-2.6386,-2.6386,-2.6386,-2.6386,-2.6386,-2.6386,-2.6386,-2.6386,-2.6386,-2.6386,-2.6386,-2.6386,-2.6066,-2.5692,-2.5545,-2.5184,-2.481,-2.4676,-2.5212,-2.643,-2.8788,-3.0447,-3.1719,-3.2508,-3.3312,-3.3817,-3.3817,-3.3678,-3.3539,-3.3539,-3.3191,-3.2911,-3.2684,-3.2667,-3.2632,-3.2402,-3.2219,-3.2364,-3.2912,-3.334,-3.3717,-3.4094,-3.4487,-3.4693,-3.4693,-3.5052,-3.5258,-3.5258,-3.5446,-3.5635,-3.5806,-3.5806,-3.5909,-3.6097,-3.6097,-3.6097,-2.2623,-2.2915,-2.3106,-2.3106,-2.3106,-2.3091,-2.3018,-2.2798,-2.2608,-2.255,-2.2345,-2.2271,-2.2564,-2.1888,-2.1245,-2.1078,-2.0906,-2.0667,-2.0425,-2.1293,-2.2071,-2.2298,-2.2645,-2.2928,-2.2928,-2.2928,-2.2928,-2.2928,-2.342,-2.3821,-2.3955,-2.4382,-2.4636,-2.4636,-2.4636,-2.4636,-2.4636,-2.4636,-2.4636,-2.4636,-2.4636,-2.4636,-2.4649,-2.5184,-2.5451,-2.5545,-2.6066,-2.6333,-2.6386,-2.6386,-2.6386,-2.6386,-2.6386,-2.6386,-2.6386,-2.6386,-2.6386,-2.6386,-2.6386,-2.6346,-2.6293,-2.6293,-2.6333,-2.6386,-2.6386,-2.6346,-2.6293,-2.6293,-2.5879,-2.5424,-2.5424,-2.5248,-2.5212,-2.5492,-2.6794,-2.8588,-3.1014,-3.1789,-3.2368,-3.359,-3.3817,-3.3817,-3.3678,-3.3469,-3.3278,-3.3209,-3.2913,-3.2615,-3.2245,-3.2574,-3.2694,-3.2381,-3.2337,-3.2552,-3.3015,-3.3614,-3.4111,-3.4487,-3.4881,-3.5087,-3.5087,-3.5446,-3.5635,-3.5635,-3.5943,-3.6097,-3.6097,-3.6097,-3.6097,-3.6097,-3.5676,-3.5514,-2.2901,-2.3091,-2.3106,-2.3106,-2.3106,-2.3032,-2.274,-2.2637,-2.255,-2.2286,-2.2198,-2.2271,-2.2564,-2.2256,-2.211,-2.2361,-2.1915,-2.1488,-2.1452,-2.176,-2.1991,-2.2017,-2.2525,-2.2928,-2.2928,-2.2928,-2.2928,-2.2928,-2.342,-2.3995,-2.4529,-2.4609,-2.4636,-2.4636,-2.4636,-2.4636,-2.4636,-2.4636,-2.4636,-2.4636,-2.4636,-2.4636,-2.4649,-2.497,-2.5264,-2.5531,-2.5852,-2.6146,-2.6386,-2.6386,-2.6386,-2.6386,-2.6386,-2.6386,-2.6386,-2.6386,-2.6386,-2.6386,-2.6386,-2.6213,-2.6077,-2.6077,-2.6172,-2.6386,-2.6386,-2.6199,-2.6077,-2.6077,-2.5571,-2.5117,-2.5117,-2.5903,-2.7012,-2.8429,-2.9932,-3.1155,-3.1437,-3.2578,-3.359,-3.3747,-3.3817,-3.3678,-3.34,-3.3348,-3.3209,-3.2771,-3.272,-3.2663,-3.2646,-3.3016,-3.3226,-3.3192,-3.3209,-3.346,-3.4162,-3.4299,-3.4505,-3.4898,-3.5258,-3.5463,-3.5463,-3.584,-3.6046,-3.6046,-3.608,-3.6097,-3.6097,-3.6097,-3.6097,-3.6097,-3.4425,-3.3674,-2.2696,-2.2959,-2.3106,-2.3106,-2.2959,-2.2784,-2.2652,-2.233,-2.2081,-2.2169,-2.2023,-2.1919,-2.2045,-2.2065,-2.2176,-2.2305,-2.1929,-2.1677,-2.1853,-2.1842,-2.179,-2.1964,-2.2338,-2.2672,-2.2914,-2.2928,-2.3088,-2.338,-2.3634,-2.4022,-2.4609,-2.4636,-2.4636,-2.4636,-2.4636,-2.4636,-2.4636,-2.4636,-2.4636,-2.4636,-2.4636,-2.4636,-2.4649,-2.5117,-2.5411,-2.5545,-2.6012,-2.6279,-2.6386,-2.6386,-2.6386,-2.6386,-2.6386,-2.6386,-2.6373,-2.6199,-2.6132,-2.6106,-2.5919,-2.6389,-2.7044,-2.7044,-2.7802,-2.8286,-2.6393,-2.7066,-2.8247,-2.7335,-2.7473,-2.7851,-2.7851,-2.8109,-2.8644,-3.0217,-3.1067,-3.1719,-3.2666,-3.3381,-3.3747,-3.3539,-3.3469,-3.34,-3.2999,-3.2771,-3.2632,-3.2667,-3.2468,-3.2426,-3.265,-3.3209,-3.37,-3.3922,-3.3939,-3.4059,-3.4368,-3.4796,-3.5121,-3.5292,-3.5652,-3.5857,-3.5857,-3.6011,-3.6097,-3.6097,-3.6097,-3.6097,-3.6097,-3.6097,-3.5514,-3.4425,-3.3756,-3.2839,-2.2403,-2.2667,-2.2828,-2.2828,-2.2667,-2.2462,-2.2374,-2.2008,-2.1759,-2.1993,-2.1803,-2.1553,-2.1678,-2.1736,-2.1826,-2.2025,-2.1721,-2.1551,-2.1915,-2.1747,-2.1722,-2.1951,-2.2245,-2.2539,-2.2901,-2.2928,-2.3113,-2.3728,-2.3768,-2.4022,-2.4609,-2.4636,-2.4636,-2.4636,-2.4636,-2.4636,-2.4636,-2.4636,-2.4636,-2.4636,-2.4636,-2.4676,-2.4783,-2.5197,-2.5478,-2.5665,-2.6079,-2.6306,-2.6386,-2.6386,-2.6386,-2.6386,-2.6386,-2.6386,-2.636,-2.6066,-2.6256,-2.6589,-2.6287,-2.7169,-2.8342,-2.8342,-2.9307,-3.0038,-2.7389,-2.8193,-2.9754,-2.8641,-2.89,-2.9656,-3.009,-3.004,-3.0288,-3.1789,-3.2158,-3.2508,-3.359,-3.3747,-3.3608,-3.3348,-3.3209,-3.2981,-3.2561,-3.2351,-3.2313,-3.252,-3.2474,-3.2604,-3.2981,-3.37,-3.4316,-3.4676,-3.4813,-3.4898,-3.4898,-3.5378,-3.5686,-3.5686,-3.5943,-3.6097,-3.6097,-3.6097,-3.6097,-3.6097,-3.6097,-3.5838,-3.5271,-3.5271,-3.4343,-3.2592,-3.2098,-3.0925,-2.2096,-2.2198,-2.2198,-2.2198,-2.2198,-2.2096,-2.1774,-2.1701,-2.1701,-2.1701,-2.1466,-2.1317,-2.1618,-2.1371,-2.1211,-2.1656,-2.136,-2.1235,-2.1551,-2.1619,-2.1722,-2.1951,-2.2245,-2.2539,-2.2901,-2.2928,-2.3113,-2.3728,-2.3768,-2.4022,-2.4609,-2.4636,-2.4636,-2.4636,-2.4636,-2.4636,-2.4636,-2.4636,-2.4636,-2.4636,-2.4636,-2.4796,-2.5077,-2.5077,-2.5398,-2.6037,-2.6037,-2.6119,-2.6386,-2.6386,-2.6386,-2.6386,-2.6386,-2.6386,-2.636,-2.6066,-2.694,-2.81,-2.7856,-2.8639,-2.967,-2.967,-3.0513,-3.1155,-2.9647,-2.9384,-2.967,-2.967,-2.9488,-2.9576,-3.1084,-3.1508,-3.186,-3.3381,-3.3817,-3.3817,-3.3817,-3.3539,-3.3278,-3.3278,-3.2999,-3.2561,-3.2175,-3.2436,-3.2555,-3.2141,-3.2775,-3.3391,-3.3785,-3.4487,-3.5104,-3.5463,-3.584,-3.608,-3.608,-3.608,-3.608,-3.608,-3.6097,-3.6097,-3.6097,-3.6097,-3.6097,-3.6097,-3.6097,-3.5254,-3.3429,-3.3429,-3.251,-3.0759,-2.9007,-2.7181,-2.1818,-2.2008,-2.2184,-2.2184,-2.2023,-2.1818,-2.1715,-2.1701,-2.1701,-2.1727,-2.1651,-2.1441,-2.106,-2.108,-2.1156,-2.1011,-2.1037,-2.1235,-2.1551,-2.1619,-2.1722,-2.1951,-2.2418,-2.2846,-2.3153,-2.318,-2.342,-2.4022,-2.4062,-2.4235,-2.4609,-2.4636,-2.4636,-2.4636,-2.4636,-2.4636,-2.4636,-2.4636,-2.4636,-2.4562,-2.4836,-2.4983,-2.509,-2.5491,-2.5785,-2.605,-2.6159,-2.6306,-2.6386,-2.6386,-2.6386,-2.6386,-2.6386,-2.6881,-2.7579,-2.7344,-2.8056,-2.9202,-2.8862,-2.9689,-3.0969,-3.0969,-3.1893,-3.2945,-3.2508,-3.2386,-3.2474,-3.2474,-3.2404,-3.2438,-3.2945,-3.3085,-3.3242,-3.3659,-3.3817,-3.3747,-3.3469,-3.3348,-3.3121,-3.2614,-3.2403,-3.228,-3.2116,-3.2199,-3.2457,-3.2826,-3.334,-3.3785,-3.4162,-3.4864,-3.5378,-3.5498,-3.5857,-3.6097,-3.6097,-3.6097,-3.6097,-3.6097,-3.6097,-3.6097,-3.6097,-3.6097,-3.6097,-3.6097,-3.4848,-3.3935,-3.3429,-3.218,-3.0676,-2.8923,-2.7096,-2.5933,-2.1511,-2.1745,-2.1964,-2.1847,-2.1672,-2.1452,-2.1322,-2.1322,-2.135,-2.1372,-2.1251,-2.1026,-2.0607,-2.0828,-2.0883,-2.0584,-2.0846,-2.1212,-2.1574,-2.1622,-2.1802,-2.2258,-2.2645,-2.3033,-2.3447,-2.3487,-2.3688,-2.4168,-2.4209,-2.4329,-2.4623,-2.4529,-2.4476,-2.4476,-2.4583,-2.4636,-2.4636,-2.4636,-2.469,-2.481,-2.4997,-2.5197,-2.5424,-2.5862,-2.609,-2.6132,-2.6306,-2.6386,0.0,-2.6386,-2.6781,-2.7305,-2.7116,-2.7946,-2.9078,-2.8687,-2.9419,-3.0493,-3.0189,-3.1067,-3.2368,-3.2368,-3.3015,-3.3817,-3.3817,-3.3817,-3.3817,-3.3817,-3.3817,-3.3817,-3.3817,-3.3817,-3.3817,-3.3817,-3.3817,-3.3678,-3.3348,-3.3209,-3.2965,-3.2456,-3.219,-3.217,-3.2278,-3.2467,-3.2775,-3.3391,-3.3802,-3.4231,-3.4744,-3.5224,-3.5566,-3.5703,-3.5943,-3.6097,-3.6097,-3.6097,-3.6097,-3.6097,-3.6097,-3.6097,-3.6097,-3.6097,-3.5757,-3.5092,-3.3935,-3.2757,-3.1437,-2.9592,-2.8181,-2.7025,-2.5933,-2.5433,0.0,-2.1452,-2.1613,-2.1291,-2.1203,-2.1146,-2.0788,-2.073,0.0,-2.0794,-2.051,-2.0274,-2.0301,-2.0524,-2.0561,-2.0307,-2.0762,-2.1243,-2.1574,-2.1668,-2.2016,-2.2792,-2.2981,-2.3153,-2.3741,-2.3808,-2.3928,-2.4209,-2.4235,-2.4342,-2.4596,-2.4356,-2.4209,-2.4209,-2.4462,-2.4609,-2.4609,-2.4623,-2.4783,-2.5077,-2.5117,-2.5424,-2.6037,-2.605,-2.6132,-2.6386,-2.6386,-2.6386,-2.6386,-2.6517,-2.7435,-2.8783,-2.8461,-2.9306,-3.0707,-3.0128,-3.0815,-3.2059,-3.1769,-3.2578,-3.3817,-3.3817,-3.3817,-3.3817,-3.3817,-3.3817,-3.3817,-3.3817,-3.3817,-3.3817,-3.3853,-3.3853,-3.3853,-3.389,-3.382,-3.3769,-3.342,-3.3001,-3.2756,-3.268,-3.2391,-3.2296,-3.2655,-3.3032,-3.3409,-3.382,-3.4196,-3.4693,-3.5412,-3.5532,-3.5686,-3.6063,-3.6097,-3.6097,-3.6097,-3.6097,-3.6097,-3.6097,-3.6097,-3.6097,-3.6097,-3.6016,-3.5092,-3.3429,-3.3183,-3.1354,-2.7928,-2.6188,-2.5433,-2.5433,-2.5433,-2.5433,-2.1203,0.0,-2.1613,-2.1291,-2.1203,-2.1203,0.0,-2.109,-2.0985,-2.0763,-2.0496,-2.0283,-2.0214,-2.0301,-2.0388,-2.0548,-2.1069,-2.1534,-2.1601,-2.2191,-2.2726,-2.3166,-2.342,-2.3701,-2.4062,-2.4102,-2.4222,-2.4516,-2.4529,-2.4462,-2.4315,-2.4235,-2.4209,-2.4209,-2.4262,-2.4302,-2.4302,-2.4529,-2.4783,-2.509,-2.5531,-2.5825,-2.6037,-2.6186,-2.6319,-2.6386,-2.6386,-2.6386,-2.6452,-2.7367,-2.8028,-2.8461,-2.9335,-3.0457,-3.1661,-3.1548,-3.2258,-3.3368,-3.3278,-3.3521,-3.3817,-3.3817,-3.3817,-3.3817,-3.3817,-3.3817,-3.3817,-3.3817,-3.3817,-3.389,-3.4183,-3.4257,-3.4348,-3.466,-3.4448,-3.4162,-3.3822,-3.3462,-3.3046,-3.2753,-3.2625,-3.2672,-3.3066,-3.3203,-3.3494,-3.4162,-3.459,-3.5001,-3.5446,-3.5772,-3.5994,-3.608,-3.6097,-3.6097,-3.6097,-3.6097,-3.6097,-3.6097,-3.6097,-3.6097,-3.6097,-3.4767,-3.3838,-3.3429,-3.0759,-2.8265,-2.6018,-2.5604,-2.5433,-2.5433,-2.5433,-2.5433,-2.1203,-2.1452,-2.1613,-2.1291,-2.1203,-2.1146,-2.0859,-2.0801,-2.0639,-2.0172,-2.0105,-2.0091,-2.0,-2.0254,-2.0535,-2.0828,-2.132,-2.1708,-2.1911,-2.2539,-2.3033,-2.3474,-2.3674,-2.3941,-2.4369,-2.4396,-2.4462,-2.4623,-2.4636,-2.4569,-2.4409,-2.4275,-2.4209,-2.4209,-2.4075,-2.4128,-2.4396,-2.4556,-2.4783,-2.5077,-2.5398,-2.5625,-2.5836,-2.6818,-2.7332,-2.7346,-2.8253,-2.8535,-2.839,-2.9045,-2.9715,-3.0297,-3.0762,-3.1828,-3.3073,-3.2897,-3.3212,-3.3817,-3.3817,-3.3817,-3.3817,-3.3817,-3.3817,-3.3817,-3.3817,-3.3945,-3.4073,-3.4073,-3.4073,-3.4183,-3.4587,-3.4697,-3.4752,-3.4972,-3.4667,-3.4306,-3.3962,-3.3599,-3.3214,-3.3003,-3.2946,-3.3083,-3.346,-3.3665,-3.3974,-3.4573,-3.4984,-3.5361,-3.572,-3.596,-3.6097,-3.6097,-3.6097,-3.6097,-3.6097,-3.5352,-3.5254,-3.6016,-3.6097,-3.5757,-3.4929,-3.3935,-3.2592,-3.1008,-2.8265,-2.6346,-2.5433,-2.5433,-2.5433,-2.5433,-2.5433,-2.5433,-2.1203,-2.1408,-2.1554,-2.1276,-2.1146,-2.0974,-2.05,-2.0312,-2.0167,-1.9658,-1.9725,-1.988,-1.992,-2.0374,-2.0842,-2.1122,-2.1456,-2.1871,-2.2405,-2.2779,-2.3263,-2.3714,-2.3848,-2.4102,-2.4596,-2.4636,-2.4636,-2.4636,-2.4636,-2.4549,-2.4569,-2.4342,-2.4209,-2.4209,-2.3968,-2.4233,-2.4918,-2.471,-2.4783,-2.5077,-2.5117,-2.5429,-2.59,-2.7573,-2.8453,-2.8758,-3.0405,-3.0906,-3.0636,-3.0798,-3.1499,-3.2462,-3.2357,-3.3074,-3.4275,-3.3945,-3.3817,-3.3817,-3.3817,-3.3817,-3.3817,-3.3817,-3.3817,-3.3817,-3.3817,-3.4092,-3.4422,-3.4477,-3.4495,-3.4587,-3.5009,-3.5119,-3.5065,-3.512,-3.4776,-3.4413,-3.4067,-3.3702,-3.3349,-3.338,-3.3357,-3.3477,-3.3854,-3.4179,-3.4539,-3.4984,-3.5309,-3.5652,-3.6046,-3.6097,-3.6097,-3.6097,-3.5838,-3.5676,-3.5676,-3.4017,-3.3674,-3.5173,-3.5254,-3.4506,-3.2674,-3.2592,-3.1008,-2.7759,-2.6188,-2.5433,-2.5433,-2.5433,-2.5433,-2.5433,-2.5433,-2.5433,-2.1203,-2.1247,-2.1276,-2.1218,-2.096,-2.0773,-2.0658,-2.0466,-2.0264,-2.0205,-2.0139,-2.0241,-2.0494,-2.0815,-2.1136,-2.1443,-2.1937,-2.2405,-2.2752,-2.3273,-2.3661,-2.3754,-2.4209,-2.4543,-2.4549,-2.4636,-2.4636,-2.4636,-2.4636,-2.4529,-2.4289,-2.4222,-2.4209,-2.4209,-2.4155,-2.4943,-2.6502,-2.5286,-2.4783,-2.5077,-2.5331,-2.6136,-2.7453,-2.7723,-2.8567,-2.9841,-3.0112,-3.0261,-3.0272,-3.1364,-3.1921,-3.2196,-3.3125,-3.3681,-3.389,-3.3835,-3.3817,-3.3817,-3.3817,-3.3817,-3.3817,-3.3817,-3.3817,-3.3817,-3.3817,-3.4092,-3.4477,-3.4825,-3.4935,-3.5027,-3.543,-3.5522,-3.5541,-3.5501,-3.5202,-3.483,-3.4416,-3.4041,-3.3758,-3.3734,-3.3751,-3.3871,-3.4231,-3.435,-3.4624,-3.5326,-3.5481,-3.5652,-3.6046,-3.6097,-3.6097,-3.6097,-3.4767,-3.3838,-3.3838,-3.218,-3.1339,-3.1587,-3.1587,-3.0842,-2.9021,-2.8937,-2.7928,-2.5848,-2.5519,-2.5433,-2.5433,-2.5433,-2.5433,-2.5433,-2.5433,-2.5433,-2.1203,-2.1203,-2.1146,-2.096,-2.0788,-2.0701,-2.0699,-2.0517,-2.0315,-2.024,-2.0389,-2.0561,-2.0855,-2.1149,-2.1496,-2.1951,-2.2378,-2.2712,-2.2914,-2.338,-2.3768,-2.3768,-2.4289,-2.4636,-2.4636,-2.4636,-2.4636,-2.4636,-2.4636,-2.4583,-2.4449,-2.4436,-2.4436,-2.4436,-2.5226,-2.6082,-2.6867,-2.6997,-2.7144,-2.7291,-2.7438,-2.788,-2.8615,-2.9666,-3.0494,-3.1241,-3.2261,-3.2608,-3.2474,-3.309,-3.318,-3.3055,-3.3593,-3.3817,-3.3817,-3.3817,-3.3817,-3.3817,-3.3817,-3.3817,-3.3817,-3.3817,-3.3817,-3.3853,-3.4073,-3.4422,-3.4825,-3.5229,-3.5339,-3.543,-3.5834,-3.5925,-3.5833,-3.5644,-3.5306,-3.4857,-3.4516,-3.4064,-3.3761,-3.3761,-3.4008,-3.4196,-3.435,-3.4727,-3.5104,-3.5446,-3.5686,-3.5892,-3.6063,-3.6097,-3.5757,-3.4767,-3.3935,-3.3019,-3.2098,-3.0343,-2.9759,-3.0759,-2.9999,-2.9171,-2.8337,-2.7556,-2.671,-2.5856,-2.5723,-2.5651,-2.5651,-2.5506,-2.5433,-2.5433,-2.5433,-2.5433,-2.1203,-2.1203,-2.1175,-2.0874,-2.0773,-2.0656,-2.0617,-2.0488,-2.0381,-2.0435,-2.0668,-2.0975,-2.1256,-2.155,-2.1924,-2.2445,-2.2712,-2.2886,-2.2966,-2.3434,-2.3794,-2.3861,-2.4329,-2.471,-2.5065,-2.5139,-2.5286,-2.5639,-2.5712,-2.5712,-2.5712,-2.5712,-2.5712,-2.5712,-2.6794,-2.7578,-2.7939,-2.9147,-2.956,-2.9202,-2.9202,-2.9417,-2.979,-3.1283,-3.215,-3.2595,-3.4089,-3.4568,-3.4257,-3.4257,-3.4092,-3.3817,-3.3817,-3.3817,-3.3817,-3.3817,-3.3817,-3.3817,-3.3817,-3.3817,-3.3817,-3.3817,-3.3817,-3.389,-3.4275,-3.4697,-3.5119,-3.5504,-3.5687,-3.5834,-3.6127,-3.6126,-3.5978,-3.553,-3.5157,-3.4724,-3.4365,-3.3988,-3.3761,-3.3761,-3.4145,-3.4419,-3.4505,-3.507,-3.5532,-3.5635,-3.5909,-3.6097,-3.6097,-3.5757,-3.4929,-3.351,-3.2752,-3.1571,-2.9888,-2.8466,-2.8212,-2.9635,-2.8596,-2.7956,-2.7956,-2.6797,-2.6218,-2.6218,-2.6025,-2.5892,-2.5832,-2.5627,-2.5494,-2.5433,-2.5433,-2.5433,-2.1203,-2.1203,-2.1161,-2.1175,-2.0939,-2.0645,-2.0378,-2.0516,-2.0757,-2.0989,-2.1283,-2.1641,-2.1871,-2.2164,-2.2458,-2.2779,-2.2846,-2.2966,-2.3247,-2.3567,-2.3875,-2.4142,-2.4449,-2.5139,-2.6575,-2.6721,-2.736,-2.8772,-2.8844,-2.8844,-2.8844,-2.8844,-2.8844,-2.8844,-2.8988,-2.9718,-3.1155,-3.1296,-3.0643,-2.9202,-2.9202,-2.9916,-3.1367,-3.1472,-3.2333,-3.3714,-3.382,-3.389,-3.3853,-3.3853,-3.3835,-3.3817,-3.3817,-3.3817,-3.3817,-3.3817,-3.3817,-3.3817,-3.3817,-3.3817,-3.3817,-3.3817,-3.3817,-3.389,-3.4275,-3.4697,-3.5119,-3.5504,-3.5889,-3.6164,-3.6201,-3.5903,-3.553,-3.5157,-3.4724,-3.4365,-3.3912,-3.3837,-3.3761,-3.3761,-3.4145,-3.4505,-3.4864,-3.5258,-3.5635,-3.5994,-3.608,-3.6097,-3.6097,-3.4588,-3.351,-3.3429,-3.0687,-2.8188,-2.6659,-2.6421,-2.6421,-2.6509,-2.6433,-2.6358,-2.6358,-2.6294,-2.6218,-2.6218,-2.6194,-2.6073,-2.5832,-2.5808,-2.5675,-2.5433,-2.5433,-2.5433,-2.1203,-2.1191,-2.1132,-2.0939,-2.1106,-2.1176,-2.0862,-2.0902,-2.1092,-2.1642,-2.2507,-2.3515,-2.4719,-2.4399,-2.4068,-2.4181,-2.421,-2.4309,-2.4703,-2.5769,-2.6653,-2.7038,-2.7296,-2.7707,-2.8285,-2.8357,-2.8573,-2.9131,-2.9202,-2.9202,-2.9202,-2.9202,-2.9202,-2.9202,-3.0146,-3.0926,-3.1508,-3.2209,-3.2242,-3.167,-3.1966,-3.2368,-3.2945,-3.2945,-3.3242,-3.3817,-3.3817,-3.3817,-3.3817,-3.3817,-3.3817,-3.3817,-3.3817,-3.3817,-3.3817,-3.3817,-3.3817,-3.3817,-3.3817,-3.3817,-3.3817,-3.3817,-3.3817,-3.3927,-3.4587,-3.4899,-3.5174,-3.5797,-3.6091,-3.6126,-3.5903,-3.568,-3.5456,-3.4799,-3.4516,-3.429,-3.3912,-3.3761,-3.3905,-3.4145,-3.4487,-3.4864,-3.5241,-3.5618,-3.5926,-3.6063,-3.6097,-3.5676,-3.4604,-3.3854,-3.2603,-3.0533,-2.8373,-2.6797,-2.6206,-2.6375,-2.6484,-2.6484,-2.6484,-2.6484,-2.6484,-2.6641,-2.6725,-2.6725,-2.6556,-2.6435,-2.6327,-2.6158,-2.6025,-2.5928,-2.5928,-2.5928,-2.1031,-2.1148,-2.1231,-2.1317,-2.1854,-2.2452,-2.251,-2.1985,-2.1534,-2.2089,-2.3477,-2.5,-2.6527,-2.63,-2.5801,-2.5667,-2.5667,-2.5817,-2.6321,-2.7476,-2.836,-2.8876,-2.9059,-2.9417,-2.9845,-2.9916,-3.0146,-3.0643,-3.0643,-3.0643,-3.0643,-3.0643,-3.0643,-3.0643,-3.1546,-3.2053,-3.2053,-3.2665,-3.3028,-3.3028,-3.3303,-3.3505,-3.3633,-3.3762,-3.3817,-3.3817,-3.3817,-3.3817,-3.3817,-3.3817,-3.3817,-3.3817,-3.3817,-3.3817,-3.3817,-3.3817,-3.3817,-3.3817,-3.3817,-3.3817,-3.3817,-3.3817,-3.3817,-3.3963,-3.4788,-3.5027,-3.5192,-3.5981,-3.6201,-3.6052,-3.553,-3.5381,-3.5231,-3.4591,-3.429,-3.4174,-3.3991,-3.4008,-3.4128,-3.4505,-3.4881,-3.5224,-3.5463,-3.584,-3.6097,-3.6097,-3.5595,-3.4767,-3.3592,-3.252,-3.0829,-2.8173,-2.6934,-2.6387,-2.6472,-2.6653,-2.6761,-2.6761,-2.6761,-2.6761,-2.6761,-2.693,-2.7027,-2.7027,-2.6858,-2.6725,-2.6641,-2.6447,-2.6303,-2.6218,-2.6218,-2.6218,-2.0716,-2.0959,-2.1451,-2.2468,-2.3475,-2.4487,-2.5516,-2.3823,-2.2137,-2.2432,-2.4103,-2.5853,-2.6906,-2.7387,-2.7519,-2.7172,-2.7105,-2.7359,-2.8159,-2.8255,-2.8509,-2.9123,-2.9202,-2.9845,-3.1367,-3.1508,-3.2158,-3.3678,-3.3817,-3.3817,-3.3817,-3.3817,-3.3817,-3.3817,-3.3431,-3.323,-3.323,-3.2808,-3.2588,-3.2588,-3.2588,-3.2808,-3.323,-3.3633,-3.3817,-3.3817,-3.3817,-3.3817,-3.3817,-3.3817,-3.3817,-3.3817,-3.3817,-3.3817,-3.3817,-3.3817,-3.3817,-3.3817,-3.3817,-3.3817,-3.3817,-3.3817,-3.3817,-3.3963,-3.4788,-3.5027,-3.5192,-3.5981,-3.6201,-3.5978,-3.5231,-3.5007,-3.4932,-3.4516,-3.4064,-3.3939,-3.4299,-3.4385,-3.4505,-3.4898,-3.5258,-3.5498,-3.5515,-3.584,-3.6097,-3.6097,-3.4506,-3.3347,-3.3347,-3.0464,-2.8,-2.6759,-2.6641,-2.6749,-2.7003,-2.7027,-2.7027,-2.7027,-2.7027,-2.7027,-2.7027,-2.7027,-2.7027,-2.7027,-2.7027,-2.6906,-2.6641,-2.6641,-2.6496,-2.623,-2.623,-2.623,-2.2418,-2.2622,-2.2944,-2.4639,-2.5324,-2.5691,-2.628,-2.5986,-2.6028,-2.7343,-2.8114,-2.8854,-2.9917,-2.9395,-2.8723,-2.8657,-2.8657,-2.8926,-2.9681,-3.0666,-3.1575,-3.235,-3.2438,-3.2596,-3.3085,-3.3103,-3.3312,-3.3747,-3.4094,-3.4094,-3.3817,-3.4094,-3.4094,-3.3817,-3.3431,-3.323,-3.323,-3.2533,-3.2184,-3.2184,-3.2184,-3.2551,-3.323,-3.334,-3.3541,-3.3817,-3.3817,-3.3817,-3.3817,-3.3817,-3.3817,-3.3817,-3.3817,-3.3817,-3.3817,-3.3817,-3.3817,-3.3817,-3.3817,-3.3817,-3.3817,-3.3817,-3.3817,-3.3963,-3.4788,-3.5027,-3.5192,-3.5981,-3.6201,-3.5978,-3.5231,-3.5007,-3.4857,-3.4139,-3.4118,-3.4248,-3.4368,-3.4607,-3.4915,-3.5275,-3.5429,-3.56,-3.5874,-3.4944,-3.418,-3.418,-3.2674,-3.1179,-3.0057,-2.8338,-2.698,-2.6616,-2.681,-2.6942,-2.7027,-2.7027,-2.7027,-2.7027,-2.7027,-2.7027,-2.7027,-2.7027,-2.7027,-2.7027,-2.7027,-2.6991,-2.6918,-2.6918,-2.687,-2.6785,-2.6785,-2.6785,-2.2609,-2.2994,-2.3528,-2.5957,-2.6827,-2.7447,-2.8527,-2.7931,-2.7589,-2.9261,-2.9722,-3.013,-3.1184,-3.0797,-3.026,-3.0195,-3.013,-3.0394,-3.1187,-3.2052,-3.29,-3.3725,-3.3817,-3.3817,-3.3817,-3.3955,-3.4024,-3.4024,-3.437,-3.4508,-3.4232,-3.437,-3.4301,-3.4024,-3.3335,-3.2973,-3.2973,-3.2166,-3.1763,-3.1763,-3.1763,-3.2111,-3.2753,-3.3083,-3.3358,-3.3596,-3.3743,-3.3817,-3.3817,-3.3817,-3.3817,-3.3817,-3.3817,-3.3817,-3.3817,-3.3817,-3.3817,-3.3817,-3.3817,-3.3817,-3.3817,-3.3817,-3.3927,-3.4165,-3.4825,-3.5137,-3.5394,-3.6036,-3.6201,-3.5978,-3.5231,-3.5007,-3.4782,-3.3988,-3.4128,-3.4436,-3.459,-3.4915,-3.5292,-3.5669,-3.5737,-3.5565,-3.514,-3.4099,-3.3183,-3.251,-3.0944,-2.9338,-2.7892,-2.7043,-2.6677,-2.6785,-2.693,-2.7027,-2.7027,-2.7027,-2.7027,-2.7027,-2.7027,-2.7027,-2.7027,-2.7027,-2.7027,-2.7027,-2.7027,-2.7027,-2.7027,-2.7027,-2.7027,-2.7027,-2.7027,-2.7027,-2.2191,-2.2833,-2.3766,-2.6781,-2.8263,-2.9474,-3.1423,-2.9574,-2.785,-2.9265,-2.9787,-3.0242,-3.1249,-3.1653,-3.1717,-3.1442,-3.1377,-3.1671,-3.2478,-3.2655,-3.2967,-3.3707,-3.3817,-3.3886,-3.3886,-3.4163,-3.4439,-3.4439,-3.4784,-3.4921,-3.4921,-3.4577,-3.4439,-3.437,-3.3231,-3.2588,-3.2588,-3.1781,-3.1377,-3.1377,-3.1377,-3.1598,-3.2038,-3.2808,-3.3211,-3.3303,-3.3651,-3.3817,-3.3817,-3.3817,-3.3817,-3.3817,-3.3817,-3.3817,-3.3817,-3.3817,-3.3817,-3.3817,-3.3853,-3.3872,-3.3872,-3.3908,-3.4165,-3.4532,-3.4954,-3.5339,-3.5705,-3.6091,-3.6201,-3.5978,-3.5231,-3.5025,-3.4835,-3.404,-3.4179,-3.4556,-3.4933,-3.5309,-3.5669,-3.6029,-3.5999,-3.5335,-3.3674,-3.3101,-3.2361,-3.0636,-2.9168,-2.7866,-2.6746,-2.6665,-2.6761,-2.7003,-2.7027,-2.7027,-2.7027,-2.7027,-2.7027,-2.7027,-2.7027,-2.7027,-2.7027,-2.7027,-2.7027,-2.7027,-2.7027,-2.7027,-2.7027,-2.7027,-2.7027,-2.7027,-2.7027,-2.7027,-2.5594,-2.588,-2.6275,-2.924,-3.039,-3.0901,-3.1405,-3.0972,-3.0649,-3.1184,-3.1184,-3.1102,-3.1377,-3.1442,-3.1506,-3.1377,-3.1377,-3.1671,-3.2478,-3.2855,-3.3237,-3.3725,-3.4094,-3.4301,-3.4301,-3.437,-3.4508,-3.4784,-3.5127,-3.5196,-3.4921,-3.4853,-3.4646,-3.437,-3.3231,-3.2588,-3.2588,-3.1781,-3.1377,-3.1377,-3.1377,-3.1598,-3.2019,-3.2514,-3.3083,-3.3688,-3.378,-3.3817,-3.3817,-3.3817,-3.3817,-3.3817,-3.3817,-3.3817,-3.3817,-3.3817,-3.3817,-3.3853,-3.4165,-3.4275,-3.433,-3.466,-3.4825,-3.4972,-3.5375,-3.5559,-3.5705,-3.6091,-3.5978,-3.5605,-3.5157,-3.5011,-3.4877,-3.4418,-3.4573,-3.495,-3.5309,-3.5686,-3.5994,-3.608,-3.4929,-3.3854,-3.3429,-3.1105,-2.8683,-2.7149,-2.6922,-2.694,-2.6616,-2.6822,-2.6966,-2.7027,-2.7027,-2.7027,-2.7027,-2.7027,-2.7027,-2.7027,-2.7027,-2.7027,-2.7027,-2.7027,-2.7027,-2.7027,-2.7027,-2.7027,-2.7027,-2.7027,-2.7027,-2.7027,-2.7027,-2.7027,-2.6424,-2.6871,-2.7303,-3.0026,-3.1169,-3.1589,-3.1442,-3.1377,-3.1442,-3.1653,-3.1506,-3.1377,-3.1377,-3.1377,-3.1377,-3.1377,-3.1377,-3.1671,-3.2478,-3.2807,-3.3102,-3.3707,-3.3955,-3.4163,-3.437,-3.4577,-3.4784,-3.5127,-3.5538,-3.5675,-3.547,-3.5059,-3.4853,-3.4646,-3.3484,-3.279,-3.2588,-3.1983,-3.1579,-3.1377,-3.1579,-3.2001,-3.2588,-3.2808,-3.323,-3.3817,-3.3817,-3.3817,-3.3817,-3.3817,-3.3817,-3.3817,-3.3817,-3.3817,-3.3817,-3.3817,-3.3927,-3.4128,-3.433,-3.4532,-3.4733,-3.4954,-3.5155,-3.5357,-3.5559,-3.576,-3.5944,-3.6146,-3.5903,-3.5584,-3.5313,-3.5146,-3.5009,-3.4925,-3.5087,-3.5275,-3.5463,-3.5823,-3.5838,-3.5011,-3.4017,-3.2839,-3.1188,-2.8723,-2.6805,-2.6064,-2.6375,-2.6689,-2.681,-2.6942,-2.7027,-2.7027,-2.7027,-2.7027,-2.7027,-2.7027,-2.7027,-2.7027,-2.7027,-2.7027,-2.7027,-2.7027,-2.7027,-2.7027,-2.7027,-2.7027,-2.7027,-2.7027,-2.7027,-2.7027,-2.7027,-2.7027,-2.6473,-2.729,-2.8079,-3.0246,-3.1376,-3.191,-3.1635,-3.1506,-3.1506,-3.1506,-3.1442,-3.1377,-3.1377,-3.1377,-3.1377,-3.1377,-3.1433,-3.1744,-3.2496,-3.2728,-3.3041,-3.3725,-3.3886,-3.4094,-3.4439,-3.4715,-3.5059,-3.5557,-3.5811,-3.6016,-3.6016,-3.5333,-3.4921,-3.4921,-3.3774,-3.3182,-3.3081,-3.2427,-3.2059,-3.1967,-3.2151,-3.257,-3.323,-3.3303,-3.3505,-3.3817,-3.3817,-3.3817,-3.3817,-3.3817,-3.3817,-3.3817,-3.3817,-3.3853,-3.3908,-3.3908,-3.4165,-3.4513,-3.4587,-3.4844,-3.5137,-3.521,-3.5449,-3.5724,-3.5724,-3.5944,-3.6201,-3.6126,-3.5883,-3.556,-3.5521,-3.5333,-3.5115,-3.544,-3.531,-3.5202,-3.5521,-3.5617,-3.5173,-3.3674,-3.2983,-3.1512,-2.8261,-2.6696,-2.6037,-2.6254,-2.6532,-2.6785,-2.7003,-2.7027,-2.7027,-2.7027,-2.7027,-2.7027,-2.7027,-2.7027,-2.7027,-2.7027,-2.7027,-2.7027,-2.7027,-2.7027,-2.7027,-2.7027,-2.7027,-2.7027,-2.7027,-2.7027,-2.7027,-2.7027,-2.7027,-2.7027,-2.7381,-2.8842,-3.0174,-3.0959,-3.1734,-3.2294,-3.2294,-3.2038,-3.1846,-3.1846,-3.1589,-3.1377,-3.1377,-3.1377,-3.1377,-3.1377,-3.1689,-3.2074,-3.2533,-3.3188,-3.3663,-3.3762,-3.4094,-3.4439,-3.4784,-3.4853,-3.5196,-3.5879,-3.5947,-3.6016,-3.6016,-3.5333,-3.4921,-3.4921,-3.3774,-3.3786,-3.4948,-3.3367,-3.3142,-3.4231,-3.3449,-3.312,-3.323,-3.3578,-3.3762,-3.3817,-3.3817,-3.3817,-3.3817,-3.3817,-3.3817,-3.3817,-3.3817,-3.4018,-3.433,-3.433,-3.4587,-3.499,-3.5339,-3.5485,-3.5595,-3.5944,-3.6091,-3.6127,-3.6127,-3.6164,-3.6126,-3.5754,-3.5632,-3.5539,-3.5134,-3.5253,-3.5457,-3.5481,-3.4614,-3.4099,-3.5689,-3.4815,-3.3674,-3.3429,-3.1076,-2.847,-2.645,-2.6282,-2.6544,-2.658,-2.681,-2.6991,-2.7027,-2.7027,-2.7027,-2.7027,-2.7027,-2.7027,-2.7027,-2.7027,-2.7027,-2.7027,-2.7027,-2.7027,-2.7027,-2.7027,-2.7027,-2.7027,-2.7027,-2.7027,-2.7027,-2.7027,-2.7027,-2.7027,-2.7027,-2.7027,-2.7776,-2.935,-3.0776,-3.1019,-3.1703,-3.2327,-3.2365,-3.2102,-3.1929,-3.1929,-3.1653,-3.1377,-3.1377,-3.1377,-3.1377,-3.1377,-3.1726,-3.2148,-3.2533,-3.309,-3.3582,-3.3762,-3.3955,-3.4301,-3.4853,-3.4921,-3.5196,-3.5947,-3.6016,-3.5947,-3.5743,-3.5196,-3.4784,-3.4646,-3.3927,-3.4097,-3.5293,-3.4518,-3.4821,-3.6249,-3.4948,-3.4507,-3.4686,-3.407,-3.3817,-3.3817,-3.3817,-3.3817,-3.3817,-3.3817,-3.3817,-3.3835,-3.4055,-3.4238,-3.4422,-3.466,-3.5009,-3.5375,-3.5559,-3.576,-3.5981,-3.6146,-3.6201,-3.6201,-3.6201,-3.6216,-3.6174,-3.5948,-3.5798,-3.5614,-3.5591,-3.5573,-3.531,-3.4534,-3.3806,-3.3347,-3.3167,-3.251,-3.173,-3.0825,-2.8699,-2.6809,-2.6112,-2.6375,-2.6641,-2.6641,-2.6858,-2.7027,-2.7027,-2.7027,-2.7027,-2.7027,-2.7027,-2.7027,-2.7027,-2.7027,-2.7027,-2.7027,-2.7027,-2.7027,-2.7027,-2.7027,-2.7027,-2.7027,-2.7027,-2.7027,-2.7027,-2.7027,-2.7027,-2.7027,-2.7027,-2.6379,-2.7949,-2.9616,-3.1011,-3.0994,-3.1949,-3.2809,-3.2574,-3.2282,-3.2038,-3.2038,-3.1717,-3.1377,-3.1377,-3.1377,-3.1377,-3.1377,-3.1818,-3.2258,-3.2551,-3.3046,-3.3486,-3.378,-3.3817,-3.4094,-3.4853,-3.4921,-3.5196,-3.5947,-3.5947,-3.5743,-3.547,-3.5059,-3.4646,-3.437,-3.4024,-3.4321,-3.5449,-3.5449,-3.5984,-3.7044,-3.5583,-3.5104,-3.5344,-3.4283,-3.3817,-3.3817,-3.3817,-3.3817,-3.3817,-3.3817,-3.3872,-3.3982,-3.4293,-3.4532,-3.4752,-3.5064,-3.543,-3.576,-3.576,-3.5962,-3.6219,-3.6329,-3.6366,-3.6384,-3.6494,-3.6431,-3.6286,-3.621,-3.5976,-3.5644,-3.5333,-3.5168,-3.4581,-3.312,-3.2428,-3.1685,-3.0426,-3.015,-2.9775,-2.8155,-2.6785,-2.6097,-2.6291,-2.6556,-2.6737,-2.6737,-2.6906,-2.7027,-2.7027,-2.7027,-2.7027,-2.7027,-2.7027,-2.7027,-2.7027,-2.7027,-2.7027,-2.7027,-2.7027,-2.7027,-2.7027,-2.7027,-2.7027,-2.7027,-2.7027,-2.7027,-2.7027,-2.7027,-2.7027,-2.7027,-2.647,-2.548,-2.7949,-2.9796,-3.1312,-3.0993,-3.2734,-3.4167,-3.306,-3.2579,-3.2358,-3.2358,-3.1827,-3.1377,-3.1377,-3.1377,-3.1377,-3.1377,-3.2038,-3.257,-3.2588,-3.3285,-3.3798,-3.3817,-3.3817,-3.4094,-3.4853,-3.4921,-3.5196,-3.5947,-3.5694,-3.5557,-3.5489,-3.4784,-3.4439,-3.437,-3.4024,-3.4471,-3.585,-3.585,-3.5918,-3.5986,-3.459,-3.3849,-3.3886,-3.3817,-3.3817,-3.3817,-3.3817,-3.3817,-3.3817,-3.3817,-3.4037,-3.4367,-3.4403,-3.488,-3.5559,-3.5577,-3.5834,-3.6182,-3.6182,-3.6182,-3.6274,-3.6677,-3.6806,-3.6879,-3.7246,-3.7067,-3.67,-3.6314,-3.6131,-3.5622,-3.3628,-3.3321,-3.3069,-3.1339,-2.9592,-2.8349,-2.8265,-2.848,-2.8096,-2.6327,-2.6242,-2.6604,-2.6616,-2.6834,-2.7015,-2.7015,-2.7015,-2.7027,-2.7027,-2.7027,-2.7027,-2.7027,-2.7027,-2.7027,-2.7027,-2.7027,-2.7027,-2.7027,-2.7027,-2.7027,-2.7027,-2.7027,-2.7027,-2.7027,-2.7027,-2.7027,-2.7027,-2.7027,-2.7027,-2.6936,-2.5081,-2.4275,-2.6953,-2.8186,0.0,-3.0903,-3.1928,-3.2815,-3.374,-3.3168,-3.2657,-3.3524,-3.2447,-3.1699,-3.2492,-3.2001,-3.1469,-3.1744,-3.2239,-3.2698,-3.2955,-3.3468,-3.3817,-3.3817,-3.3817,-3.4094,-3.4853,-3.4921,-3.5127,-3.5606,-3.5557,-3.5264,-3.4784,-3.4508,-3.4301,-3.4024,-3.3886,-3.449,-3.5889,-3.6816,-3.7333,-3.7266,-3.5821,-3.5158,-3.5158,-3.4214,-3.3945,-3.4202,-3.4202,-3.4055,-3.3835,-3.4092,-3.4275,-3.4458,-3.4972,-3.5357,-3.565,-3.5907,-3.6091,-3.6237,-3.6512,-3.6604,-3.6677,-3.7081,-3.7209,-3.7169,-3.7067,-3.6916,-3.6724,-3.6254,-3.531,-3.4229,-3.3401,-3.2587,-3.1559,-2.9985,-2.8241,-2.6872,-2.6872,-2.6947,-2.6897,-2.6403,-2.6508,-2.6689,-2.6858,-2.6966,-2.7027,-2.7027,-2.7027,-2.7027,-2.7027,-2.7027,-2.7027,-2.7027,-2.7027,-2.7027,-2.7027,-2.7027,-2.7027,-2.7027,-2.7027,-2.7027,-2.7027,-2.7196,-2.728,-2.728,-2.7449,-2.7449,-2.728,-2.728,-2.6617,-2.5552,-2.4796,-2.3145,-2.6348,-2.7515,-2.8966,-3.0066,-3.116,-3.2175,-3.3135,-3.2793,-3.2441,-3.3359,-3.2384,-3.1699,-3.2556,-3.2001,-3.1506,-3.1946,-3.2459,-3.29,-3.3175,-3.356,-3.3817,-3.3817,-3.3817,-3.4024,-3.4646,-3.4715,-3.4921,-3.5264,-3.5196,-3.4921,-3.4439,-3.4301,-3.4094,-3.3817,-3.3817,-3.449,-3.5889,-3.655,-3.7084,-3.7557,-3.624,-3.5578,-3.5578,-3.4622,-3.4367,-3.4605,-3.4605,-3.4458,-3.4238,-3.4495,-3.4697,-3.4862,-3.5412,-3.5705,-3.587,-3.6274,-3.6421,-3.6476,-3.6897,-3.7026,-3.7099,-3.7503,-3.7631,-3.7572,-3.7234,-3.6666,-3.5988,-3.5589,-3.4067,-3.2514,-3.1934,-3.0663,-2.9254,-2.8256,-2.7159,-2.6363,-2.6363,-2.6363,-2.6411,-2.6604,-2.6713,-2.6822,-2.7003,-2.7027,-2.7027,-2.7027,-2.7027,-2.7027,-2.7027,-2.7027,-2.7027,-2.7027,-2.7027,-2.7027,-2.7027,-2.7027,-2.7075,-2.716,-2.716,-2.7196,-2.7292,-2.7461,-2.7546,-2.7546,-2.7727,-2.739,-2.6643,-2.7211,-2.6224,-2.3632,-2.3726,-2.1573,0.0,0.0,0.0,-2.8463,-3.0475,-3.2289,-3.1327,0.0,-3.1829,-3.2008,-3.1699,-3.1423,-3.1442,-3.1442,-3.1524,-3.1946,-3.268,-3.3193,-3.323,-3.356,-3.3798,-3.3817,-3.3817,-3.3955,-3.437,-3.437,-3.4508,-3.4853,-3.4577,-3.437,-3.437,-3.4024,-3.3835,-3.3835,-3.3853,-3.4527,-3.586,-3.4901,-3.5107,-3.6463,-3.5448,-3.5027,-3.5027,-3.5027,-3.5045,-3.5045,-3.5045,-3.5045,-3.5064,-3.5045,-3.5265,-3.5614,-3.5632,-3.587,-3.6274,-3.6677,-3.6842,-3.6916,-3.7301,-3.7448,-3.7503,-3.7906,-3.8034,-3.803,-3.7957,-3.6431,-3.462,-3.4148,-3.2591,-3.0679,-2.8893,-2.7319,-2.623,-2.6242,-2.6447,-2.6653,-2.6653,-2.6653,-2.6653,-2.6653,-2.6858,-2.7027,-2.7027,-2.7027,-2.7027,-2.7027,-2.7027,-2.7027,-2.7027,-2.7027,-2.7027,-2.7027,-2.7027,-2.7039,-2.7039,-2.7039,-2.716,-2.7413,-2.7437,-2.7546,-2.7799,-2.7824,-2.7824,-2.7824,-2.7742,-2.6828,-2.5045,-2.6805,-2.5539,-2.1564,-2.1545,-1.9556,-2.583,0.0,0.0,0.0,0.0,0.0,-3.2639,0.0,-3.1626,-3.4024,-3.2805,-3.1619,-3.2644,-3.2327,-3.1873,-3.1983,-3.2203,-3.2551,-3.3138,-3.3321,-3.3486,-3.378,-3.3817,-3.3955,-3.437,-3.437,-3.4439,-3.4508,-3.4439,-3.4301,-3.3955,-3.4162,-3.4238,-3.4238,-3.4532,-3.4839,-3.5246,-3.4931,-3.5058,-3.5414,-3.5115,-3.5027,-3.5027,-3.5027,-3.5192,-3.5449,-3.5449,-3.5614,-3.5852,-3.5577,-3.5522,-3.565,-3.5925,-3.6292,-3.6677,-3.6787,-3.7026,-3.7319,-3.7704,-3.7851,-3.7924,-3.8328,-3.8475,-3.8079,-3.6218,-3.529,-3.4587,-3.2532,-3.085,-2.9171,-2.7574,-2.6815,-2.6568,-2.6761,-2.687,-2.6918,-2.6918,-2.6918,-2.6918,-2.6918,-2.6979,-2.7027,-2.7027,-2.7027,-2.7027,-2.7027,-2.7027,-2.7027,-2.7027,-2.7027,-2.7027,-2.7027,-2.7027,-2.7111,-2.7292,-2.7317,-2.7425,-2.7691,-2.7703,-2.7739,-2.7811,-2.7993,-2.8101,-2.8101,-2.6919,-2.5269,-2.3268,-2.5025,-2.3758,-1.9843,-1.8392,-1.7053,-2.5547,-2.5907,-2.6434,-2.7359,0.0,0.0,-3.0848,-3.0683,-3.0691,-3.2634,-3.2007,-3.1306,-3.2144,-3.203,-3.1744,-3.1744,-3.1744,-3.2038,-3.2845,-3.312,-3.3303,-3.3541,-3.3707,-3.3886,-3.4094,-3.4163,-3.4163,-3.4163,-3.4163,-3.4098,-3.4055,-3.444,-3.466,-3.466,-3.4899,-3.5027,-3.5027,-3.5192,-3.5284,-3.5284,-3.5449,-3.5522,-3.5522,-3.5522,-3.5742,-3.6127,-3.6127,-3.6347,-3.6696,-3.6476,-3.6274,-3.6146,-3.6384,-3.6732,-3.7099,-3.7264,-3.7466,-3.7723,-3.8144,-3.8273,-3.8152,-3.7657,-3.741,-3.6769,-3.4458,-3.3234,-3.2236,-3.0652,-2.9125,-2.7776,-2.6994,-2.6798,-2.6846,-2.6991,-2.7027,-2.7027,-2.7027,-2.7027,-2.7027,-2.7027,-2.7027,-2.7027,-2.7027,-2.7027,-2.7027,-2.7027,-2.7027,-2.7027,-2.7027,-2.7027,-2.7027,-2.7027,-2.7123,-2.7256,-2.7413,-2.7522,-2.7691,-2.7956,-2.798,-2.8029,-2.8149,-2.8403,-2.8056,-2.7168,-2.6277,-2.4335,-2.1271,-2.3101,-2.2409,-1.9117,-1.7062,-1.6083,-2.5333,-2.5572,-2.581,-2.5597,-2.6437,0.0,-2.7676,-2.8539,-2.9375,-2.9698,-3.026,-3.0688,-3.0772,-3.1084,-3.1322,-3.1377,-3.1377,-3.1653,-3.2423,-3.2845,-3.312,-3.3211,-3.3541,-3.3762,-3.3817,-3.3817,-3.3817,-3.3817,-3.3853,-3.4055,-3.4458,-3.4862,-3.51,-3.51,-3.5137,-3.5155,-3.5155,-3.5504,-3.5687,-3.5687,-3.6036,-3.6201,-3.6201,-3.6256,-3.6476,-3.6842,-3.6879,-3.7099,-3.7429,-3.7429,-3.7209,-3.6897,-3.6897,-3.7136,-3.7539,-3.7888,-3.8053,-3.8066,-3.8274,-3.8304,-3.7986,-3.6236,-3.5366,-3.4718,-3.273,-3.0764,-2.91,-2.8744,-2.7713,-2.6737,-2.6966,-2.7027,-2.7027,-2.7027,-2.7027,-2.7027,-2.7027,-2.7027,-2.7027,-2.7027,-2.7027,-2.7027,-2.7027,-2.7027,-2.7027,-2.7027,-2.7027,-2.7027,-2.7027,-2.7027,-2.7039,-2.7075,-2.728,-2.7449,-2.7498,-2.7715,-2.7968,-2.8234,-2.8246,-2.8379,-2.8656,-2.8886,-2.7933,-2.5764,-2.5472,-2.326,-1.9091,-2.0954,-2.085,-1.8821,-1.6963,-1.6083,-2.5333,-2.5194,-2.5131,-2.5151,-2.5694,0.0,-2.8184,-2.8282,-2.8521,0.0,-3.0308,-2.9981,-3.067,-3.0846,-3.1011,-3.1322,-3.1377,-3.1543,-3.2056,-3.2184,-3.2496,-3.3138,-3.3303,-3.3468,-3.378,-3.3817,-3.3817,-3.3817,-3.411,-3.4477,-3.488,-3.5284,-3.5504,-3.5504,-3.5815,-3.5981,-3.5981,-3.6054,-3.6091,-3.6091,-3.6164,-3.6201,-3.6219,-3.6567,-3.6751,-3.6861,-3.7173,-3.7356,-3.7429,-3.7429,-3.7374,-3.7319,-3.7319,-3.7558,-3.7906,-3.7979,-3.8236,-3.8292,-3.6957,-3.6494,-3.6155,-3.4018,-3.3391,-3.3063,-3.0523,-2.9793,-2.9387,-2.785,-2.7177,-2.6966,-2.7015,-2.7027,-2.7027,-2.7027,-2.7027,-2.7027,-2.7027,-2.7027,-2.7027,-2.7027,-2.7027,-2.7027,-2.7027,-2.7027,-2.7027,-2.7027,-2.7027,-2.7027,-2.7027,-2.7027,-2.7111,-2.7329,-2.7389,-2.7594,-2.8017,-2.8101,-2.8246,-2.8524,-2.8548,-2.8656,-2.8922,-2.8982,-2.8015,-2.6099,-2.2634,-1.9561,-1.6904,-1.717,-1.7091,-1.6672,-1.6275,-1.6083,-2.5194,-2.4892,-2.4684,-2.464,-2.496,0.0,0.0,-2.7109,-2.7474,-2.8936,-2.9235,-2.9398,-2.9843,-3.0387,-3.0846,-3.1047,-3.1249,-3.1451,-3.1653,-3.1873,-3.2166,-3.257,-3.279,-3.3065,-3.3486,-3.3523,-3.3688,-3.4073,-3.4477,-3.4899,-3.5302,-3.5705,-3.5907,-3.5907,-3.6109,-3.6201,-3.6201,-3.6201,-3.6201,-3.6201,-3.6201,-3.6311,-3.6531,-3.6751,-3.7044,-3.7429,-3.7631,-3.7833,-3.8034,-3.8034,-3.8034,-3.8016,-3.7796,-3.7961,-3.8328,-3.8328,-3.7885,-3.7152,-3.6316,-3.5386,-3.4211,-3.2213,-3.1435,-3.0894,-2.8838,-2.8331,-2.8258,-2.725,-2.7027,-2.7027,-2.7027,-2.7027,-2.7027,-2.7027,-2.7027,-2.7027,-2.7027,-2.7027,-2.7027,-2.7027,-2.7027,-2.7027,-2.7027,-2.7027,-2.7027,-2.7027,-2.7027,-2.7027,-2.7027,-2.7148,-2.728,-2.7413,-2.7655,-2.792,-2.8186,-2.8331,-2.8524,-2.8801,-2.8813,-2.8874,-2.9006,-2.8136,-2.6166,-2.3064,-1.9662,-1.748,-1.6307,-1.6157,-1.6083,-1.6083,-1.6083,-1.6083,-2.5251,-2.4871,-2.4622,-2.449,-2.4753,-2.5139,0.0,0.0,0.0,-2.7105,-2.8022,-2.8792,-2.8957,-2.9837,-3.0589,-3.0662,-3.1011,-3.1267,-3.1267,-3.1616,-3.1909,-3.2001,-3.2294,-3.268,-3.3175,-3.3303,-3.367,-3.4458,-3.4844,-3.5229,-3.5705,-3.6036,-3.6201,-3.6201,-3.6201,-3.6201,-3.6201,-3.6201,-3.6201,-3.6201,-3.6292,-3.6512,-3.6767,-3.6609,-3.7104,-3.8016,-3.7698,-3.7995,-3.856,-3.8225,-3.8066,-3.8109,-3.8097,-3.8092,-3.8066,-3.8066,-3.6992,-3.543,-3.5092,-3.3914,-3.232,-3.0453,-2.9408,-2.8749,-2.7585,-2.7128,-2.7027,-2.7027,-2.7027,-2.7027,-2.7027,-2.7027,-2.7027,-2.7027,-2.7027,-2.7027,-2.7027,-2.7027,-2.7027,-2.7027,-2.7027,-2.7027,-2.7027,-2.7027,-2.7027,-2.7027,-2.7027,-2.7051,-2.7099,-2.7292,-2.7461,-2.7558,-2.7944,-2.8222,-2.8282,-2.8536,-2.8765,-2.8934,-2.8982,-2.9019,-2.9019,-2.6859,-2.3757,-1.9796,-1.7466,-1.6293,-1.6266,-1.6144,-1.6083,-1.6083,-1.6083,-1.6083,-2.5811,-2.5493,-2.5286,-2.5286,-2.558,-2.5892,-2.5929,0.0,-2.6701,-2.7105,0.0,-2.8132,-2.8847,0.0,0.0,-3.0204,-3.0589,-3.0846,-3.0846,-3.1194,-3.1579,-3.1964,-3.2038,-3.2386,-3.3156,-3.3541,-3.4092,-3.4899,-3.5009,-3.5357,-3.6109,-3.6182,-3.6201,-3.6201,-3.6201,-3.6201,-3.6201,-3.6201,-3.6201,-3.6219,-3.6586,-3.6787,-3.6785,-3.5973,-3.6481,-3.7956,-3.6764,-3.7117,-3.8481,-3.6912,-3.6333,-3.6396,-3.7932,-3.7614,-3.6333,-3.6333,-3.5187,-3.3429,-3.1736,-3.0945,-3.0439,-2.8078,-2.7158,-2.6897,-2.6996,-2.7003,-2.7027,-2.7027,-2.7027,-2.7027,-2.7027,-2.7027,-2.7027,-2.7027,-2.7027,-2.7027,-2.7027,-2.7027,-2.7027,-2.7027,-2.7027,-2.7027,-2.7027,-2.7027,-2.7027,-2.7027,-2.7027,-2.7111,-2.7341,-2.7401,-2.7594,-2.8065,-2.8162,-2.8306,-2.856,-2.8813,-2.8886,-2.8681,-2.8886,-2.9019,-2.9019,-2.5351,-2.2177,-1.9708,-1.7408,-1.6246,-1.611,-1.609,-1.6083,-1.6083,-1.6083,-1.6083,-2.6598,-2.6159,-2.5764,-2.5764,-2.5708,-2.5727,-2.5966,-2.6149,-2.6388,-2.6756,0.0,0.0,0.0,0.0,0.0,0.0,-3.0185,-3.0534,0.0,0.0,-3.1194,0.0,0.0,-3.1964,-3.2771,-3.323,-3.3908,-3.4954,-3.5027,-3.5375,-3.6164,-3.6201,-3.6201,-3.6201,-3.6201,-3.6201,-3.6201,-3.6201,-3.6329,-3.6567,-3.5731,-3.5575,-3.5955,-3.4518,-3.4448,-3.5291,-3.4716,-3.4944,-3.5527,-3.4782,-3.4457,-3.4538,-3.5285,-3.5106,-3.4474,-3.4687,-3.36,-3.2016,-3.1063,-3.0021,-2.885,-2.7394,-2.6863,-2.6882,-2.7003,-2.7027,-2.7027,-2.7027,-2.7027,-2.7027,-2.7027,-2.7027,-2.7027,-2.7027,-2.7027,-2.7027,-2.7027,-2.7027,-2.7027,-2.7027,-2.7027,-2.7027,-2.7027,-2.7027,-2.7027,-2.7027,-2.716,-2.7292,-2.7413,-2.7691,-2.7956,-2.8186,-2.8343,-2.85,-2.8608,-2.8729,-2.8801,-2.885,-2.8958,-2.7922,-2.5437,-2.3612,-2.0984,-1.7654,-1.6671,-1.6144,-1.6083,-1.6083,-1.6083,-1.6083,-1.6083,-1.6083,-2.766,-2.7087,-2.6682,-2.6682,-2.637,-2.6149,-2.6443,-2.6499,-2.6591,-2.6848,-2.7233,0.0,0.0,0.0,-2.9085,-2.936,0.0,-3.013,0.0,-3.0644,0.0,0.0,0.0,0.0,-3.2533,-3.2973,-3.3725,-3.4935,-3.5027,-3.5375,-3.6164,-3.6201,-3.6201,-3.6201,-3.6201,-3.6256,-3.6384,-3.5933,-3.615,-3.6932,-3.4925,-3.4452,-3.5288,-3.3226,-3.267,-3.3397,-3.2905,-3.2987,-3.3397,-3.2905,-3.2659,-3.2674,-3.2272,-3.1971,-3.2002,-3.2646,-3.1806,-3.034,-3.0032,-2.8947,-2.7671,-2.7148,-2.7027,-2.7027,-2.7027,-2.7027,-2.7027,-2.7027,-2.7027,-2.7027,-2.7027,-2.7027,-2.7027,-2.7027,-2.7027,-2.7027,-2.7027,-2.7027,-2.7027,-2.7027,-2.7027,-2.7027,-2.7027,-2.7027,-2.7051,-2.7123,-2.7304,-2.7473,-2.7618,-2.7968,-2.8234,-2.8306,-2.85,-2.862,-2.862,-2.8693,-2.8813,-2.9006,-2.8946,-2.7221,-2.3661,-2.2719,-2.0585,-1.7062,-1.6374,-1.6083,-1.6083,-1.6083,-1.6083,-1.6083,-1.6083,-1.6083,-2.9071,-2.8627,-2.8315,-2.8315,-2.8003,-2.7748,-2.7767,-2.7767,-2.7767,-2.7785,-2.8058,-2.8352,-2.837,-2.8718,-2.8993,-2.8993,-2.9342,0.0,0.0,0.0,0.0,0.0,0.0,0.0,0.0,-3.2973,-3.3725,-3.4935,-3.5027,-3.5375,-3.6164,-3.6201,-3.6201,-3.6201,-3.6201,-3.6402,-3.6806,-3.5372,-3.5547,-3.7334,-3.4562,-3.3985,-3.5305,-3.2258,-3.1753,-3.3315,-3.1602,-3.185,-3.3233,-3.1602,-3.0871,-3.0734,-2.9308,-2.8492,-2.8307,-2.9972,-2.9669,-2.826,-2.7662,-2.7235,-2.7015,-2.7027,-2.7027,-2.7027,-2.7027,-2.7027,-2.7027,-2.7027,-2.7027,-2.7027,-2.7027,-2.7027,-2.7027,-2.7027,-2.7027,-2.7027,-2.7027,-2.7027,-2.7027,-2.7027,-2.7027,-2.7027,-2.7027,-2.7027,-2.7111,-2.7365,-2.7413,-2.7606,-2.8113,-2.8198,-2.8306,-2.8584,-2.862,-2.862,-2.862,-2.885,-2.9006,-2.9019,-2.8777,-2.7646,-2.5475,-2.3413,-2.1263,-1.9117,-1.7162,-1.6083,-1.6083,-1.6083,-1.6083,-1.6083,-1.6083,-1.6083,-2.9819,-2.9489,-2.9177,-2.9177,-2.8865,-2.8572,-2.8572,-2.8572,-2.8498,-2.8242,-2.8297,-2.8388,-2.8388,-2.8498,-2.8682,-2.8938,-2.9085,-2.9269,0.0,0.0,0.0,0.0,0.0,0.0,0.0,0.0,0.0,0.0,-3.5027,-3.5375,-3.6164,-3.6201,-3.6201,-3.6201,-3.6476,-3.615,-3.5099,-3.5106,-3.5416,-3.6062,-3.293,-3.2366,-3.3953,-3.0646,-2.9384,-2.9955,-2.93,-2.9384,-2.9955,-2.93,-2.9172,-2.9294,-2.8821,-2.8572,-2.8552,-2.9152,-2.8868,-2.8042,-2.7683,-2.7304,-2.7027,-2.7027,-2.7027,-2.7027,-2.7027,-2.7027,-2.7027,-2.7027,-2.7027,-2.7027,-2.7027,-2.7027,-2.7027,-2.7027,-2.7027,-2.7027,-2.7027,-2.7027,-2.7027,-2.7027,-2.7027,-2.7027,-2.7027,-2.7172,-2.7317,-2.7413,-2.757,-2.7799,-2.8162,-2.8367,-2.8512,-2.8608,-2.862,-2.862,-2.862,-2.8705,-2.8753,-2.8753,-2.8669,-2.7044,-2.3511,-2.2731,-2.0683,-1.7261,-1.6474,-1.6083,-1.6083,-1.6083,-1.6083,-1.6083,-1.6083,-1.6083,-3.0846,-3.0424,-3.0002,-3.0002,-2.9709,-2.9415,-2.9415,-2.9415,-2.9342,-2.9085,-2.903,-2.903,-2.903,-2.903,-2.9122,-2.9379,-2.9415,0.0,0.0,-3.0461,0.0,0.0,0.0,0.0,0.0,0.0,0.0,0.0,0.0,0.0,0.0,-3.6201,-3.5978,-3.5363,-3.5682,-3.5469,-3.471,-3.4109,-3.4488,-3.5777,-3.1881,-3.0924,-3.2412,-2.9551,-2.8221,-2.8221,-2.8221,-2.8221,-2.8234,-2.8257,-2.843,-2.8631,-2.8658,-2.8614,-2.8499,-2.8499,-2.8118,-2.7606,-2.7509,-2.7299,-2.7027,-2.7027,-2.7027,-2.7027,-2.7027,-2.7027,-2.7015,-2.6918,-2.6954,-2.7003,-2.6918,-2.6966,-2.7027,-2.7027,-2.7027,-2.7027,-2.7027,-2.7027,-2.7027,-2.7027,-2.7027,-2.7063,-2.716,-2.7304,-2.7449,-2.7546,-2.7787,-2.8053,-2.8318,-2.8512,-2.862,-2.862,-2.862,-2.862,-2.862,-2.862,-2.862,-2.862,-2.862,-2.7345,-2.4688,-2.3121,-2.1067,-1.8335,-1.6864,-1.6083,-1.6083,-1.6083,-1.6083,-1.6083,-1.6083,-1.6083]}]]